     2              OBSERVATION DATA    GPS                 RINEX VERSION / TYPE
srx v1.3 (5/19/93) lyzenga 03/07/09 22:45:09                PGM / RUN BY / DATE
                                                            COMMENT
sig: 9 8 7 6 5 4 1 0                                        COMMENT
sig: 9 8 7 6 5 4 1 0                                        COMMENT
sig: 9 8 7 6 5 4 1 0                                        COMMENT
sig: 9 8 7 6 5 4 1 0                                        COMMENT
sig: 9 8 7 6 5 4 1 0                                        COMMENT
Original Marker Name: AWHD                                  COMMENT
Campaign Name: CSUSB 2002-2003                              COMMENT
4-Character Station Name: AWHD                              COMMENT
6-Character Antenna Code: DMRCHT                            COMMENT
Vertical Measurement Point: BCR                             COMMENT
Vertical Offset to Rinex Ref. Point: 0.0348                 COMMENT
Radial Measurement Point: ECF                               COMMENT
Radial Offset to Rinex Ref. Point: 0.1897                   COMMENT
Antenna Height from Field Measurement: 1.2120 m             COMMENT
Additional Antenna Identification Info.:                    COMMENT
Turborogue and Ashtech Choke Ring                           COMMENT
Original XYZ: -2434325.8936 -4700225.8002 3546897.5290      COMMENT
New XYZ position is based on association with SCEC monument COMMENT
E1D0S6L5+0011. Position of that monument is believed to be  COMMENT
valid to within 1 m horizontally; vertical accuracy         COMMENT
should be no worse than 3-times this value.                 COMMENT
                                                            COMMENT
Revised Rinex header created by UCSD GPS archive for        COMMENT
GSAC on 20-Apr-2005 (2005:110) 16:26:22 GMT                 COMMENT
For assistance contact dagnew@ucsd.edu                      COMMENT
or anderson@python.ucsd.edu                                 COMMENT
                                                            COMMENT
BRASS PIN IN EPOXY                                          MARKER NAME
AWHD                                                        MARKER NUMBER
RN CAL STATE SAN BERNARDINO                                 OBSERVER / AGENCY
T263 TURBOROGUE SNR-8000 98.12.27                           REC # / TYPE / VERS
260 DORNE-MARGOL. TYPE T                                    ANT # / TYPE
 -2420516.0000 -4695053.0000  3563593.0000                  APPROX POSITION XYZ
        1.1623        0.0000        0.0000                  ANTENNA: DELTA H/E/N
     1     1     0                                          WAVELENGTH FACT L1/2
     5    L1    L2    P1    P2    C1                        # / TYPES OF OBSERV
    30                                                      INTERVAL
  2003     6    30    15    11   30.000000                  TIME OF FIRST OBS
  2003     6    30    23    59   30.000000                  TIME OF LAST OBS
    18                                                      # OF SATELLITES
          01   205   205     0   205   205                  PRN / # OF OBS
          02   185   185     0   185   185                  PRN / # OF OBS
          03   498   498     0   498   498                  PRN / # OF OBS
          06   187   187     0   187   187                  PRN / # OF OBS
          09   152   152     0   152   152                  PRN / # OF OBS
          11   480   480     0   480   480                  PRN / # OF OBS
          14   798   798     0   798   798                  PRN / # OF OBS
          15   764   764     0   764   764                  PRN / # OF OBS
          16   363   363     0   363   363                  PRN / # OF OBS
          17   368   368     0   368   368                  PRN / # OF OBS
          18   614   614     0   614   614                  PRN / # OF OBS
          20   275   275     0   275   275                  PRN / # OF OBS
          21   471   471     0   471   471                  PRN / # OF OBS
          23   890   890     0   890   890                  PRN / # OF OBS
          25   579   579     0   579   579                  PRN / # OF OBS
          26   218   218     0   218   218                  PRN / # OF OBS
          30   102   102     0   102   102                  PRN / # OF OBS
                                                            END OF HEADER
 03 06 30 15 11 30.0000000  0  3 21 26 16
         0.18359         1.22856         0.00051  21096610.55256  21096609.41159
        -0.24958         0.41656         0.00051  22193599.17256  22193595.84558
        -1.08258        -0.65054         0.00051  23953097.25854  23953093.47958
 03 06 30 15 12 00.0000000  0  6 21 18 26 16 17 06
    -31185.14949    -24299.02446         0.00041  21090675.24846  21090674.55449
        -0.95658         0.19856         0.00051  22372863.84356  22372861.94558
    -64799.27648    -50492.30346         0.00041  22181268.48546  22181265.52048
    -59201.41948    -46130.79544         0.00041  23941832.38144  23941829.07848
         0.05459         1.02456         0.00051  20866028.40256  20866025.21959
        -0.41059         0.24457         0.00051  20256966.12857  20256963.96259
 03 06 30 15 12 30.0000000  0  6 21 18 17 26 06 16
    -61874.28849    -48212.63746         0.00041  21084835.59046  21084834.30949
    -88383.06248    -68868.94346         0.00041  22356046.25546  22356044.12048
       497.09649       388.31846         0.00041  20866123.24046  20866120.27449
   -128844.89548   -100397.95046         0.00041  22169080.85546  22169078.00148
     -2938.51049     -2289.19647         0.00041  20256407.21647  20256404.84649
   -117627.66348    -91657.70845         0.00041  23930714.07645  23930710.92348
 03 06 30 15 13 00.0000000  0  8 21 23 15 18 17 26 06 16
    -91658.32849    -71420.97846         0.00041  21079167.62846  21079166.39549
        -0.30157        -0.23454         0.00051  24587073.81254  24587073.81257
         0.21658         0.16854         0.00051  23718944.48054  23718944.48058
   -175738.13348   -136937.80346         0.00041  22339423.85046  22339420.84748
      1888.77149      1472.73146         0.00041  20866388.04746  20866384.84049
   -191724.56248   -149395.05646         0.00041  22157115.22446  22157112.00048
     -4705.56449     -3666.12647         0.00041  20256070.78647  20256068.59749
   -174868.90848   -136261.24945         0.00041  23919819.78245  23919818.25148
 03 06 30 15 13 30.0000000  0  8 21 23 15 18 17 26 06 16
   -121144.11949    -94396.91146         0.00041  21073556.49546  21073555.55649
   -100891.66948    -78616.88544         0.00041  24567875.55244  24567875.55248
    -72530.59448    -56517.34644         0.00041  23705140.26844  23705140.26848
   -262670.72148   -204677.46346         0.00041  22322880.28146  22322877.43848
      3569.09449      2782.05846         0.00041  20866707.50746  20866704.28549
   -254041.72548   -197953.86746         0.00041  22145257.16746  22145253.10448
     -5906.81149     -4602.16847         0.00041  20255842.10747  20255840.16949
   -231529.70148   -180412.50845         0.00041  23909038.68745  23909037.49048
 03 06 30 15 14 00.0000000  0  8 21 23 15 18 17 26 06 16
   -150599.65949   -117349.28346         0.00041  21067951.57446  21067950.64849
   -201779.95948   -157231.13744         0.00041  24548677.35944  24548677.35948
   -145126.64948   -113085.70144         0.00041  23691326.42444  23691326.42448
   -349448.07448   -272296.15746         0.00041  22306366.54246  22306364.52048
      5267.67249      4105.61746         0.00041  20867030.96146  20867027.67049
   -316061.86248   -246281.24546         0.00041  22133454.36346  22133451.67048
     -6810.17149     -5306.09247         0.00041  20255670.16347  20255668.14549
   -287877.34148   -224319.75344         0.00041  23898316.53244  23898314.39948
 03 06 30 15 14 30.0000000  0  8 21 23 15 18 17 26 06 16
   -180147.58149   -140373.63146         0.00041  21062328.43146  21062328.23249
   -302785.75748   -235936.63744         0.00041  24529465.25544  24529456.31948
   -217910.04448   -169800.03444         0.00041  23677474.99344  23677474.99348
   -436190.61148   -339887.69746         0.00041  22289860.46346  22289858.39748
      6862.83349      5348.59446         0.00041  20867334.98146  20867331.39649
   -377904.29448   -294470.13946         0.00041  22121685.37546  22121683.03748
     -7537.00749     -5872.46447         0.00041  20255532.13247  20255529.91849
   -344032.56348   -268077.03144         0.00041  23887630.33344  23887627.79748
 03 06 30 15 15 00.0000000  0  8 21 23 15 18 17 26 06 16
   -209720.22349   -163417.25146         0.00041  21056701.35646  21056700.08449
   -403839.03648   -314679.36044         0.00041  24510233.86244  24510226.28948
   -290812.69148   -226607.29244         0.00041  23663601.93144  23663601.93148
   -522828.55148   -407397.75246         0.00041  22273374.24246  22273371.46848
      8422.31149      6563.76146         0.00041  20867631.04446  20867627.86649
   -439497.62248   -342464.91946         0.00041  22109964.86446  22109962.06648
     -8017.93849     -6247.22347         0.00041  20255440.71447  20255438.34049
   -399925.29348   -311629.79544         0.00041  23876995.91044  23876991.46848
 03 06 30 15 15 30.0000000  0  8 21 23 15 18 17 26 06 16
   -239016.37249   -186245.41746         0.00041  21051126.31646  21051125.17349
   -504636.61448   -393222.88444         0.00041  24491052.51144  24491045.48948
   -363533.44848   -283272.12944         0.00041  23649762.63244  23649762.63248
   -609059.31548   -474590.53746         0.00041  22256964.43946  22256962.86348
     10247.09549      7985.66946         0.00041  20867978.21746  20867975.41749
   -500537.46148   -390028.40346         0.00041  22098349.71646  22098346.53148
     -7950.61049     -6194.76847         0.00041  20255453.28147  20255451.12649
   -455252.69748   -354742.05744         0.00041  23866465.08044  23866463.38348
 03 06 30 15 16 00.0000000  0  8 21 23 15 18 17 26 06 16
   -267849.48549   -208712.77846         0.00041  21045639.73046  21045638.38049
   -604990.06548   -471420.32544         0.00041  24471955.34444  24471948.69248
   -435885.99848   -339650.66144         0.00041  23635993.42544  23635993.42548
   -694694.31748   -541319.07146         0.00041  22240667.92046  22240667.22748
     12523.23849      9759.27946         0.00041  20868411.67046  20868408.48649
   -560834.37248   -437012.99246         0.00041  22086876.75946  22086872.47148
     -7147.44949     -5568.93447         0.00041  20255606.11747  20255604.10649
   -509826.74448   -397267.26344         0.00041  23856080.87544  23856079.33048
 03 06 30 15 16 30.0000000  0  8 23 15 18 21 17 26 06 16
   -705125.60948   -549447.95844         0.00041  24452900.10944  24452893.74348
   -508098.42748   -395920.03644         0.00041  23622251.93444  23622251.93448
   -779960.25748   -607760.03246         0.00041  22224442.41646  22224441.42448
   -296447.67449   -230997.08646         0.00041  21040197.96646  21040197.04349
     15022.50449     11706.74546         0.00041  20868887.38946  20868884.08249
   -620613.34248   -483593.98346         0.00041  22075500.77746  22075497.09148
     -5835.37349     -4546.54947         0.00041  20255855.79647  20255853.33949
   -563873.76348   -439381.83544         0.00041  23845796.01744  23845793.75848
 03 06 30 15 17 00.0000000  0  8 23 15 18 21 17 26 06 16
   -805619.28448   -627754.67044         0.00041  24433775.29144  24433770.75548
   -580748.61248   -452531.38644         0.00041  23608427.12144  23608427.12148
   -865433.48848   -674362.52146         0.00041  22208178.07146  22208176.03348
   -325388.91649   -253548.69846         0.00041  21034690.55146  21034689.49349
     17167.51149     13378.17446         0.00041  20869295.52746  20869292.32949
   -680449.15848   -530219.26845         0.00041  22064112.82345  22064110.49848
     -4591.24449     -3577.10947         0.00041  20256092.56347  20256090.47449
   -617969.98048   -481534.73344         0.00041  23835502.28644  23835498.77548
 03 06 30 15 17 30.0000000  0  8 23 15 18 21 17 26 06 16
   -905853.08548   -705858.82944         0.00041  24414705.75044  24414696.07048
   -653220.53548   -509003.01444         0.00041  23594637.15944  23594637.15948
   -950496.41448   -740645.29446         0.00041  22191990.76146  22191988.79948
   -354057.53249   -275887.88346         0.00041  21029235.10246  21029234.53949
     19573.76349     15253.16546         0.00041  20869753.51746  20869750.40849
   -739722.59648   -576406.33145         0.00041  22052833.72945  22052831.34348
     -2797.95949     -2179.74547         0.00041  20256433.68347  20256431.51949
   -671497.79348   -523244.73744         0.00041  23825315.07444  23825312.81048
 03 06 30 15 18 00.0000000  0  8 23 15 18 21 17 26 06 16
  -1005540.12248   -783537.04344         0.00041  24395733.30944  24395726.62948
   -725229.13448   -565113.61144         0.00041  23580935.81544  23580935.81548
  -1034862.19248   -806384.83146         0.00041  22175936.26046  22175934.79748
   -382168.13749   -297792.24946         0.00041  21023885.66846  21023884.88449
     22525.30649     17553.07046         0.00041  20870315.01446  20870311.82849
   -798145.57148   -621930.70846         0.00041  22041717.62946  22041713.49748
      -169.54149      -131.63747         0.00041  20256934.09347  20256931.82049
   -724170.65948   -564288.50144         0.00041  23815292.81044  23815289.61848
 03 06 30 15 18 30.0000000  0  8 23 15 18 21 17 26 06 16
  -1105034.43348   -861065.01444         0.00041  24376800.12044  24376793.29148
   -797130.38248   -621140.55744         0.00041  23567253.38944  23567253.38948
  -1118885.23848   -871857.30646         0.00041  22159947.30846  22159945.31848
   -410077.10949   -319539.50346         0.00041  21018574.73546  21018573.36949
     25666.19449     20000.48547         0.00041  20870912.85947  20870909.70749
   -856071.14548   -667067.50746         0.00041  22030694.17146  22030690.01948
      2938.93249      2290.56147         0.00041  20257525.70947  20257523.60049
   -776342.92748   -604942.23044         0.00041  23805363.44844  23805362.01748
 03 06 30 15 19 00.0000000  0  8 23 15 18 21 17 26 06 16
  -1204541.18648   -938602.70044         0.00041  24357864.48744  24357858.46648
   -869131.08648   -677245.00244         0.00041  23553551.10444  23553551.10448
  -1202770.93248   -937222.75346         0.00041  22143985.08146  22143982.66148
   -437991.27049   -341290.80046         0.00041  21013262.90346  21013261.81549
     28789.36049     22434.13146         0.00041  20871507.14346  20871503.83149
   -913703.04348   -711975.46646         0.00041  22019727.06846  22019723.58548
      6321.55349      4926.36547         0.00041  20258169.28447  20258167.15649
   -828219.77848   -645365.75944         0.00041  23795493.15044  23795490.55848
 03 06 30 15 19 30.0000000  0  8 23 15 18 21 17 26 06 16
  -1303882.43848  -1016011.39944         0.00041  24338961.72144  24338954.83748
   -941055.25548   -733289.80944         0.00041  23539865.49944  23539865.49948
  -1286341.08848  -1002342.34346         0.00041  22128082.59246  22128080.20448
   -465734.21949   -362908.68546         0.00041  21007983.87846  21007982.22449
     32070.81049     24991.10146         0.00041  20872131.34846  20872128.18849
   -970862.33048   -756515.13846         0.00041  22008849.93346  22008846.72948
     10155.51749      7913.85947         0.00041  20258898.99247  20258896.39649
   -879623.78148   -685420.82244         0.00041  23785710.94244  23785709.62148
 03 06 30 15 20 00.0000000  0  8 23 15 18 21 17 26 06 16
  -1403013.64748  -1093256.44944         0.00041  24320095.44044  24320090.24648
  -1012860.40048   -789241.87044         0.00041  23526202.27644  23526202.27648
  -1369552.07148  -1067182.04446         0.00041  22112247.39546  22112245.50248
   -493263.88349   -384360.36646         0.00041  21002745.25246  21002743.69349
     35552.73649     27704.29046         0.00041  20872793.98146  20872790.84449
  -1027503.43348   -800651.03746         0.00041  21998071.40546  21998068.03548
     14484.31449     11286.93747         0.00041  20259722.49747  20259720.29349
   -930510.73348   -725072.97844         0.00041  23776029.66644  23776025.74948
 03 06 30 15 20 30.0000000  0  8 23 15 18 21 17 26 06 16
  -1501509.96248  -1170006.75044         0.00041  24301349.39544  24301346.19148
  -1084123.28548   -844771.39144         0.00041  23512640.39644  23512640.39648
  -1451979.11348  -1131410.87246         0.00041  22096561.23546  22096559.81748
   -520156.94549   -405315.99946         0.00041  20997627.63546  20997626.77149
     39658.50549     30903.58846         0.00041  20873575.49546  20873572.40349
  -1083200.14148   -844051.05846         0.00041  21987473.14146  21987469.73748
     19731.99249     15376.03347         0.00041  20260721.65047  20260719.43349
   -980456.02348   -763991.37444         0.00041  23766524.77644  23766520.87048
 03 06 30 15 21 00.0000000  0  8 23 15 18 21 17 26 06 16
  -1600197.13448  -1246905.78544         0.00041  24282570.96044  24282564.96348
  -1155671.70548   -900523.40644         0.00041  23499023.35944  23499023.35948
  -1534448.31448  -1195672.56846         0.00041  22080868.31946  22080866.73448
   -547241.10949   -426420.53246         0.00041  20992473.89446  20992473.09049
     43559.77849     33943.53246         0.00041  20874317.91746  20874314.86549
  -1138777.12548   -887357.77346         0.00041  21976897.48146  21976893.61248
     25072.04749     19537.10947         0.00041  20261737.52047  20261735.21249
  -1030285.80248   -802819.74944         0.00041  23757044.19544  23757038.29448
 03 06 30 15 21 30.0000000  0  8 23 15 18 21 17 26 06 16
  -1699097.61448  -1323970.99044         0.00041  24263752.10744  24263745.36148
  -1227530.02548   -956515.89644         0.00041  23485349.40644  23485349.40648
  -1616982.28148  -1259984.72546         0.00041  22065162.55246  22065160.33148
   -574540.47549   -447692.76546         0.00041  20987278.46946  20987277.80649
     47232.79649     36805.60646         0.00041  20875016.76846  20875013.75749
  -1194255.74548   -930587.85346         0.00041  21966338.98946  21966336.01948
     30481.01149     23751.87747         0.00041  20262766.91247  20262764.78049
  -1080022.96448   -841575.94744         0.00041  23747578.87344  23747573.85248
 03 06 30 15 22 00.0000000  0  8 23 15 18 21 17 26 06 16
  -1798161.94548  -1401163.91644         0.00041  24244902.69244  24244896.23048
  -1299650.43548  -1012713.61344         0.00041  23471628.40944  23471627.17348
  -1699532.02848  -1324309.17346         0.00041  22049453.80346  22049451.48848
   -602007.61549   -469095.72646         0.00041  20982051.57746  20982050.67049
     50724.43349     39526.35546         0.00041  20875681.15646  20875678.09549
  -1249585.51948   -973701.93346         0.00041  21955810.41046  21955807.28448
     36007.26149     28058.03847         0.00041  20263818.84147  20263815.92349
  -1129618.37548   -880221.71344         0.00041  23738138.03044  23738135.90548
 03 06 30 15 22 30.0000000  0  8 23 15 18 21 17 26 06 16
  -1896690.78848  -1477939.57644         0.00041  24226152.35444  24226147.08448
  -1371335.52648  -1068572.06744         0.00041  23457987.08344  23457986.65148
  -1781398.34948  -1388101.07346         0.00041  22033875.01046  22033873.11748
   -628945.21949   -490086.06446         0.00041  20976925.78846  20976924.52249
     54732.72349     42649.69046         0.00041  20876444.02146  20876440.92449
  -1304066.06448  -1016154.28746         0.00041  21945443.57546  21945440.33048
     42349.42349     32999.97347         0.00041  20265025.54947  20265022.92549
  -1178373.16348   -918212.40644         0.00041  23728860.73644  23728857.47548
 03 06 30 15 23 00.0000000  0  8 23 15 18 21 17 26 06 16
  -1994593.02248  -1554227.00044         0.00041  24207520.74744  24207516.17048
  -1442495.95848  -1124021.70044         0.00041  23444447.58144  23444446.17648
  -1862490.74648  -1451289.93346         0.00041  22018444.51346  22018442.01648
   -655263.88049   -510594.11046         0.00041  20971917.53646  20971916.94049
     59345.90049     46244.37046         0.00041  20877321.84346  20877318.94849
  -1357605.01448  -1057872.93146         0.00041  21935255.58846  21935252.41548
     49597.54349     38647.85847         0.00041  20266404.48847  20266402.54249
  -1226196.37148   -955477.21244         0.00041  23719762.59444  23719756.86748
 03 06 30 15 23 30.0000000  0  8 23 15 18 21 17 26 06 16
  -2092091.84648  -1630200.03644         0.00041  24188966.15644  24188962.88948
  -1513356.70348  -1179237.83644         0.00041  23430964.41844  23430959.47548
  -1943032.25449  -1514049.52146         0.00041  22003117.89046  22003115.91149
   -681188.94549   -530795.44946         0.00041  20966984.33446  20966983.68849
     64339.46349     50135.45646         0.00041  20878272.21346  20878269.05449
  -1410424.66348  -1099031.08346         0.00041  21925204.32346  21925201.13148
     57527.57349     44827.08947         0.00041  20267913.44347  20267911.61449
  -1273311.85948   -992190.54244         0.00041  23710794.69044  23710790.20548
 03 06 30 15 24 00.0000000  0  8 23 15 18 21 17 26 06 16
  -2189364.15848  -1705996.55944         0.00041  24170457.73144  24170453.29048
  -1584096.26248  -1234360.72444         0.00041  23417497.72544  23417497.72548
  -2023200.49849  -1576518.26546         0.00041  21987861.98846  21987860.49249
   -706899.11649   -550829.34646         0.00041  20962091.90046  20962091.13949
     69534.48549     54183.52646         0.00041  20879260.98846  20879257.94749
  -1462700.58748  -1139765.54346         0.00041  21915256.07846  21915253.12248
     65961.80349     51399.20747         0.00041  20269518.53647  20269516.45349
  -1319896.84148  -1028490.50444         0.00041  23701929.91944  23701925.68248
 03 06 30 15 24 30.0000000  0  8 23 15 18 21 17 26 06 16
  -2286490.26048  -1781679.15344         0.00041  24151973.00444  24151969.36748
  -1654796.85948  -1289450.93444         0.00041  23404044.89144  23404043.80948
  -2103075.81249  -1638758.74646         0.00041  21972661.34146  21972660.76549
   -732475.66649   -570759.12246         0.00041  20957224.81846  20957223.51049
     74848.10649     58324.00846         0.00041  20880272.12246  20880269.03749
  -1514512.29048  -1180138.24946         0.00041  21905396.43946  21905393.55448
     74818.83349     58300.77447         0.00041  20271204.36047  20271202.23749
  -1366031.93248  -1064439.87645         0.00041  23693150.93745  23693146.93348
 03 06 30 15 25 00.0000000  0  8 23 15 18 21 17 26 06 16
  -2383557.56748  -1857315.97244         0.00041  24133502.82644  24133497.59748
  -1725547.87048  -1344581.57644         0.00041  23390584.40544  23390581.24048
  -2182746.09349  -1700839.45646         0.00041  21957501.47946  21957499.94049
   -758008.27149   -590654.65346         0.00041  20952366.08046  20952364.55249
     80191.77549     62487.90746         0.00041  20881288.96046  20881286.02549
  -1565946.08448  -1220216.48146         0.00041  21895608.74646  21895605.75548
     84010.16249     65462.84047         0.00041  20272953.12847  20272951.26749
  -1411805.16648  -1100107.30245         0.00041  23684440.27845  23684437.20948
 03 06 30 15 25 30.0000000  0  8 23 15 18 21 17 26 06 16
  -2480608.58948  -1932940.09144         0.00041  24115039.49744  24115030.81048
  -1796393.55348  -1399785.96444         0.00041  23377103.43144  23377100.08648
  -2262253.91648  -1762793.57846         0.00041  21942371.44446  21942369.75148
   -783541.49249   -610550.67046         0.00041  20947506.86946  20947506.13749
     85520.89449     66640.47146         0.00041  20882303.16746  20882300.09849
  -1617043.27048  -1260032.43846         0.00041  21885885.67646  21885882.49248
     93492.48949     72851.66347         0.00041  20274757.62247  20274755.73649
  -1457259.32048  -1135526.10645         0.00041  23675790.16445  23675786.45548
 03 06 30 15 26 00.0000000  0  8 23 15 18 21 17 26 06 16
  -2577408.20648  -2008368.30944         0.00041  24096614.42644  24096608.76748
  -1867100.46548  -1454882.22544         0.00041  23363649.55244  23363644.34548
  -2341364.53948  -1824438.20246         0.00041  21927316.93246  21927315.30648
   -808841.68249   -630265.09546         0.00041  20942692.25746  20942691.71749
     91069.01149     70963.67746         0.00041  20883359.05946  20883356.13749
  -1667567.90148  -1299402.25246         0.00041  21876271.44446  21876268.43848
    103499.93049     80649.65647         0.00041  20276662.02947  20276660.18249
  -1502159.76948  -1170513.44945         0.00041  23667246.10245  23667242.89248
 03 06 30 15 26 30.0000000  0  8 23 15 18 21 17 26 06 16
  -2673598.23148  -2083321.47844         0.00041  24078309.71944  24078303.75048
  -1937312.01248  -1509592.50744         0.00041  23350287.46944  23350282.87648
  -2419720.09948  -1885494.44646         0.00041  21912406.35446  21912404.57148
   -833552.75149   -649520.46346         0.00041  20937989.86746  20937989.70449
     97191.82649     75734.69746         0.00041  20884524.19946  20884521.03649
  -1717160.61548  -1338045.89546         0.00041  21866833.42546  21866831.16848
    114389.77849     89135.23447         0.00041  20278734.35147  20278732.12149
  -1546148.75148  -1204790.57745         0.00041  23658874.67445  23658873.15048
 03 06 30 15 27 00.0000000  0  8 23 15 18 21 17 26 06 16
  -2769853.00048  -2158325.13044         0.00041  24059993.77444  24059987.10748
  -2007704.54248  -1564443.84944         0.00041  23336893.26744  23336888.02948
  -2497995.35748  -1946488.12546         0.00041  21897510.82446  21897509.39948
   -858349.90649   -668842.91746         0.00041  20933271.62946  20933270.96549
    103213.50849     80426.90946         0.00041  20885669.97146  20885666.81249
  -1766495.13548  -1376488.34346         0.00041  21857445.58946  21857442.76348
    125486.36649     97781.91247         0.00041  20280845.98647  20280843.96149
  -1589901.36048  -1238883.50745         0.00041  23650549.86945  23650547.77148
 03 06 30 15 27 30.0000000  0  8 23 15 18 21 17 26 06 16
  -2866315.67148  -2233490.79744         0.00041  24041640.02144  24041631.08548
  -2078422.74948  -1619548.92944         0.00041  23323437.05044  23323432.48848
  -2576333.80548  -2007531.05546         0.00041  21882603.98846  21882601.81448
   -883378.30249   -688345.56846         0.00041  20928509.27546  20928507.59749
    108988.41849     84926.83146         0.00041  20886768.95546  20886765.94249
  -1815713.54348  -1414840.30746         0.00041  21848079.60546  21848077.01448
    136645.62949    106477.42947         0.00041  20282969.40047  20282967.31549
  -1633561.18848  -1272904.14245         0.00041  23642240.97945  23642240.01048
 03 06 30 15 28 00.0000000  0  8 23 15 18 21 17 26 06 16
  -2962572.39048  -2308495.95744         0.00041  24023319.37744  24023315.08948
  -2149054.63248  -1674586.71945         0.00041  23309996.34445  23309991.58548
  -2654322.07448  -2068301.11346         0.00041  21867763.38746  21867761.48448
   -908226.67149   -707707.93646         0.00041  20923780.79446  20923779.24649
    114928.84249     89555.72646         0.00041  20887899.40846  20887896.28549
  -1864400.93348  -1452778.49446         0.00041  21838815.46446  21838812.39048
    148280.51149    115543.55847         0.00041  20285183.63047  20285181.63549
  -1676714.80448  -1306530.32145         0.00041  23634029.56545  23634028.38748
 03 06 30 15 28 30.0000000  0  8 23 15 18 21 17 26 06 16
  -3058517.93248  -2383258.65544         0.00041  24005060.20344  24005057.51248
  -2219496.62048  -1729476.54444         0.00041  23296589.35244  23296584.87148
  -2731855.07648  -2128716.41046         0.00041  21853009.87246  21853007.77748
   -932790.66849   -726848.70746         0.00041  20919106.27546  20919105.11549
    121138.64649     94394.52846         0.00041  20889081.04546  20889078.16849
  -1912451.14748  -1490220.20446         0.00041  21829671.21246  21829668.36748
    160495.19749    125061.48647         0.00041  20287508.02047  20287506.08549
  -1719257.37448  -1339680.36145         0.00041  23625934.70945  23625930.45048
 03 06 30 15 29 00.0000000  0  8 23 15 18 21 17 26 06 16
  -3154214.38248  -2457827.25444         0.00041  23986850.02744  23986846.07048
  -2289812.53948  -1784268.13744         0.00041  23283208.29444  23283204.70548
  -2808995.51248  -2188825.81046         0.00041  21838330.73146  21838328.10948
   -957134.76849   -745818.13346         0.00041  20914473.72046  20914472.63049
    127553.40549     99393.03546         0.00041  20890301.42946  20890298.51749
  -1959925.43448  -1527213.13446         0.00041  21820636.85046  21820633.68448
    173226.51549    134981.98347         0.00041  20289931.01247  20289928.84849
  -1761251.92248  -1372403.38244         0.00041  23617942.14944  23617938.97448
 03 06 30 15 29 30.0000000  0  8 23 15 18 21 17 26 06 16
  -3249620.89948  -2532169.93544         0.00041  23968694.48844  23968689.97248
  -2359963.08648  -1838930.85144         0.00041  23269858.84744  23269855.71648
  -2885702.61249  -2248597.55446         0.00041  21823734.02946  21823731.39849
   -981218.59549   -764584.74946         0.00041  20909890.34846  20909889.83449
    134212.58049    104581.99246         0.00041  20891568.72146  20891565.64549
  -2006781.90348  -1563724.63546         0.00041  21811720.97646  21811717.94448
    186514.36549    145336.13647         0.00041  20292459.45347  20292457.46749
  -1802657.88148  -1404667.75044         0.00041  23610062.83444  23610060.74648
 03 06 30 15 30 00.0000000  0  8 23 15 18 21 17 26 06 16
  -3344771.02048  -2606312.81744         0.00041  23950588.18244  23950584.77548
  -2429983.72548  -1893492.34045         0.00041  23256535.97145  23256531.00948
  -2962010.49449  -2308058.21846         0.00041  21809212.95046  21809210.60549
  -1005078.24049   -783176.67146         0.00041  20905350.12246  20905349.16649
    141080.15249    109933.33746         0.00041  20892875.84546  20892872.64849
  -2053053.20948  -1599780.15846         0.00041  21802916.05746  21802912.96948
    200324.16649    156097.01147         0.00041  20295087.00647  20295085.59749
  -1843509.36648  -1436500.03945         0.00041  23602291.00245  23602287.58548
 03 06 30 15 30 30.0000000  0  8 23 15 18 21 17 26 06 16
  -3439775.66148  -2680342.35244         0.00041  23932509.83244  23932505.68648
  -2499986.69948  -1948040.09245         0.00041  23243213.50245  23243210.29248
  -3038030.21249  -2367294.33446         0.00041  21794746.67146  21794744.69049
  -1028825.69749   -801681.18346         0.00041  20900831.23646  20900830.34849
    148043.81749    115359.56246         0.00041  20894200.94046  20894197.93249
  -2098849.22648  -1635465.33046         0.00041  21794201.07746  21794197.70548
    214544.00649    167177.40047         0.00041  20297793.20447  20297791.44549
  -1883917.84148  -1467987.13245         0.00041  23594600.45645  23594598.28148
 03 06 30 15 31 00.0000000  0  8 23 15 18 21 17 26 06 16
  -3534575.99948  -2754212.68044         0.00041  23914470.64144  23914465.85748
  -2569915.18448  -2002529.79245         0.00041  23229907.41145  23229903.97848
  -3113703.16749  -2426260.25046         0.00041  21780346.40546  21780344.24649
  -1052404.56349   -820054.32046         0.00041  20896344.37246  20896343.51649
    155161.45549    120905.76846         0.00041  20895555.39646  20895552.59849
  -2144110.40848  -1670733.76046         0.00041  21785587.97246  21785585.06348
    229231.79949    178622.43247         0.00041  20300588.68847  20300586.30449
  -1923824.94748  -1499083.56145         0.00041  23587006.87545  23587003.63248
 03 06 30 15 31 30.0000000  0  8 23 15 18 21 17 26 06 16
  -3629171.00448  -2827923.00244         0.00041  23896467.76944  23896466.23948
  -2639769.83248  -2056961.95645         0.00041  23216614.82845  23216611.31948
  -3189028.99249  -2484955.66846         0.00041  21766012.40746  21766010.58549
  -1075814.66149   -838295.95146         0.00041  20891889.12446  20891888.61349
    162430.69949    126570.10646         0.00041  20896938.61146  20896935.25149
  -2188834.72648  -1705583.86746         0.00041  21777077.25746  21777074.64948
    244387.11049    190431.76347         0.00041  20303472.51147  20303470.10149
  -1963230.40248  -1529789.09945         0.00041  23579508.03245  23579505.26248
 03 06 30 15 32 00.0000000  0  8 23 15 18 21 17 26 06 16
  -3723601.24248  -2901504.92644         0.00041  23878500.43144  23878496.96948
  -2709592.83348  -2111369.46045         0.00041  23203326.03645  23203323.53848
  -3264048.30549  -2543412.24646         0.00041  21751736.42546  21751734.45649
  -1099098.56149   -856439.23846         0.00041  20887458.63946  20887457.86649
    169810.26549    132320.41446         0.00041  20898343.03346  20898339.83549
  -2233061.93848  -1740046.59946         0.00041  21768661.31446  21768658.60648
    259968.46849    202573.07147         0.00041  20306437.26147  20306434.92449
  -2002175.42148  -1560135.85145         0.00041  23572097.53445  23572094.39648
 03 06 30 15 32 30.0000000  0  8 23 15 18 21 17 26 06 16
  -3817879.84448  -2974968.70744         0.00041  23860558.55444  23860554.83448
  -2779398.95848  -2165763.83045         0.00041  23190044.17645  23190040.26748
  -3338775.07949  -2601640.87446         0.00041  21737515.96246  21737514.16049
  -1122270.94049   -874495.62846         0.00041  20883049.28246  20883048.34049
    177286.16749    138145.78146         0.00041  20899765.66446  20899762.75149
  -2276804.53948  -1774131.71846         0.00041  21760337.11746  21760334.02848
    275961.53549    215035.18547         0.00041  20309480.86547  20309478.44549
  -2040673.73648  -1590134.52345         0.00041  23564770.91045  23564767.73048
 03 06 30 15 33 00.0000000  0  8 23 15 18 21 17 26 06 16
  -3911827.21148  -3048174.40544         0.00041  23842686.17244  23842676.74048
  -2849010.36048  -2220006.44945         0.00041  23176797.14745  23176793.25848
  -3413030.01049  -2659501.83246         0.00041  21723386.19546  21723385.20949
  -1145154.10749   -892326.66546         0.00041  20878694.58446  20878693.56749
    185035.17149    144183.96146         0.00041  20901240.12246  20901237.23249
  -2319882.03148  -1807698.56846         0.00041  21752139.59946  21752136.44948
    292544.65549    227957.08047         0.00041  20312636.58347  20312634.01249
  -2078546.68848  -1619645.90945         0.00041  23557563.64245  23557560.80148
 03 06 30 15 33 30.0000000  0  8 23 15 18 21 17 26 06 16
  -4005511.39648  -3121174.97444         0.00041  23824856.40544  23824850.44148
  -2918496.14048  -2274151.17545         0.00041  23163572.88645  23163570.36248
  -3486881.28449  -2717048.26346         0.00041  21709332.58246  21709331.03249
  -1167817.00949   -909986.05846         0.00041  20874381.56546  20874380.76949
    192988.16249    150381.09746         0.00041  20902753.69246  20902750.53249
  -2362361.43148  -1840799.39246         0.00041  21744055.58146  21744053.31248
    309648.98049    241285.11947         0.00041  20315891.48247  20315889.10049
  -2115862.47348  -1648723.14246         0.00041  23550463.47746  23550460.39548
 03 06 30 15 34 00.0000000  0  8 23 15 18 21 17 26 06 16
  -4098959.07948  -3193991.27744         0.00041  23807072.10544  23807068.16248
  -2987884.81148  -2328220.22645         0.00041  23150368.65845  23150365.45048
  -3560356.05949  -2774301.31546         0.00041  21695351.17446  21695348.88049
  -1190288.26949   -927496.12946         0.00041  20870105.54546  20870104.75549
    201115.55449    156714.11646         0.00041  20904299.94346  20904296.71749
  -2404268.83948  -1873454.48346         0.00041  21736081.28746  21736078.44848
    327246.50549    254997.46947         0.00041  20319240.11747  20319237.83649
  -2152648.70648  -1677387.73045         0.00041  23543463.24045  23543460.13748
 03 06 30 15 34 30.0000000  0  8 23 15 18 21 17 26 06 16
  -4192177.32348  -3266628.80744         0.00041  23789330.18444  23789328.90348
  -3057185.33548  -2382220.57345         0.00041  23137181.69445  23137178.04048
  -3633461.53049  -2831266.59046         0.00041  21681439.07646  21681437.67149
  -1212576.50649   -944863.58446         0.00041  20865864.69246  20865863.53749
    209410.42949    163177.64046         0.00041  20905878.71146  20905875.55949
  -2445610.39848  -1905668.66246         0.00041  21728214.51646  21728211.25148
    345329.09849    269087.78947         0.00041  20322680.98147  20322678.67049
  -2188912.97148  -1705645.58545         0.00041  23536561.20045  23536558.94248
 03 06 30 15 35 00.0000000  0  8 23 15 18 21 17 26 06 16
  -4285146.50648  -3339072.28244         0.00041  23771642.86844  23771636.90248
  -3126379.51148  -2436138.05945         0.00041  23124016.16345  23124011.96448
  -3706178.67749  -2887929.28346         0.00041  21667601.50646  21667599.94649
  -1234663.59349   -962074.30346         0.00041  20861661.32046  20861660.61449
    217890.25049    169785.28246         0.00041  20907492.67846  20907489.59349
  -2486365.95648  -1937426.20046         0.00041  21720458.88546  21720455.71948
    363915.21249    283570.46547         0.00041  20326217.82147  20326215.75849
  -2224636.57948  -1733482.13645         0.00041  23529763.60245  23529760.71648
 03 06 30 15 35 30.0000000  0  8 23 15 18 21 17 26 06 16
  -4377852.49948  -3411310.63244         0.00041  23754000.64844  23753996.17748
  -3195454.71148  -2489962.85945         0.00041  23110870.16845  23110866.83748
  -3778493.75249  -2944278.67646         0.00041  21653840.52846  21653838.76249
  -1256536.78549   -979118.34346         0.00041  20857499.19946  20857498.44749
    226567.00549    176546.37646         0.00041  20909143.36146  20909140.16849
  -2526520.24348  -1968715.21046         0.00041  21712817.48946  21712814.95348
    383018.00949    298455.75747         0.00041  20329853.22647  20329850.84049
  -2259805.85448  -1760886.74945         0.00041  23523070.84045  23523067.60548
 03 06 30 15 36 00.0000000  0  8 23 15 18 21 17 26 06 16
  -4470321.32148  -3483364.17344         0.00041  23736404.04044  23736400.84548
  -3264438.59948  -2543716.52445         0.00041  23097743.88745  23097739.14648
  -3850433.22549  -3000335.38646         0.00041  21640150.64946  21640149.77049
  -1278223.88049   -996017.37746         0.00041  20853371.94646  20853371.00549
    235413.13049    183439.45446         0.00041  20910827.10446  20910824.00749
  -2566098.88348  -1999555.66746         0.00041  21705286.13046  21705282.84848
    402610.11949    313722.33147         0.00041  20333581.23147  20333579.07649
  -2294447.59248  -1787880.28345         0.00041  23516479.41145  23516474.83448
 03 06 30 15 36 30.0000000  0  8 23 15 18 21 17 26 06 16
  -4562568.89248  -3555245.31744         0.00041  23718849.20344  23718845.47048
  -3333348.44148  -2597412.48045         0.00041  23084630.19445  23084625.96248
  -3922013.46349  -3056112.17546         0.00041  21626529.73446  21626528.09149
  -1299741.95149  -1012784.70546         0.00041  20849277.52446  20849276.41249
    244411.36949    190451.06546         0.00041  20912539.35546  20912536.19749
  -2605116.93448  -2029959.30846         0.00041  21697861.28846  21697857.57748
    422674.59049    329356.96747         0.00041  20337399.20947  20337397.15549
  -2328578.43648  -1814475.73744         0.00041  23509984.01844  23509980.27548
 03 06 30 15 37 00.0000000  0  8 23 15 18 21 17 26 06 16
  -4654583.22848  -3626944.74145         0.00041  23701341.26945  23701335.59748
  -3402173.79248  -2651042.58745         0.00041  23071532.93545  23071528.85348
  -3993222.94749  -3111600.06346         0.00041  21612978.47046  21612976.73449
  -1321080.56349  -1029412.19146         0.00041  20845216.45546  20845215.93849
    253571.37549    197588.72546         0.00041  20914282.33746  20914279.15349
  -2643561.58848  -2059916.15746         0.00041  21690545.67746  21690542.38448
    443222.34749    345368.19547         0.00041  20341309.60447  20341307.22649
  -2362186.97948  -1840664.22245         0.00041  23503588.48145  23503585.06248
 03 06 30 15 37 30.0000000  0  8 23 15 18 21 17 26 06 16
  -4746360.19948  -3698459.18644         0.00041  23683875.50844  23683871.29648
  -3470912.39048  -2704605.11645         0.00041  23058453.15645  23058448.19448
  -4064058.19349  -3166796.34946         0.00041  21599499.30346  21599497.48749
  -1342237.22549  -1045897.90546         0.00041  20841190.84846  20841190.09049
    262895.81749    204854.51946         0.00041  20916056.53746  20916053.33749
  -2681428.30848  -2089422.67346         0.00041  21683339.56746  21683337.00048
    464256.14849    361758.16547         0.00041  20345312.12147  20345309.89249
  -2395270.19748  -1866443.34144         0.00041  23497291.58744  23497289.37548
 03 06 30 15 38 00.0000000  0  8 23 15 18 21 17 26 06 16
  -4837903.93548  -3769791.90945         0.00041  23666454.29945  23666450.72448
  -3539569.80848  -2758104.38145         0.00041  23045388.15345  23045383.20348
  -4134523.38749  -3221704.26946         0.00041  21586090.59046  21586088.75249
  -1363217.39149  -1062246.08946         0.00041  20837198.17846  20837197.20449
    272379.66149    212244.51446         0.00041  20917861.29246  20917858.21749
  -2718720.37548  -2118481.41546         0.00041  21676242.69746  21676239.86948
    485770.70549    378522.74347         0.00041  20349406.21147  20349403.82749
  -2427832.91748  -1891816.89244         0.00041  23491095.27444  23491092.91648
 03 06 30 15 38 30.0000000  0  8 23 15 18 21 17 26 06 16
  -4929236.45948  -3840960.03945         0.00041  23649073.41545  23649070.98648
  -3608169.36648  -2811558.55645         0.00041  23032334.01645  23032329.14448
  -4204640.74549  -3276341.15546         0.00041  21572746.77746  21572745.89249
  -1384044.57349  -1078475.07046         0.00041  20833235.16746  20833234.11849
    281998.72449    219739.87646         0.00041  20919691.79246  20919688.63849
  -2755459.17748  -2147109.03146         0.00041  21669251.67446  21669248.49648
    507742.93749    395643.94447         0.00041  20353587.31147  20353585.18149
  -2459897.91248  -1916802.59244         0.00041  23484994.29644  23484991.36348
 03 06 30 15 39 00.0000000  0  8 23 15 18 21 17 26 06 16
  -5020361.52648  -3911966.51345         0.00041  23631734.34845  23631730.24348
  -3676716.56348  -2864971.93245         0.00041  23019291.25545  23019284.45848
  -4274414.74649  -3330710.48946         0.00041  21559469.59646  21559468.42949
  -1404724.02749  -1094588.92846         0.00041  20829300.03446  20829299.03949
    291749.27649    227337.69946         0.00041  20921547.12846  20921543.88049
  -2791647.68748  -2175307.82446         0.00041  21662364.80346  21662362.58448
    530167.91449    413117.94747         0.00041  20357854.57547  20357852.32849
  -2491469.58648  -1941403.92145         0.00041  23478985.25945  23478983.75848
 03 06 30 15 39 30.0000000  0  8 23 15 18 21 17 26 06 16
  -5111261.02848  -3982797.23345         0.00041  23614437.40145  23614432.77548
  -3745194.49848  -2918331.29544         0.00041  23006258.42944  23006253.01148
  -4343827.57549  -3384798.38946         0.00041  21546260.61646  21546259.14449
  -1425238.72349  -1110574.41246         0.00041  20825396.33646  20825395.44149
    301646.20549    235049.58846         0.00041  20923430.52446  20923427.37749
  -2827267.12148  -2203063.19646         0.00041  21655586.43846  21655584.23548
    553062.55349    430957.91747         0.00041  20362211.55847  20362209.09649
  -2522530.48048  -1965607.20445         0.00041  23473075.69945  23473073.07848
 03 06 30 15 40 00.0000000  0  8 23 15 18 21 17 26 06 16
  -5201928.71548  -4053447.32945         0.00041  23597183.62945  23597179.41048
  -3813598.64748  -2971633.17244         0.00041  22993241.37544  22993236.58148
  -4412873.48949  -3438600.39246         0.00041  21533121.70846  21533120.10549
  -1445583.90249  -1126427.79746         0.00041  20821524.59146  20821523.62049
    311695.19649    242879.96646         0.00041  20925342.79946  20925339.66349
  -2862310.85648  -2230370.00046         0.00041  21648918.47846  21648915.31648
    576431.73449    449167.65547         0.00041  20366658.44047  20366656.03249
  -2553075.57148  -1989408.59345         0.00041  23467262.85945  23467260.39048
 03 06 30 15 40 30.0000000  0  8 23 15 18 21 17 26 06 16
  -5292322.92448  -4123884.31945         0.00041  23579981.22945  23579977.39248
  -3881888.62248  -3024845.74144         0.00041  22980242.70044  22980242.18548
  -4481511.46549  -3492084.51346         0.00041  21520060.39446  21520058.92649
  -1465719.37549  -1142117.77546         0.00041  20817693.06346  20817691.63149
    321935.54749    250859.44446         0.00041  20927291.45346  20927288.50549
  -2896736.65748  -2257195.28746         0.00041  21642367.06546  21642364.67648
    600315.65549    467778.48347         0.00041  20371203.04147  20371201.03849
  -2583063.85448  -2012776.08545         0.00041  23461556.27945  23461553.96348
 03 06 30 15 41 00.0000000  0  8 23 15 18 21 17 26 06 16
  -5382459.82748  -4194120.78445         0.00041  23562829.57445  23562824.84248
  -3950082.15448  -3077983.06246         0.00041  22967266.42246  22967264.86148
  -4549758.17549  -3545263.74046         0.00041  21507073.68446  21507072.03149
  -1485661.91549  -1157657.41846         0.00041  20813898.24646  20813896.84949
    332349.30049    258974.04446         0.00041  20929273.19946  20929270.26249
  -2930560.12148  -2283551.20446         0.00041  21635931.11746  21635928.65848
    624697.07549    486776.97047         0.00041  20375842.92847  20375840.68549
  -2612512.30148  -2035722.92645         0.00041  23455952.89845  23455949.48448
 03 06 30 15 41 30.0000000  0  8 23 15 18 21 17 26 06 16
  -5472346.44548  -4264162.25945         0.00041  23545723.52945  23545719.52748
  -4018187.62248  -3131053.17144         0.00041  22954310.29344  22954305.14048
  -4617620.85949  -3598143.73646         0.00041  21494159.56346  21494157.78149
  -1505421.17749  -1173054.24446         0.00041  20810138.05746  20810136.71649
    342929.68049    267218.47746         0.00041  20931286.61146  20931283.40049
  -2963787.45248  -2309442.61446         0.00041  21629608.69546  21629605.76448
    649567.70349    506156.66647         0.00041  20380576.20547  20380573.54749
  -2641428.91848  -2058255.33545         0.00041  23450450.70745  23450446.29848
 03 06 30 15 42 00.0000000  0  8 23 15 18 21 17 26 06 16
  -5561990.66848  -4334014.84745         0.00041  23528664.45645  23528660.98648
  -4086214.26448  -3184060.90445         0.00041  22941364.35045  22941359.95748
  -4685107.84649  -3650730.99246         0.00041  21481317.61246  21481315.78249
  -1525006.15449  -1188315.26146         0.00041  20806411.10846  20806409.72949
    353667.06849    275585.25646         0.00041  20933330.01946  20933326.74349
  -2996426.10748  -2334875.33546         0.00041  21623397.10846  21623393.94348
    674918.35249    525910.40147         0.00041  20385399.88247  20385397.57049
  -2669822.42148  -2080380.13945         0.00041  23445047.22245  23445044.06948
 03 06 30 15 42 30.0000000  0  8 23 15 18 21 17 26 06 16
  -5651322.43948  -4403623.96445         0.00041  23511666.69245  23511662.19448
  -4154093.29848  -3236953.63245         0.00041  22928450.67445  22928442.88448
  -4752149.35949  -3702971.10846         0.00041  21468559.79546  21468558.02649
  -1544347.90149  -1203386.75146         0.00041  20802730.82146  20802729.61949
    364629.12549    284127.11246         0.00041  20935415.86646  20935412.71049
  -3028405.60348  -2359794.41146         0.00041  21617311.59546  21617308.74148
    700817.97949    546091.90647         0.00041  20390328.40947  20390326.24549
  -2697623.60848  -2102043.37645         0.00041  23439757.41245  23439754.27548
 03 06 30 15 43 00.0000000  0  8 23 15 18 21 17 26 06 16
  -5740377.09248  -4473017.13545         0.00041  23494720.48945  23494715.13748
  -4221861.65148  -3289760.12445         0.00041  22915551.14345  22915546.56548
  -4818781.41049  -3754892.16746         0.00041  21455880.07446  21455877.98549
  -1563482.72949  -1218297.00546         0.00041  20799089.46446  20799088.10449
    375780.21349    292816.26446         0.00041  20937537.81146  20937534.58649
  -3059760.60548  -2384226.84146         0.00041  21611345.20846  21611342.31148
    727229.83749    566672.55147         0.00041  20395354.39247  20395352.10049
  -2724868.73448  -2123273.33045         0.00041  23434573.70545  23434570.58048
 03 06 30 15 43 30.0000000  0  8 23 15 18 21 17 26 06 16
  -5829192.83648  -4542224.16645         0.00041  23477819.27745  23477813.00648
  -4289558.75748  -3342511.06945         0.00041  22902669.53545  22902664.49848
  -4885042.66949  -3806524.29346         0.00041  21443271.35346  21443269.08049
  -1582450.06049  -1233076.74646         0.00041  20795479.88146  20795478.97149
    387080.94049    301622.02846         0.00041  20939688.25246  20939684.84149
  -3090529.03748  -2408202.21546         0.00041  21605489.16846  21605486.82748
    754114.40949    587621.55847         0.00041  20400470.33447  20400468.27249
  -2751596.75048  -2144100.35345         0.00041  23429488.13645  23429483.58148
 03 06 30 15 44 00.0000000  0  8 23 15 18 21 17 26 06 16
  -5917746.35748  -4611226.85045         0.00041  23460969.39445  23460963.17848
  -4357162.78448  -3395189.49945         0.00041  22889804.53045  22889800.80248
  -4950910.13949  -3857849.58846         0.00041  21430737.07346  21430734.89949
  -1601228.45449  -1247709.25846         0.00041  20791906.67846  20791905.49349
    398551.57649    310560.18046         0.00041  20941871.48746  20941867.89849
  -3120686.73648  -2431701.72846         0.00041  21599750.55646  21599748.27648
    781493.91949    608956.22647         0.00041  20405680.70347  20405678.56749
  -2777785.39848  -2164507.08345         0.00041  23424504.55245  23424500.56948
 03 06 30 15 44 30.0000000  0  8 23 15 18 21 17 26 06 16
  -6006045.26648  -4680031.13945         0.00041  23444165.09045  23444160.82448
  -4424682.51048  -3447802.26345         0.00041  22876956.46845  22876952.09848
  -5016392.16849  -3908874.53646         0.00041  21418276.21246  21418274.51649
  -1619826.56749  -1262201.29546         0.00041  20788367.13546  20788366.13549
    410184.09249    319624.46446         0.00041  20944084.79446  20944081.63649
  -3150241.09048  -2454731.10046         0.00041  21594126.61746  21594124.74248
    809359.37549    630669.54547         0.00041  20410983.41847  20410981.27749
  -2803443.33748  -2184500.27845         0.00041  23419622.14045  23419618.06048
 03 06 30 15 45 00.0000000  0  8 23 15 18 21 17 26 06 16
  -6094070.04648  -4748621.81545         0.00041  23427413.81045  23427410.39048
  -4492099.92948  -3500335.30845         0.00041  22864126.20245  22864121.81348
  -5081469.52249  -3959584.15446         0.00041  21405891.64846  21405890.17349
  -1638225.82549  -1276538.37946         0.00041  20784865.99246  20784865.26249
    421996.01149    328828.54446         0.00041  20946332.46346  20946329.55249
  -3179172.16148  -2477274.77146         0.00041  21588620.89146  21588619.18748
    837728.97049    652775.70047         0.00041  20416381.75947  20416379.87349
  -2828551.99748  -2204065.50545         0.00041  23414843.23845  23414839.21048
 03 06 30 15 45 30.0000000  0  8 23 15 18 21 17 26 06 16
  -6181839.08148  -4817013.20445         0.00041  23410711.95045  23410707.86148
  -4559434.58648  -3552803.85945         0.00041  22851312.36545  22851308.44848
  -5146160.96549  -4009993.05946         0.00041  21393581.49246  21393579.89949
  -1656445.37149  -1290735.43446         0.00041  20781399.06846  20781398.12449
    433968.65849    338157.86346         0.00041  20948610.66746  20948607.80649
  -3207497.66748  -2499346.57746         0.00041  21583231.35646  21583228.55448
    866583.08749    675259.41947         0.00041  20421872.51247  20421870.50349
  -2853130.39148  -2223217.52545         0.00041  23410163.67845  23410161.25948
 03 06 30 15 46 00.0000000  0  8 23 15 18 21 17 26 06 16
  -6269371.36748  -4885220.12245         0.00041  23394056.62445  23394050.13348
  -4626706.85648  -3605223.79745         0.00041  22838512.50345  22838507.28248
  -5210485.73849  -4060116.23846         0.00041  21381341.12146  21381339.51449
  -1674506.01249  -1304808.66146         0.00041  20777962.23546  20777961.24949
    446081.65749    347596.54546         0.00041  20950915.80946  20950912.60449
  -3235236.40548  -2520961.17846         0.00041  21577953.23246  21577950.07448
    895901.24949    698104.72147         0.00041  20427451.69347  20427449.40849
  -2877198.62848  -2241972.00445         0.00041  23405584.89845  23405580.87748
 03 06 30 15 46 30.0000000  0  8 23 15 18 21 17 26 06 16
  -6356656.16148  -4953234.19745         0.00041  23377445.94945  23377440.49248
  -4693907.17548  -3657587.65045         0.00041  22825723.72745  22825720.31448
  -5274433.93349  -4109945.99346         0.00041  21369171.92046  21369170.03449
  -1692398.05149  -1318750.51546         0.00041  20774557.65546  20774556.97749
    458343.65749    357151.33046         0.00041  20953249.30946  20953246.01649
  -3262377.11648  -2542109.77746         0.00041  21572788.61846  21572785.46048
    925692.83449    721318.92547         0.00041  20433120.96747  20433118.32449
  -2900747.03248  -2260321.40644         0.00041  23401105.33544  23401100.64248
 03 06 30 15 47 00.0000000  0  8 23 15 18 21 17 26 06 16
  -6443700.92948  -5021061.27345         0.00041  23360880.43045  23360876.19148
  -4761044.54248  -3709902.45945         0.00041  22812946.38545  22812944.51848
  -5338013.36849  -4159488.39546         0.00041  21357072.98646  21357071.20749
  -1710130.56749  -1332568.06446         0.00041  20771183.28346  20771182.18549
    470745.83849    366815.36346         0.00041  20955609.28646  20955606.07949
  -3288927.13948  -2562798.09246         0.00041  21567735.28746  21567733.18148
    955949.15049    744895.25547         0.00041  20438878.37347  20438875.70449
  -2923783.82848  -2278272.16944         0.00041  23396720.67644  23396716.67148
 03 06 30 15 47 30.0000000  0  8 23 15 18 21 17 26 06 16
  -6530463.90048  -5088668.71245         0.00041  23344369.53345  23344366.84548
  -4828078.39648  -3762136.64145         0.00041  22800191.66145  22800188.01648
  -5401183.22349  -4208711.64246         0.00041  21345052.29646  21345050.34449
  -1727662.99449  -1346229.70146         0.00041  20767846.91046  20767845.76149
    483329.57449    376620.85646         0.00041  20958004.21746  20958000.82749
  -3314844.00448  -2582993.03546         0.00041  21562803.86946  21562800.44648
    986710.55349    768865.15847         0.00041  20444732.52747  20444729.67549
  -2946268.77848  -2295792.89645         0.00041  23392441.23345  23392437.81748
 03 06 30 15 48 00.0000000  0  8 23 15 18 21 17 26 06 16
  -6616966.01148  -5156072.89745         0.00041  23327910.50245  23327905.24348
  -4895030.80848  -3814307.32345         0.00041  22787451.41045  22787446.45948
  -5463964.19249  -4257631.86946         0.00041  21333106.14946  21333103.73249
  -1745016.80149  -1359752.15346         0.00041  20764544.75546  20764543.78049
    496073.66549    386551.29946         0.00041  20960429.08746  20960425.79949
  -3340148.47148  -2602710.78746         0.00041  21557989.13746  21557986.06648
   1017954.79349    793211.30747         0.00041  20450678.27147  20450675.48549
  -2968223.14648  -2312900.19545         0.00041  23388263.46545  23388260.69348
 03 06 30 15 48 30.0000000  0  8 23 15 18 21 17 26 06 16
  -6703239.05648  -5223298.58945         0.00041  23311491.93945  23311487.34148
  -4961934.76848  -3866440.23146         0.00041  22774721.13446  22774715.29748
  -5526388.79049  -4306274.40546         0.00041  21321227.00446  21321224.79349
  -1762224.88249  -1373161.05346         0.00041  20761270.17946  20761269.02949
    508944.86949    396580.79746         0.00041  20962878.19946  20962875.26849
  -3364871.95748  -2621975.82746         0.00041  21553284.19646  21553281.56448
   1049648.70649    817907.84647         0.00041  20456709.26547  20456706.77249
  -2989679.89748  -2329619.73145         0.00041  23384180.21645  23384177.49148
 03 06 30 15 49 00.0000000  0  8 23 15 18 21 17 26 06 16
  -6789292.93748  -5290353.48845         0.00041  23295116.85145  23295113.24648
  -5028801.47848  -3918544.15846         0.00041  22761995.62946  22761990.78148
  -5588467.53349  -4354647.43546         0.00041  21309413.57046  21309412.11149
  -1779298.50949  -1386465.18746         0.00041  20758021.00346  20758019.97449
    521928.89849    406698.21146         0.00041  20965349.38646  20965346.25149
  -3389024.01248  -2640795.60546         0.00041  21548688.23946  21548685.17748
   1081781.10249    842946.05547         0.00041  20462823.42347  20462821.11549
  -3010650.27448  -2345960.30845         0.00041  23380190.34445  23380187.46048
 03 06 30 15 49 30.0000000  0  8 23 15 18 26 21 17 06 16
  -6875031.77848  -5357162.92645         0.00041  23278800.19445  23278796.98648
  -5095536.28348  -3970545.31446         0.00041  22749297.19746  22749292.31448
  -5650105.18449  -4402676.75146         0.00041  21297684.59346  21297682.38749
  -3412508.47848  -2659095.19746         0.00041  21544219.06446  21544215.92148
  -1796143.48249  -1399591.14446         0.00041  20754815.48746  20754814.58949
    535122.56149    416978.97146         0.00041  20967860.22446  20967856.97249
   1114446.23849    868399.38047         0.00041  20469039.60647  20469036.82749
  -3031039.61748  -2361848.12545         0.00041  23376310.23245  23376307.83148
 03 06 30 15 50 00.0000000  0  8 23 15 18 26 21 17 06 16
  -6960451.15948  -5423723.42245         0.00041  23262546.87945  23262540.94548
  -5162135.96948  -4022441.18645         0.00041  22736623.56645  22736618.82648
  -5711297.96949  -4450359.43646         0.00041  21286039.90446  21286037.73149
  -3435320.86648  -2676871.07646         0.00041  21539878.05246  21539875.07948
  -1812755.84549  -1412535.84446         0.00041  20751654.23546  20751652.78549
    548527.95749    427424.71446         0.00041  20970410.97946  20970407.88749
   1147647.23149    894270.25847         0.00041  20475357.41947  20475355.38749
  -3050844.48648  -2377280.53045         0.00041  23372541.41145  23372539.00348
 03 06 30 15 50 30.0000000  0  8 23 15 18 26 21 17 06 16
  -7045585.38648  -5490061.72745         0.00041  23246345.86345  23246341.15248
  -5228636.08448  -4074259.44345         0.00041  22723968.47445  22723963.90148
  -5772080.30149  -4497722.28646         0.00041  21274473.61346  21274471.79749
  -3457495.14948  -2694149.72646         0.00041  21535657.96746  21535655.24648
  -1829170.63849  -1425326.59446         0.00041  20748530.73246  20748529.69549
    562110.98549    438008.87546         0.00041  20972995.45846  20972992.27549
   1181348.32149    920530.83247         0.00041  20481770.55347  20481768.45349
  -3070100.23848  -2392285.02345         0.00041  23368878.24145  23368874.67048
 03 06 30 15 51 00.0000000  0  8 23 15 18 26 21 17 06 16
  -7130442.44148  -5556184.08145         0.00041  23230198.97545  23230194.70348
  -5295045.61248  -4126007.10745         0.00041  22711330.62045  22711327.11448
  -5832460.70149  -4544771.93946         0.00041  21262983.29746  21262981.47449
  -3479039.04148  -2710937.17746         0.00041  21531559.42446  21531555.93548
  -1845397.23249  -1437970.69446         0.00041  20745442.94646  20745442.04749
    575864.82949    448726.13146         0.00041  20975612.79046  20975609.71449
   1215540.28949    947173.89446         0.00041  20488277.07746  20488274.68149
  -3088815.75848  -2406868.54845         0.00041  23365315.42245  23365313.24048
 03 06 30 15 51 30.0000000  0  8 23 15 18 26 21 17 06 16
  -7215020.27348  -5622088.81045         0.00041  23214103.30545  23214098.78748
  -5361363.68448  -4177683.49646         0.00041  22698711.57646  22698707.14148
  -5892437.85349  -4591507.38046         0.00041  21251569.72146  21251568.39149
  -3499950.32348  -2727231.68346         0.00041  21527580.31246  21527576.54148
  -1861434.86249  -1450467.55046         0.00041  20742390.98446  20742389.83549
    589787.38749    459574.86146         0.00041  20978262.20046  20978258.99249
   1250223.71449    974199.91247         0.00041  20494876.92747  20494874.91149
  -3106990.31048  -2421030.55844         0.00041  23361855.99044  23361853.66348
 03 06 30 15 52 00.0000000  0  8 23 15 18 26 21 17 06 16
  -7299320.28248  -5687777.08645         0.00041  23198062.91345  23198056.90148
  -5427592.93448  -4229290.68846         0.00041  22686107.27346  22686104.14648
  -5952013.75749  -4637930.15446         0.00041  21240233.42446  21240231.42649
  -3520230.07948  -2743034.08746         0.00041  21523720.87946  21523717.94348
  -1877285.92149  -1462819.02246         0.00041  20739374.58946  20739373.71649
    603877.48149    470554.13546         0.00041  20980943.68446  20980939.95249
   1285395.74149   1001606.66747         0.00041  20501570.25347  20501568.06749
  -3124626.46148  -2434773.04744         0.00041  23358500.81344  23358498.35448
 03 06 30 15 52 30.0000000  0  8 23 15 18 26 21 17 06 16
  -7383370.47148  -5753270.69845         0.00041  23182068.60445  23182064.11148
  -5493762.46248  -4280851.36346         0.00041  22673516.00746  22673511.90648
  -6011216.65349  -4684062.27846         0.00041  21228966.47546  21228965.51049
  -3539906.12048  -2758366.06446         0.00041  21519976.81246  21519973.75248
  -1892979.28849  -1475047.61746         0.00041  20736388.42446  20736387.34149
    618104.08049    481639.78046         0.00041  20983651.01846  20983647.81549
   1321026.94949   1029371.22247         0.00041  20508351.01947  20508348.07549
  -3141753.21748  -2448118.58144         0.00041  23355241.37844  23355239.22748
 03 06 30 15 53 00.0000000  0  8 23 15 18 21 17 26 06 16
  -7467169.08548  -5818568.27145         0.00041  23166119.74845  23166116.39148
  -5559871.66948  -4332365.02446         0.00041  22660935.97846  22660931.15748
  -6070045.35549  -4729902.82546         0.00041  21217772.58746  21217770.60449
  -1908513.93649  -1487152.53446         0.00041  20733432.33946  20733431.01049
    632467.78649    492832.26446         0.00041  20986384.35246  20986381.23149
  -3558976.48548  -2773226.08346         0.00041  21516347.74946  21516344.05748
   1357117.79049   1057493.93147         0.00041  20515218.57847  20515216.30449
  -3158369.75348  -2461066.56045         0.00041  23352081.85845  23352077.80148
 03 06 30 15 53 30.0000000  0  8 23 15 18 21 17 26 06 16
  -7550701.75848  -5883658.61245         0.00041  23150224.91045  23150219.86748
  -5625907.20648  -4383821.29246         0.00041  22648370.42246  22648366.54248
  -6128485.97049  -4775440.95046         0.00041  21206651.64646  21206650.37249
  -1923876.59849  -1499123.43946         0.00041  20730508.69546  20730507.83349
    646984.47249    504143.95346         0.00041  20989146.68946  20989143.50249
  -3577426.68348  -2787602.86046         0.00041  21512836.73146  21512833.37448
   1393681.22749   1085984.89447         0.00041  20522176.63447  20522174.19449
  -3174463.22548  -2473607.01444         0.00041  23349021.85644  23349015.51248
 03 06 30 15 54 00.0000000  0  8 23 15 18 21 17 26 06 16
  -7633953.79148  -5948530.29745         0.00041  23134383.22045  23134377.88748
  -5691855.40648  -4435209.50046         0.00041  22635821.10546  22635817.41348
  -6186524.24049  -4820665.57346         0.00041  21195607.26046  21195605.42049
  -1939053.58749  -1510949.65746         0.00041  20727620.61246  20727619.67249
    661666.29049    515584.31546         0.00041  20991940.80946  20991937.59849
  -3595242.08148  -2801484.97446         0.00041  21509446.50546  21509443.58048
   1430730.33449   1114854.30146         0.00041  20529227.06346  20529224.27249
  -3190019.96548  -2485731.40446         0.00041  23346054.78846  23346054.44248
 03 06 30 15 54 30.0000000  0  8 23 15 18 21 17 26 06 16
  -7716941.02048  -6013195.60645         0.00041  23118590.95345  23118587.03948
  -5757732.99448  -4486542.66946         0.00041  22623285.01046  22623280.46048
  -6244176.79649  -4865589.63046         0.00041  21184636.60546  21184634.70949
  -1954061.63049  -1522644.23446         0.00041  20724764.68846  20724763.52349
    676496.30249    527140.15446         0.00041  20994762.93446  20994759.80649
  -3612438.39148  -2814884.68046         0.00041  21506173.51546  21506171.09548
   1468247.84249   1144088.69846         0.00041  20536365.68846  20536363.38949
  -3205056.84348  -2497449.28546         0.00041  23343193.90546  23343192.40748
 03 06 30 15 55 00.0000000  0  8 23 15 18 21 17 26 06 16
  -7799644.58648  -6077639.90145         0.00041  23102852.01545  23102848.78348
  -5823522.52248  -4537807.21645         0.00041  22610765.68145  22610760.39748
  -6301425.27349  -4910198.82546         0.00041  21173741.99246  21173740.76149
  -1968883.02249  -1534193.36346         0.00041  20721944.23046  20721943.61849
    691494.12649    538826.75646         0.00041  20997616.87146  20997613.65249
  -3628996.59748  -2827787.17446         0.00041  21503022.62846  21503019.62948
   1506250.99949   1173701.52046         0.00041  20543597.83046  20543595.38849
  -3219556.63548  -2508745.43044         0.00041  23340433.57344  23340433.57348
 03 06 30 15 55 30.0000000  0  8 23 15 18 21 17 26 06 16
  -7882044.48448  -6141847.56945         0.00041  23087173.18045  23087168.03448
  -5889204.95248  -4588988.29045         0.00041  22598265.52245  22598261.45048
  -6358250.36249  -4954478.09946         0.00041  21162929.10146  21162927.24649
  -1983498.48849  -1545582.03646         0.00041  20719162.86046  20719161.67149
    706679.48149    550659.49746         0.00041  21000506.02546  21000502.80849
  -3644896.65148  -2840176.83946         0.00041  21499997.14146  21499994.34848
   1544758.39849   1203707.25646         0.00041  20550925.59246  20550922.90249
  -3233500.28448  -2519608.88844         0.00041  23337785.73244  23337780.37948
 03 06 30 15 56 00.0000000  0  8 23 15 18 21 17 26 06 16
  -7964134.25648  -6205813.59045         0.00041  23071551.93345  23071547.40448
  -5954774.59648  -4640081.50746         0.00041  22585788.14946  22585785.03848
  -6414645.79449  -4998422.57546         0.00041  21152196.99146  21152195.21849
  -1997902.54949  -1556805.98446         0.00041  20716422.16846  20716421.17349
    722053.18049    562638.99346         0.00041  21003431.67146  21003428.46249
  -3660131.94348  -2852048.49746         0.00041  21497098.03446  21497095.42448
   1583775.27549   1234109.98746         0.00041  20558350.32346  20558347.95649
  -3246882.60848  -2530036.77744         0.00041  23335233.03044  23335233.03048
 03 06 30 15 56 30.0000000  0  8 23 15 18 21 17 26 06 16
  -8045918.21648  -6269541.29445         0.00041  23055989.72445  23055984.84548
  -6020236.57548  -4691090.82445         0.00041  22573331.33145  22573328.29748
  -6470616.63449  -5042036.20946         0.00041  21141546.34246  21141544.66549
  -2012100.07949  -1567868.99746         0.00041  20713720.17846  20713719.50849
    737612.19649    574762.88746         0.00041  21006392.56846  21006389.37149
  -3674706.69348  -2863405.51946         0.00041  21494324.89646  21494321.85848
   1623295.81349   1264905.18146         0.00041  20565870.66446  20565868.42449
  -3259708.99248  -2540031.41644         0.00041  23332798.27344  23332792.33048
 03 06 30 15 57 00.0000000  0  8 23 15 18 21 17 26 06 16
  -8127404.51148  -6333037.05345         0.00041  23040481.68045  23040478.18848
  -6085600.48048  -4742023.73546         0.00041  22560892.92246  22560889.50548
  -6526171.71049  -5085325.87346         0.00041  21130974.14646  21130972.59749
  -2026100.32749  -1578778.28846         0.00041  20711056.05446  20711054.86149
    753345.62749    587022.68946         0.00041  21009386.73146  21009383.64749
  -3688629.27648  -2874254.19446         0.00041  21491674.97446  21491672.14848
   1663310.04449   1296085.08046         0.00041  20573485.33546  20573482.98349
  -3271989.09148  -2549600.33444         0.00041  23330458.45544  23330455.99248
 03 06 30 15 57 30.0000000  0  8 23 15 18 21 17 26 06 16
  -8208582.61048  -6396292.67945         0.00041  23025033.45345  23025029.14248
  -6150856.59348  -4792872.63446         0.00041  22548475.00246  22548471.45948
  -6581300.85849  -5128283.64246         0.00041  21120483.28646  21120481.81649
  -2039893.32449  -1589526.08446         0.00041  20708431.32446  20708430.50349
    769266.36849    599428.44346         0.00041  21012416.20646  21012412.70849
  -3701889.06448  -2884586.50646         0.00041  21489151.89246  21489148.86748
   1703827.18449   1327656.85646         0.00041  20581195.51246  20581193.17449
  -3283713.35448  -2558736.13045         0.00041  23328227.30345  23328224.98748
 03 06 30 15 58 00.0000000  0  8 23 15 18 21 17 26 06 16
  -8289466.18048  -6459318.78545         0.00041  23009642.42345  23009637.79448
  -6216019.62248  -4843649.00846         0.00041  22536075.22446  22536071.16348
  -6636018.31449  -5170920.60946         0.00041  21110071.36746  21110069.49149
  -2053493.74249  -1600123.82046         0.00041  20705843.44246  20705842.23849
    785358.63349    611967.85946         0.00041  21015478.62246  21015475.53049
  -3714499.67748  -2894412.96046         0.00041  21486752.31046  21486749.49248
   1744832.10049   1359608.70646         0.00041  20588998.62346  20588995.81049
  -3294896.85248  -2567450.57345         0.00041  23326100.40845  23326096.51248
 03 06 30 15 58 30.0000000  0  8 23 15 18 21 17 26 06 16
  -8370005.69448  -6522076.82745         0.00041  22994318.06045  22994312.96448
  -6281040.88848  -4894314.93246         0.00041  22523701.75446  22523698.18948
  -6690274.87649  -5213198.44246         0.00041  21099746.42246  21099744.71549
  -2066852.79749  -1610533.47846         0.00041  20703301.33046  20703300.43349
    801671.26049    624678.99146         0.00041  21018582.86446  21018579.36349
  -3726411.66548  -2903695.03246         0.00041  21484485.88046  21484482.70748
   1786372.68549   1391977.96146         0.00041  20596903.46246  20596900.82549
  -3305491.48448  -2575706.13345         0.00041  23324083.17945  23324080.21748
 03 06 30 15 59 00.0000000  0  8 23 15 18 21 17 26 06 16
  -8450188.91848  -6584557.20245         0.00041  22979058.99345  22979053.01048
  -6345908.87048  -4944861.41246         0.00041  22511358.64546  22511354.11348
  -6744059.03149  -5255108.16946         0.00041  21089511.88046  21089510.62749
  -2079959.31249  -1620746.35046         0.00041  20700807.62746  20700806.34749
    818215.76749    637570.79846         0.00041  21021730.96646  21021727.59349
  -3737612.82948  -2912423.21346         0.00041  21482354.24446  21482350.64348
   1828459.78649   1424773.08246         0.00041  20604912.36946  20604909.85149
  -3315485.94348  -2583494.01045         0.00041  23322182.15245  23322178.46948
 03 06 30 15 59 30.0000000  0  8 23 15 18 21 17 26 06 16
  -8530020.58048  -6646763.65945         0.00041  22963866.34345  22963861.05248
  -6410629.29048  -4995292.88746         0.00041  22499043.18046  22499038.78648
  -6797376.09649  -5296653.92146         0.00041  21079366.41346  21079364.61749
  -2092818.34649  -1630766.38446         0.00041  20698360.59846  20698359.24549
    834984.13149    650637.04446         0.00041  21024922.21446  21024919.09549
  -3748108.02948  -2920601.28146         0.00041  21480356.88146  21480353.80648
   1871086.97849   1457989.05546         0.00041  20613024.27546  20613021.40249
  -3324886.59548  -2590819.19845         0.00041  23320393.31745  23320389.95748
 03 06 30 16 00 00.0000000  0  8 23 15 18 21 17 26 06 16
  -8609608.58448  -6708780.24445         0.00041  22948721.54745  22948716.73948
  -6475311.00848  -5045694.21746         0.00041  22486733.46146  22486730.24348
  -6850334.43349  -5337920.14546         0.00041  21069288.57846  21069286.34449
  -2105539.09049  -1640678.64846         0.00041  20695939.49746  20695938.65049
    851872.06049    663796.45446         0.00041  21028135.94046  21028132.65149
  -3758005.40748  -2928313.51346         0.00041  21478473.12146  21478470.70648
   1914144.77549   1491540.55946         0.00041  20621217.81346  20621214.65649
  -3333802.75148  -2597766.85444         0.00041  23318696.93144  23318692.78948
 03 06 30 16 00 30.0000000  0  8 23 15 18 21 17 26 06 16
  -8688928.83048  -6770588.18245         0.00041  22933628.81045  22933623.56548
  -6539930.66348  -5096047.19646         0.00041  22474437.41646  22474433.35448
  -6902910.68049  -5378888.63046         0.00041  21059283.43146  21059281.93949
  -2118097.85349  -1650464.69546         0.00041  20693549.78746  20693548.61949
    868901.77649    677066.35246         0.00041  21031376.25446  21031372.94249
  -3767280.81448  -2935541.10446         0.00041  21476707.96046  21476705.29848
   1957655.95849   1525445.35246         0.00041  20629498.12946  20629495.13049
  -3342211.45748  -2604319.09044         0.00041  23317099.05744  23317092.93348
 03 06 30 16 01 00.0000000  0  8 23 15 18 21 17 26 06 16
  -8767986.24348  -6832191.33645         0.00041  22918585.30845  22918579.32848
  -6604494.12548  -5146356.40645         0.00041  22462151.66345  22462146.77248
  -6955110.44749  -5419563.76246         0.00041  21049350.28146  21049348.74849
  -2130500.27349  -1660128.92546         0.00041  20691189.82146  20691188.65249
    886063.92649    690439.45746         0.00041  21034642.15746  21034638.44649
  -3775939.57148  -2942288.19446         0.00041  21475060.90446  21475057.42548
   2001613.82849   1559698.20746         0.00041  20637862.81446  20637860.36649
  -3350119.07648  -2610480.92744         0.00041  23315591.62444  23315588.27248
 03 06 30 16 01 30.0000000  0  8 23 15 18 21 17 26 06 16
  -8846817.27548  -6893618.07545         0.00041  22903582.22245  22903578.15348
  -6669038.74448  -5196650.88445         0.00041  22449868.73845  22449864.75648
  -7006970.64649  -5459974.29846         0.00041  21039481.57546  21039479.85049
  -2142783.70449  -1669700.43846         0.00041  20688852.17546  20688851.10749
    903323.70249    703888.62346         0.00041  21037926.65246  21037923.21049
  -3784018.07148  -2948583.12046         0.00041  21473523.66546  21473520.36548
   2045980.47049   1594269.58746         0.00041  20646305.34946  20646302.85549
  -3357563.28648  -2616281.65444         0.00041  23314176.14044  23314172.32348
 03 06 30 16 02 00.0000000  0  8 23 15 18 21 17 26 06 16
  -8925367.68648  -6954826.13445         0.00041  22888635.29045  22888629.76948
  -6733510.88348  -5246888.89645         0.00041  22437599.09445  22437596.13548
  -7058437.47749  -5500078.31346         0.00041  21029687.44946  21029685.95449
  -2154894.39649  -1679137.35646         0.00041  20686547.40346  20686546.48349
    920736.23549    717456.81746         0.00041  21041240.27346  21041236.90949
  -3791462.35948  -2954383.86146         0.00041  21472107.05546  21472104.04548
   2090808.48349   1629200.47746         0.00041  20654836.20846  20654833.27849
  -3364491.45648  -2621680.28144         0.00041  23312854.68644  23312854.23648
 03 06 30 16 02 30.0000000  0  8 23 15 18 21 17 26 06 16
  -9003653.68248  -7015828.17145         0.00041  22873738.13445  22873731.22348
  -6797927.49448  -5297083.64445         0.00041  22425342.49945  22425338.29648
  -7109528.11349  -5539889.18246         0.00041  21019964.99346  21019963.68249
  -2166849.20949  -1688452.80846         0.00041  20684272.52946  20684271.57449
    938283.37649    731129.90446         0.00041  21044579.26246  21044576.09549
  -3798288.77648  -2959703.14746         0.00041  21470807.80646  21470804.86648
   2136080.33249   1664477.20346         0.00041  20663450.99246  20663448.14049
  -3370921.17748  -2626690.47645         0.00041  23311633.21445  23311630.53148
 03 06 30 16 03 00.0000000  0  8 23 15 18 21 17 26 06 16
  -9081652.65648  -7076606.54145         0.00041  22858893.85845  22858889.49848
  -6862266.98248  -5347218.27446         0.00041  22413098.85646  22413095.21448
  -7160220.27349  -5579389.55946         0.00041  21010319.05246  21010317.37549
  -2178625.97049  -1697629.51446         0.00041  20682031.68146  20682030.68849
    955986.43649    744924.48646         0.00041  21047948.06546  21047944.98349
  -3804474.80048  -2964523.43846         0.00041  21469630.68246  21469627.52548
   2181817.03649   1700116.16246         0.00041  20672154.46446  20672151.81049
  -3376831.19548  -2631295.66145         0.00041  23310509.03245  23310505.37248
 03 06 30 16 03 30.0000000  0  8 23 15 18 21 17 26 06 16
  -9159363.73648  -7137160.59145         0.00041  22844106.35745  22844101.88548
  -6926529.27948  -5397292.75346         0.00041  22400870.06246  22400866.14648
  -7210513.52449  -5618579.10146         0.00041  21000748.27846  21000746.79749
  -2190225.10949  -1706667.81546         0.00041  20679824.33746  20679823.33849
    973845.20949    758840.40046         0.00041  21051346.68646  21051343.53449
  -3810019.95548  -2968844.35446         0.00041  21468575.76846  21468572.57448
   2228017.64349   1736116.60046         0.00041  20680946.11446  20680943.44549
  -3382221.89748  -2635495.93644         0.00041  23309481.48844  23309479.75148
 03 06 30 16 04 00.0000000  0  8 23 15 18 21 17 26 06 16
  -9236772.07448  -7197478.74645         0.00041  22829374.65345  22829371.46948
  -6990700.10048  -5447296.03046         0.00041  22388658.33446  22388655.12148
  -7260393.70849  -5657446.77246         0.00041  20991256.51746  20991255.11949
  -2201631.73249  -1715556.10646         0.00041  20677653.78546  20677652.76149
    991873.89249    772888.71746         0.00041  21054777.36646  21054774.30249
  -3814909.77948  -2972654.61446         0.00041  21467645.05746  21467642.49948
   2274695.40749   1772488.84746         0.00041  20689828.87146  20689826.31049
  -3387080.01648  -2639281.06646         0.00041  23308558.67046  23308555.65048
 03 06 30 16 04 30.0000000  0  8 23 15 17 26 16 18 21 06
  -9313873.16648  -7257557.48245         0.00041  22814703.41845  22814700.05948
  -7054775.62248  -5497225.00546         0.00041  22376465.61446  22376461.17548
   1010076.64349    787072.67146         0.00041  21058241.37246  21058237.61849
  -3819139.97348  -2975950.86546         0.00041  21466840.21846  21466837.42648
  -3391402.23748  -2642649.91344         0.00041  23307734.56244  23307732.85448
  -7309856.91449  -5695989.51546         0.00041  20981843.94046  20981842.27149
  -2212842.24549  -1724291.57446         0.00041  20675520.45346  20675519.51849
   2321853.32449   1809235.23846         0.00041  20698802.87146  20698800.03949
 03 06 30 16 05 00.0000000  0  8 23 15 17 26 16 18 21 06
  -9390592.34048  -7317338.61645         0.00041  22800105.02045  22800100.59948
  -7118682.03248  -5547022.20946         0.00041  22364304.26346  22364300.74548
   1028526.60549    801449.25646         0.00041  21061752.10946  21061748.59549
  -3822636.13348  -2978675.14646         0.00041  21466174.78946  21466171.35248
  -3395115.56648  -2645543.37845         0.00041  23307027.60645  23307025.87248
  -7358829.24849  -5734149.76446         0.00041  20972524.92046  20972523.34049
  -2223782.40849  -1732816.38746         0.00041  20673438.98046  20673438.06349
   2369564.36449   1846412.63346         0.00041  20707881.94346  20707879.23849
 03 06 30 16 05 30.0000000  0  8 23 15 17 26 16 18 21 06
  -9466974.94848  -7376857.50545         0.00041  22785569.70945  22785565.56648
  -7182465.15948  -5596723.37546         0.00041  22352167.04746  22352163.35448
   1047179.67649    815984.11646         0.00041  21065301.56046  21065298.14449
  -3825443.93648  -2980863.04146         0.00041  21465640.72246  21465637.60748
  -3398266.64248  -2647998.77745         0.00041  23306429.03645  23306426.33148
  -7407356.42249  -5771963.14146         0.00041  20963290.69346  20963288.79949
  -2234498.29449  -1741166.43946         0.00041  20671399.48646  20671398.42649
   2417781.55949   1883984.43846         0.00041  20717057.17146  20717054.64549
 03 06 30 16 06 00.0000000  0  8 23 15 17 26 16 18 21 06
  -9543034.51748  -7436124.67446         0.00041  22771096.79746  22771093.15148
  -7246139.40648  -5646339.63646         0.00041  22340049.76646  22340046.37248
   1066020.10549    830664.97246         0.00041  21068886.74446  21068883.49749
  -3827577.22748  -2982525.34446         0.00041  21465234.98446  21465231.92048
  -3400870.43448  -2650027.74444         0.00041  23305933.10644  23305930.73848
  -7455452.55049  -5809440.63346         0.00041  20954137.93646  20954136.40849
  -2245003.81849  -1749352.57046         0.00041  20669400.74346  20669399.52349
   2466489.82449   1921938.89246         0.00041  20726325.93446  20726323.27249
 03 06 30 16 06 30.0000000  0  8 23 15 17 26 16 18 21 06
  -9618801.29748  -7495163.67146         0.00041  22756678.42346  22756674.54448
  -7309735.69848  -5695895.18146         0.00041  22327947.13746  22327944.67248
   1085017.41249    845468.05246         0.00041  21072502.17446  21072498.69849
  -3829066.58248  -2983685.88846         0.00041  21464951.27846  21464948.20848
  -3402958.88248  -2651655.15744         0.00041  23305536.30744  23305533.39248
  -7503148.56949  -5846606.34246         0.00041  20945061.65646  20945060.11449
  -2255329.73249  -1757398.74146         0.00041  20667435.63046  20667434.64649
   2515657.18349   1960251.08446         0.00041  20735682.38246  20735679.44349
 03 06 30 16 07 00.0000000  0  8 23 15 17 26 16 18 21 06
  -9694281.79648  -7553979.60646         0.00041  22742314.64746  22742310.55148
  -7373261.22948  -5745395.55446         0.00041  22315858.88046  22315855.68748
   1104165.30449    860388.46746         0.00041  21076145.95246  21076142.88949
  -3829918.90648  -2984350.04246         0.00041  21464789.12246  21464785.98248
  -3404539.98248  -2652887.21744         0.00041  23305236.45644  23305232.56548
  -7550451.70549  -5883465.92046         0.00041  20936060.27146  20936058.93949
  -2265483.40249  -1765310.70346         0.00041  20665503.23146  20665502.11049
   2565275.62949   1998914.77546         0.00041  20745124.48946  20745121.66249
 03 06 30 16 07 30.0000000  0  8 23 15 17 26 16 18 21 06
  -9769403.21648  -7612515.75746         0.00041  22728018.62646  22728016.25148
  -7436643.80448  -5794784.53346         0.00041  22303798.39446  22303794.68948
   1123535.71549    875482.28646         0.00041  21079831.34246  21079828.40049
  -3830061.73448  -2984461.35946         0.00041  21464761.81046  21464758.93148
  -3405542.44648  -2653668.37645         0.00041  23305044.56045  23305042.13748
  -7597289.37049  -5919962.80346         0.00041  20927147.50546  20927145.80549
  -2275392.06849  -1773031.74146         0.00041  20663617.67146  20663616.79849
   2615416.41649   2037985.48646         0.00041  20754665.58646  20754663.14549
 03 06 30 16 08 00.0000000  0  8 23 15 17 26 16 18 21 06
  -9844149.70048  -7670759.73946         0.00041  22713795.48746  22713791.92048
  -7499868.12948  -5844050.21746         0.00041  22291767.42346  22291762.97248
   1143142.90149    890760.59746         0.00041  21083562.82746  21083559.70749
  -3829479.74448  -2984007.86746         0.00041  21464872.85046  21464869.93748
  -3405951.62648  -2653987.23145         0.00041  23304967.67345  23304964.89148
  -7643646.55449  -5956085.27846         0.00041  20918326.04346  20918324.26449
  -2285040.30049  -1780549.84846         0.00041  20661781.92346  20661780.90849
   2666093.78149   2077474.30246         0.00041  20764309.22846  20764306.69149
 03 06 30 16 08 30.0000000  0  8 23 15 17 26 16 18 21 06
  -9918558.89048  -7728740.90446         0.00041  22699636.20446  22699631.92148
  -7562972.09848  -5893222.10246         0.00041  22279758.43546  22279754.48248
   1162950.19949    906194.83546         0.00041  21087332.28746  21087329.06249
  -3828211.06848  -2983019.29146         0.00041  21465113.93546  21465110.77148
  -3405807.06248  -2653874.61345         0.00041  23304995.31645  23304992.26648
  -7689561.55049  -5991863.18846         0.00041  20909588.60146  20909587.18849
  -2294466.54849  -1787894.98646         0.00041  20659987.95746  20659987.09949
   2717268.21849   2117350.44346         0.00041  20774047.81646  20774045.13749
 03 06 30 16 09 00.0000000  0  8 23 15 17 26 16 18 21 06
  -9992657.78648  -7786480.26646         0.00041  22685535.71846  22685531.57648
  -7625983.65248  -5942322.01846         0.00041  22267768.24046  22267764.47548
   1182928.48449    921762.30846         0.00041  21091133.72946  21091130.37949
  -3826283.16448  -2981517.04146         0.00041  21465481.03146  21465477.81648
  -3405137.04348  -2653352.55245         0.00041  23305121.71645  23305119.06548
  -7735062.16249  -6027318.20346         0.00041  20900929.91646  20900928.12249
  -2303698.18349  -1795088.46646         0.00041  20658231.33746  20658230.31049
   2768911.14249   2157591.63846         0.00041  20783875.03846  20783872.43449
 03 06 30 16 09 30.0000000  0  8 23 15 17 26 16 18 21 06
 -10066501.83848  -7844021.04946         0.00041  22671482.38446  22671479.10748
  -7688958.71348  -5991393.50446         0.00041  22255785.00746  22255779.89448
   1203022.43549    937419.92346         0.00041  21094957.33246  21094954.40949
  -3823751.96248  -2979544.68746         0.00041  21465962.42446  21465959.21248
  -3403998.85548  -2652465.67945         0.00041  23305339.37845  23305335.61248
  -7780204.54249  -6062494.07446         0.00041  20892339.62346  20892338.24549
  -2312791.22149  -1802173.95646         0.00041  20656501.07146  20656499.79649
   2820965.39149   2198153.34546         0.00041  20793780.76046  20793778.27649
 03 06 30 16 10 00.0000000  0  8 23 15 17 26 16 18 21 06
 -10140111.08548  -7901378.88046         0.00041  22657476.16546  22657471.60448
  -7751917.86948  -6040452.60146         0.00041  22243802.98046  22243799.87148
   1223212.54249    953152.46946         0.00041  21098799.68146  21098796.41749
  -3820637.92248  -2977118.17646         0.00041  21466554.92946  21466552.26248
  -3402413.86148  -2651230.66045         0.00041  23305641.35545  23305638.37548
  -7825008.98049  -6097406.61346         0.00041  20883813.59946  20883812.22349
  -2321765.85149  -1809167.17846         0.00041  20654793.38346  20654792.54349
   2873409.18649   2239018.59646         0.00041  20803760.60446  20803757.42949
 03 06 30 16 10 30.0000000  0  8 23 15 17 26 16 18 21 06
 -10213425.48248  -7958506.94346         0.00041  22643525.41046  22643519.90448
  -7814801.69948  -6089452.99346         0.00041  22231837.15046  22231833.74548
   1243555.58749    969004.18046         0.00041  21102670.95846  21102667.71249
  -3816881.63449  -2974191.21346         0.00041  21467269.25746  21467267.26049
  -3400323.72748  -2649602.03445         0.00041  23306039.97345  23306036.30848
  -7869416.11849  -6132009.57046         0.00041  20875363.26346  20875361.50249
  -2330562.35549  -1816021.60246         0.00041  20653119.25546  20653118.06849
   2926300.94849   2280232.90546         0.00041  20813825.75646  20813822.84549
 03 06 30 16 11 00.0000000  0  8 23 15 17 26 16 18 21 06
 -10286402.37448  -8015372.02546         0.00041  22629638.03346  22629632.47748
  -7877567.92748  -6138361.71346         0.00041  22219892.98146  22219889.61148
   1264097.49849    985010.84646         0.00041  21106580.02046  21106576.84849
  -3812440.91848  -2970730.91446         0.00041  21468114.90646  21468111.84848
  -3397687.32048  -2647547.71345         0.00041  23306540.06145  23306536.71448
  -7913383.68649  -6166270.01146         0.00041  20866996.57646  20866994.78749
  -2339138.79949  -1822704.54946         0.00041  20651486.88146  20651485.75249
   2979681.66749   2321828.22946         0.00041  20823983.79746  20823981.04449
 03 06 30 16 11 30.0000000  0  8 23 15 17 26 16 18 21 06
 -10359057.45048  -8071986.32946         0.00041  22615812.40346  22615806.85248
  -7940232.61848  -6187191.33346         0.00041  22207968.37246  22207964.91148
   1284821.11649   1001159.10946         0.00041  21110523.53546  21110520.35449
  -3807331.99048  -2966749.95146         0.00041  21469087.42046  21469084.24548
  -3394521.71748  -2645081.06545         0.00041  23307141.30445  23307139.16248
  -7956928.42849  -6200200.96946         0.00041  20858710.18846  20858708.62249
  -2347511.37549  -1829228.63646         0.00041  20649894.02546  20649893.11749
   3033533.95549   2363791.00946         0.00041  20834231.56546  20834228.72049
 03 06 30 16 12 00.0000000  0  8 23 15 17 26 16 18 21 06
 -10431409.13648  -8128364.23546         0.00041  22602043.63346  22602039.67648
  -8002814.57948  -6235956.46146         0.00041  22196059.99846  22196056.03748
   1305705.97449   1017433.00746         0.00041  21114497.96246  21114494.23349
  -3801573.83248  -2962263.09446         0.00041  21470183.01446  21470180.19948
  -3390847.19148  -2642217.83145         0.00041  23307842.28245  23307839.20648
  -8000069.21949  -6233817.16846         0.00041  20850501.23846  20850499.25249
  -2355698.19049  -1835607.97946         0.00041  20648336.43746  20648335.00149
   3087837.77549   2406105.63546         0.00041  20844565.40946  20844562.34649
 03 06 30 16 12 30.0000000  0  8 23 15 17 26 16 18 21 06
 -10503493.72348  -8184534.02846         0.00041  22588325.85846  22588322.16348
  -8065350.56848  -6284685.75846         0.00041  22184158.86546  22184155.43148
   1326714.32749   1033803.13046         0.00041  21118495.56346  21118492.37849
  -3795203.32149  -2957299.06246         0.00041  21471395.24646  21471392.61249
  -3386701.58048  -2638987.49645         0.00041  23308631.73345  23308628.38148
  -8042843.01149  -6267147.39646         0.00041  20842361.36746  20842359.63649
  -2363736.15949  -1841871.33946         0.00041  20646806.49346  20646805.17849
   3142555.09349   2448742.46646         0.00041  20854977.77246  20854974.67349
 03 06 30 16 13 00.0000000  0  8 23 15 17 26 16 18 21 06
 -10575303.26248  -8240489.48346         0.00041  22574660.72746  22574657.07748
  -8127833.20948  -6333373.53546         0.00041  22172268.92946  22172265.41748
   1347856.46849   1050277.52046         0.00041  21122518.64246  21122515.50549
  -3788213.29448  -2951852.29046         0.00041  21472724.99746  21472722.70248
  -3382078.65748  -2635385.25445         0.00041  23309511.01845  23309507.88048
  -8085242.26349  -6300185.77246         0.00041  20834292.88546  20834291.46749
  -2371617.61249  -1848012.72846         0.00041  20645306.77346  20645305.91749
   3197691.94549   2491706.20146         0.00041  20865469.82046  20865467.10449
 03 06 30 16 13 30.0000000  0  8 23 15 17 26 16 18 21 06
 -10646802.89548  -8296203.43846         0.00041  22561056.40146  22561051.60448
  -8190228.04348  -6381992.82946         0.00041  22160396.14746  22160391.18248
   1369167.52949   1066883.52346         0.00041  21126573.82446  21126570.62249
  -3780569.34148  -2945895.95846         0.00041  21474179.87746  21474176.91148
  -3376944.86348  -2631384.92945         0.00041  23310487.51945  23310484.35248
  -8127232.87949  -6332905.72846         0.00041  20826302.08746  20826300.80849
  -2379307.85949  -1854005.13746         0.00041  20643843.47246  20643842.24549
   3253281.72349   2535022.86546         0.00041  20876048.55146  20876045.48449
 03 06 30 16 14 00.0000000  0  8 23 15 17 26 16 18 21 06
 -10717966.82848  -8351655.81146         0.00041  22547515.22246  22547509.09048
  -8252509.60148  -6430523.91746         0.00041  22148542.96246  22148539.78448
   1390670.14849   1083638.79146         0.00041  21130665.95246  21130662.88549
  -3772246.42048  -2939410.58046         0.00041  21475763.84346  21475760.83348
  -3371276.51948  -2626968.06745         0.00041  23311566.07545  23311563.43548
  -8168789.60649  -6365287.58646         0.00041  20818394.19046  20818392.62549
  -2386781.43449  -1859828.71246         0.00041  20642421.27646  20642420.32049
   3309348.56049   2578711.25946         0.00041  20886717.74746  20886714.68949
 03 06 30 16 14 30.0000000  0  8 23 15 17 26 16 18 21 06
 -10788763.49848  -8406822.02646         0.00041  22534041.67146  22534036.46048
  -8314646.59348  -6478942.31546         0.00041  22136720.44746  22136716.21448
   1412397.20049   1100568.94446         0.00041  21134800.51546  21134796.99549
  -3763213.46048  -2932371.92146         0.00041  21477482.43246  21477480.14248
  -3365043.32448  -2622111.07045         0.00041  23312753.35545  23312750.16048
  -8209881.56849  -6397307.28746         0.00041  20810575.03146  20810573.14549
  -2394007.09249  -1865459.09946         0.00041  20641046.04146  20641044.91849
   3365922.46349   2622794.77446         0.00041  20897483.14646  20897480.22049
 03 06 30 16 15 00.0000000  0  8 23 15 17 26 16 18 21 06
 -10859168.91648  -8461683.34846         0.00041  22520642.46946  22520639.05948
  -8376615.56548  -6527229.81846         0.00041  22124927.20846  22124923.88748
   1434373.12849   1117693.02846         0.00041  21138982.07946  21138978.87249
  -3753447.23948  -2924761.88646         0.00041  21479341.04146  21479338.29448
  -3358223.12448  -2616796.65145         0.00041  23314050.84445  23314047.63548
  -8250485.61949  -6428946.80146         0.00041  20802848.25646  20802846.62849
  -2400961.23749  -1870877.92446         0.00041  20639722.85346  20639722.05749
   3423025.37049   2667290.49846         0.00041  20908349.48346  20908346.84749
 03 06 30 16 15 30.0000000  0  8 23 15 17 26 16 18 21 06
 -10929182.57048  -8516239.40246         0.00041  22507320.19646  22507316.43748
  -8438416.17748  -6575386.13646         0.00041  22113166.66846  22113163.45548
   1456596.38149   1135009.84346         0.00041  21143211.40346  21143208.29349
  -3742948.17648  -2916580.79646         0.00041  21481338.61946  21481336.19848
  -3350817.09048  -2611025.75845         0.00041  23315460.10145  23315456.73148
  -8290601.78649  -6460206.14046         0.00041  20795214.39346  20795212.60849
  -2407643.22849  -1876084.68346         0.00041  20638451.45146  20638450.44049
   3480656.16849   2712197.57346         0.00041  20919316.59146  20919313.56449
 03 06 30 16 16 00.0000000  0  8 23 15 17 26 16 18 21 06
 -10998817.41748  -8570500.29146         0.00041  22494068.53046  22494065.22248
  -8500061.79448  -6623421.66046         0.00041  22101436.38446  22101431.85448
   1479054.00649   1152509.27246         0.00041  21147484.83646  21147481.63649
  -3731729.84348  -2907839.24446         0.00041  21483473.41546  21483470.38348
  -3342840.00648  -2604809.88145         0.00041  23316977.69545  23316974.61848
  -8330243.69049  -6491095.92546         0.00041  20787670.74746  20787668.95249
  -2414066.54149  -1881089.87646         0.00041  20637228.58346  20637227.97249
   3538800.03049   2757504.43746         0.00041  20930380.76446  20930377.84649
 03 06 30 16 16 30.0000000  0  8 23 15 17 26 16 18 21 06
 -11068116.36948  -8624499.47046         0.00041  22480881.64946  22480877.58648
  -8561595.47248  -6671369.94946         0.00041  22089727.05346  22089722.97948
   1501703.28349   1170158.04046         0.00041  21151794.94546  21151791.89549
  -3719835.91748  -2898571.26446         0.00041  21485737.03346  21485733.97448
  -3334335.98948  -2598183.40045         0.00041  23318597.74045  23318593.61748
  -8369454.75949  -6521650.00246         0.00041  20780208.80046  20780207.25349
  -2420274.04649  -1885926.89546         0.00041  20636047.66846  20636047.04749
   3597412.51949   2803176.44946         0.00041  20941534.51246  20941531.57149
 03 06 30 16 17 00.0000000  0  8 23 15 17 26 16 18 21 06
 -11137130.61948  -8678276.78046         0.00041  22467749.52746  22467744.75948
  -8623068.83348  -6719271.27046         0.00041  22078028.86546  22078025.05248
   1524492.51149   1187915.87446         0.00041  21156131.73246  21156128.36249
  -3707318.31048  -2888817.28746         0.00041  21488119.60446  21488116.37848
  -3325358.30148  -2591187.82345         0.00041  23320305.44045  23320302.28248
  -8408287.00549  -6551908.88946         0.00041  20772819.68846  20772818.46549
  -2426317.21849  -1890635.85746         0.00041  20634897.74846  20634896.66349
   3656440.72049   2849172.39146         0.00041  20952767.33646  20952764.31249
 03 06 30 16 17 30.0000000  0  8 23 15 17 26 16 18 21 06
 -11205892.23748  -8731857.20646         0.00041  22454663.81446  22454660.36148
  -8684514.03548  -6767150.63846         0.00041  22066336.06046  22066332.04848
   1547389.58949   1205757.73946         0.00041  21160488.80246  21160485.52049
  -3694209.82848  -2878602.89746         0.00041  21490614.08746  21490611.05248
  -3315940.66748  -2583849.43045         0.00041  23322096.56245  23322094.33148
  -8446772.94849  -6581897.92346         0.00041  20765495.88846  20765494.42749
  -2432228.10749  -1895241.74946         0.00041  20633773.04046  20633771.73949
   3715850.80949   2895465.91746         0.00041  20964072.97846  20964069.93849
 03 06 30 16 18 00.0000000  0  8 23 15 17 26 16 18 21 06
 -11274388.95348  -8785231.22946         0.00041  22441630.25246  22441625.79148
  -8745919.12548  -6814998.74146         0.00041  22054650.35946  22054647.24748
   1570406.29149   1223692.81746         0.00041  21164869.06246  21164865.49149
  -3680499.04248  -2867919.17646         0.00041  21493222.82046  21493219.75348
  -3306072.52248  -2576160.00445         0.00041  23323973.91945  23323970.56148
  -8484900.70549  -6611607.85146         0.00041  20758240.53646  20758238.73749
  -2437994.71249  -1899735.20946         0.00041  20632675.44646  20632674.65649
   3775653.43049   2942065.31546         0.00041  20975452.89246  20975449.85549
 03 06 30 16 18 30.0000000  0  8 23 15 18 21 17 26 06 16
 -11342583.30148  -8838369.66346         0.00041  22428652.63646  22428647.80948
  -8807246.94248  -6862786.65346         0.00041  22042981.48846  22042977.08048
  -8522633.96249  -6641010.37846         0.00041  20751059.81146  20751058.55849
  -2443579.60749  -1904087.08046         0.00041  20631612.87146  20631611.92249
   1593580.86749   1241750.92046         0.00041  21169278.46246  21169275.00549
  -3666149.43748  -2856737.66846         0.00041  21495953.83746  21495950.64048
   3835884.04649   2988998.20746         0.00041  20986914.15746  20986911.08949
  -3295718.29648  -2568091.81245         0.00041  23325944.45945  23325940.91348
 03 06 30 16 19 00.0000000  0  8 23 15 18 21 17 26 06 16
 -11410472.42148  -8891270.24946         0.00041  22415732.34546  22415729.16448
  -8868495.01648  -6910512.38746         0.00041  22031325.77846  22031322.06048
  -8559970.40249  -6670103.70546         0.00041  20743955.21146  20743953.66849
  -2448980.26049  -1908295.40046         0.00041  20630585.37646  20630584.24549
   1616913.94949   1259932.53146         0.00041  21173718.68946  21173715.48249
  -3651158.96649  -2845056.78246         0.00041  21498805.88446  21498803.65949
   3896543.81749   3036265.51646         0.00041  20998457.52146  20998454.52649
  -3284876.72148  -2559643.83844         0.00041  23328007.32044  23328004.10948
 03 06 30 16 19 30.0000000  0  8 23 15 18 21 17 26 06 16
 -11478026.33548  -8943909.62846         0.00041  22402876.96046  22402873.62548
  -8929633.28948  -6958152.60746         0.00041  22019691.17446  22019687.81148
  -8596880.49349  -6698864.81346         0.00041  20736931.46046  20736929.35949
  -2454166.53149  -1912336.66346         0.00041  20629598.30146  20629597.31649
   1640435.11949   1278260.69946         0.00041  21178194.85846  21178191.55049
  -3635498.48048  -2832853.82046         0.00041  21501785.76846  21501783.33548
   3957661.05349   3083889.28046         0.00041  21010087.82246  21010084.47949
  -3273519.58648  -2550794.17345         0.00041  23330170.65245  23330166.09948
 03 06 30 16 20 00.0000000  0  8 23 15 18 21 17 26 06 16
 -11545244.39648  -8996287.29946         0.00041  22390086.64746  22390082.41348
  -8990661.49448  -7005707.01946         0.00041  22008078.52646  22008074.86148
  -8633364.73249  -6727294.08446         0.00041  20729988.86046  20729986.96449
  -2459138.12649  -1916210.64046         0.00041  20628652.08046  20628651.09449
   1664148.54649   1296738.67246         0.00041  21182707.19146  21182704.02449
  -3619168.33649  -2820129.03246         0.00041  21504894.03846  21504891.16349
   4019234.37949   3131868.43746         0.00041  21021804.85146  21021801.76349
  -3261648.25448  -2541543.82645         0.00041  23332429.25745  23332425.62648
 03 06 30 16 20 30.0000000  0  8 23 15 18 21 17 26 06 16
 -11612142.30248  -9048415.51946         0.00041  22377358.06046  22377353.51048
  -9051595.07148  -7053187.72746         0.00041  21996482.58046  21996479.60448
  -8669439.21549  -6755404.06446         0.00041  20723124.40446  20723122.09149
  -2463910.12649  -1919929.09446         0.00041  20627744.32746  20627742.65649
   1688033.06649   1315349.97746         0.00041  21187252.11046  21187249.01549
  -3602185.21248  -2806895.43046         0.00041  21508125.50446  21508122.54248
   4081246.44349   3180189.46946         0.00041  21033605.64946  21033602.62449
  -3249280.06248  -2531906.31345         0.00041  23334781.86445  23334779.33048
 03 06 30 16 21 00.0000000  0  8 23 15 18 21 17 26 06 16
 -11678715.03648  -9100290.34846         0.00041  22364688.73046  22364684.87848
  -9112429.22648  -7100590.94746         0.00041  21984906.63246  21984902.82648
  -8705099.40349  -6783191.22046         0.00041  20716338.23146  20716336.28849
  -2468477.60849  -1923488.18146         0.00041  20626875.08646  20626873.84549
   1712098.78249   1334102.46646         0.00041  21191831.88046  21191828.59149
  -3584544.80348  -2793149.66746         0.00041  21511482.61346  21511479.56448
   4143700.43749   3228854.86346         0.00041  21045490.29946  21045487.26449
  -3236411.61548  -2521878.98345         0.00041  23337230.65245  23337227.54848
 03 06 30 16 21 30.0000000  0  8 23 15 18 21 17 26 06 16
 -11744927.77248  -9151884.65446         0.00041  22352089.89546  22352085.16848
  -9173129.27648  -7147889.64046         0.00041  21973356.41046  21973352.08748
  -8740311.37049  -6810629.10446         0.00041  20709637.31346  20709635.69849
  -2472806.97349  -1926861.71946         0.00041  20626051.64146  20626050.25549
   1736378.35849   1353021.59346         0.00041  21196452.27646  21196449.22549
  -3566213.23648  -2778865.33846         0.00041  21514970.97046  21514967.92648
   4206629.61749   3277890.53046         0.00041  21057465.54046  21057462.45749
  -3223009.84748  -2511436.10544         0.00041  23339782.78644  23339777.78048
 03 06 30 16 22 00.0000000  0  8 23 15 18 21 17 26 06 16
 -11810736.53748  -9203164.17846         0.00041  22339565.76146  22339562.26248
  -9233651.18548  -7195049.56546         0.00041  21961838.57346  21961835.37848
  -8775031.21449  -6837683.51146         0.00041  20703030.50046  20703028.84549
  -2476853.01049  -1930014.48246         0.00041  20625281.44846  20625279.88449
   1760914.66349   1372140.77446         0.00041  21201121.13646  21201117.85749
  -3547147.40448  -2764008.85646         0.00041  21518598.36246  21518595.51048
   4270076.14249   3327329.32446         0.00041  21069538.77446  21069535.63049
  -3209032.72948  -2500544.88444         0.00041  23342440.92844  23342437.44548
 03 06 30 16 22 30.0000000  0  8 23 15 18 21 17 26 06 16
 -11876138.17248  -9254126.45946         0.00041  22327120.61646  22327115.81348
  -9293991.99149  -7242068.34346         0.00041  21950357.25646  21950353.27149
  -8809256.86549  -6864352.84446         0.00041  20696517.39646  20696515.85849
  -2480613.16649  -1932944.48546         0.00041  20624565.44146  20624564.88249
   1785716.90149   1391467.18246         0.00041  21205841.06446  21205837.35149
  -3527345.27748  -2748578.64346         0.00041  21522366.97846  21522363.92848
   4334041.27649   3377172.22846         0.00041  21081710.83946  21081707.50749
  -3194478.82948  -2489204.23444         0.00041  23345209.12044  23345207.42048
 03 06 30 16 23 00.0000000  0  8 23 15 18 21 17 26 06 16
 -11941173.75048  -9304803.52246         0.00041  22314743.52646  22314740.30048
  -9354192.87449  -7288978.10046         0.00041  21938900.50046  21938897.39949
  -8843029.99249  -6890669.56546         0.00041  20690090.78346  20690088.99549
  -2484128.71249  -1935683.88246         0.00041  20623896.85846  20623895.92949
   1810736.44649   1410962.92846         0.00041  21210601.96546  21210598.90549
  -3506848.97948  -2732607.50646         0.00041  21526267.43046  21526264.79548
   4398482.09749   3427385.79446         0.00041  21093974.04346  21093970.57349
  -3179391.21348  -2477447.70844         0.00041  23348081.96644  23348078.18048
 03 06 30 16 23 30.0000000  0  8 23 15 18 21 17 26 06 16
 -12005947.36448  -9355276.43846         0.00041  22302417.91346  22302414.80048
  -9414357.83348  -7335859.87346         0.00041  21927451.42846  21927447.45648
  -8876455.42549  -6916715.36146         0.00041  20683730.01446  20683728.42249
  -2487502.56049  -1938312.86846         0.00041  20623254.59146  20623253.48649
   1835871.84049   1430548.94746         0.00041  21215385.71046  21215381.76149
  -3485763.50948  -2716177.27446         0.00041  21530279.65646  21530277.00248
   4463292.88349   3477887.63546         0.00041  21106306.76146  21106303.51249
  -3163875.58348  -2465357.67044         0.00041  23351032.35144  23351030.03448
 03 06 30 16 24 00.0000000  0  8 23 15 18 21 17 26 06 16
 -12070454.66748  -9405541.84346         0.00041  22290142.29446  22290139.00648
  -9474482.65748  -7382710.37446         0.00041  21916010.11346  21916006.35848
  -8909529.57849  -6942487.42946         0.00041  20677436.31246  20677435.31249
  -2490730.63749  -1940828.26346         0.00041  20622640.35546  20622639.21449
   1861127.55849   1450228.69446         0.00041  21220191.43346  21220187.79149
  -3464085.69348  -2699285.47746         0.00041  21534404.89446  21534402.07048
   4528476.23749   3528679.80246         0.00041  21118710.82746  21118707.68949
  -3147929.53248  -2452932.22744         0.00041  23354070.14244  23354065.05948
 03 06 30 16 24 30.0000000  0  7 23 15 17 26 06 18 21
 -12134707.87648  -9455609.25346         0.00041  22277915.34046  22277911.69648
  -9534579.63948  -7429539.18246         0.00041  21904574.27746  21904570.73648
   1886490.97449   1469992.37946         0.00041  21225017.86146  21225014.73049
  -3441828.68448  -2681942.36046         0.00041  21538639.91246  21538637.67348
   4594018.06949   3579751.30546         0.00041  21131183.02446  21131179.88549
  -8942265.24749  -6967995.73946         0.00041  20671206.73246  20671205.78049
  -2493825.73349  -1943240.03647         0.00041  20622051.45347  20622050.37249
 03 06 30 16 25 00.0000000  0  7 23 15 17 26 18 21 06
 -12198611.11748  -9505403.96046         0.00041  22265755.73946  22265751.60948
  -9594552.71348  -7476271.42946         0.00041  21893161.65846  21893157.74148
   1912056.18149   1489913.29446         0.00041  21229882.32346  21229879.01949
  -3418897.65748  -2664074.04246         0.00041  21543003.05746  21543000.84748
  -8974567.07549  -6993165.99646         0.00041  20665059.83546  20665058.18149
  -2496691.26349  -1945472.93047         0.00041  20621506.53847  20621505.14149
   4660012.44949   3631175.45146         0.00041  21143741.29346  21143738.13049
 03 06 30 16 25 30.0000000  0  7 23 15 17 26 06 18 21
 -12262123.36548  -9554893.99346         0.00041  22253669.81146  22253665.69948
  -9654360.48748  -7522874.89846         0.00041  21881779.47646  21881776.28248
   1937865.24349   1510024.23346         0.00041  21234793.40846  21234790.72349
  -3395252.64848  -2645649.36746         0.00041  21547502.47346  21547500.21748
   4726498.72349   3682982.87946         0.00041  21156393.36846  21156390.10349
  -9006394.34549  -7017966.46946         0.00041  20659003.54646  20659001.98449
  -2499286.40549  -1947495.12846         0.00041  20621012.22146  20621011.46149
 03 06 30 16 26 00.0000000  0  7 23 15 17 18 21 26 06
 -12325217.00648  -9604057.84146         0.00041  22241663.32446  22241659.37448
  -9713975.49848  -7569328.14446         0.00041  21870436.06346  21870432.14348
   1963947.01149   1530347.67346         0.00041  21239757.54446  21239754.40849
  -9037720.68149  -7042376.59746         0.00041  20653042.07046  20653040.27749
  -2501583.47149  -1949285.05646         0.00041  20620575.43346  20620574.47749
  -3370867.10648  -2626647.65046         0.00041  21552143.47146  21552141.05848
   4793502.63349   3735193.65046         0.00041  21169143.95246  21169140.78349
 03 06 30 16 26 30.0000000  0  7 23 15 17 26 06 18 21
 -12387966.70348  -9652953.68146         0.00041  22229722.76746  22229718.52348
  -9773472.28448  -7615689.26346         0.00041  21859113.99946  21859110.66848
   1990225.85649   1550824.66246         0.00041  21244758.45746  21244754.76049
  -3345816.94148  -2607128.04746         0.00041  21556909.75446  21556907.70548
   4860947.69649   3787748.19046         0.00041  21181978.37646  21181975.23549
  -9068621.29049  -7066454.99146         0.00041  20647162.02146  20647160.31849
  -2503656.10349  -1950900.10546         0.00041  20620181.14546  20620179.75049
 03 06 30 16 27 00.0000000  0  7 23 15 17 18 21 26 06
 -12450426.01848  -9701623.25346         0.00041  22217837.08546  22217832.58848
  -9832904.57648  -7662000.13446         0.00041  21847804.74546  21847800.57848
   2016649.48849   1571414.48346         0.00041  21249786.08046  21249783.00549
  -9099150.53149  -7090244.00146         0.00041  20641352.55846  20641350.75149
  -2505558.65449  -1952382.63046         0.00041  20619818.63346  20619817.54849
  -3320156.94048  -2587133.25446         0.00041  21561792.94246  21561790.68248
   4928778.38649   3840603.22246         0.00041  21194886.10646  21194882.93449
 03 06 30 16 27 30.0000000  0  7 23 15 17 26 06 18 21
 -12512577.63848  -9750053.05746         0.00041  22206009.91846  22206005.58748
  -9892254.81848  -7708247.06146         0.00041  21836510.05746  21836506.94248
   2043234.49449   1592130.04846         0.00041  21254844.92546  21254841.75649
  -3293870.89648  -2566650.61646         0.00041  21566794.80946  21566793.14848
   4997010.06749   3893770.70246         0.00041  21207869.90346  21207866.75949
  -9129291.60549  -7113730.54746         0.00041  20635616.95046  20635615.25149
  -2507273.41949  -1953718.82046         0.00041  20619492.45246  20619491.46949
 03 06 30 16 28 00.0000000  0  7 23 15 17 26 18 21 06
 -12574390.95548  -9798219.26346         0.00041  22194247.01246  22194243.11848
  -9951492.22348  -7754406.02546         0.00041  21825238.14646  21825234.62248
   2070011.44149   1612995.18846         0.00041  21259940.52646  21259937.09349
  -3266929.39648  -2545657.26546         0.00041  21571921.78246  21571919.63948
  -9159014.33949  -7136891.12146         0.00041  20629961.00146  20629959.14349
  -2508769.21749  -1954884.37946         0.00041  20619207.88546  20619206.50049
   5065671.74449   3947273.24546         0.00041  21220936.00746  21220932.78549
 03 06 30 16 28 30.0000000  0  7 23 15 17 26 06 18 21
 -12635895.64148  -9846144.96746         0.00041  22182542.69946  22182538.86048
 -10010646.18348  -7800499.99746         0.00041  21813979.64446  21813977.45248
   2096951.95749   1633987.76346         0.00041  21265067.31346  21265064.09749
  -3239363.25948  -2524177.16646         0.00041  21577167.31346  21577165.29948
   5134731.88549   4001086.28146         0.00041  21234078.01246  21234074.85849
  -9188349.56149  -7159749.74346         0.00041  20624378.39846  20624376.80649
  -2510075.74249  -1955902.46146         0.00041  20618959.26246  20618958.13149
 03 06 30 16 29 00.0000000  0  7 23 15 17 26 18 21 06
 -12697058.59848  -9893804.37946         0.00041  22170904.01346  22170899.91948
 -10069683.11249  -7846502.75546         0.00041  21802746.66746  21802743.44849
   2124087.38749   1655132.24646         0.00041  21270231.34846  21270227.67849
  -3211140.34348  -2502185.28746         0.00041  21582537.69746  21582535.75448
  -9217264.28649  -7182280.69046         0.00041  20618876.64346  20618874.67249
  -2511159.45649  -1956746.91746         0.00041  20618752.61746  20618752.03049
   5204222.04149   4055234.40046         0.00041  21247301.48046  21247298.45349
 03 06 30 16 29 30.0000000  0  7 23 15 17 26 18 21 06
 -12757870.50948  -9941190.25946         0.00041  22159332.03446  22159327.53548
 -10128593.82248  -7892407.15046         0.00041  21791535.70346  21791532.61148
   2151428.31249   1676436.85946         0.00041  21275434.48146  21275430.35649
  -3182252.80648  -2479675.53046         0.00041  21588034.88446  21588032.69848
  -9245750.00249  -7204477.34146         0.00041  20613455.85546  20613453.67749
  -2512010.89549  -1957410.38346         0.00041  20618591.16646  20618590.15149
   5274149.50349   4109723.27346         0.00041  21260608.13746  21260605.16449
 03 06 30 16 30 00.0000000  0  7 23 15 17 18 21 26 06
 -12818344.50948  -9988312.82746         0.00041  22147823.80746  22147819.38748
 -10187391.23748  -7938223.28946         0.00041  21780347.75846  21780344.12848
   2178961.92449   1697891.60346         0.00041  21280673.95546  21280669.91849
  -9273820.60049  -7226350.52546         0.00041  20608114.17046  20608112.25249
  -2512643.08749  -1957903.01446         0.00041  20618470.79746  20618469.80249
  -3152715.09248  -2456659.14746         0.00041  21593655.85046  21593653.54848
   5344499.26749   4164541.21446         0.00041  21273995.13246  21273992.28049
 03 06 30 16 30 30.0000000  0  7 23 15 17 26 18 21 06
 -12878555.55648 -10035230.50146         0.00041  22136365.84046  22136362.64848
 -10246150.11349  -7984009.39046         0.00041  21769165.82846  21769163.13949
   2206613.89149   1719438.55846         0.00041  21285935.56846  21285932.21249
  -3122603.50148  -2433195.58146         0.00041  21599386.37046  21599383.45248
  -9301551.95749  -7247959.36546         0.00041  20602836.80546  20602835.11949
  -2513130.59149  -1958282.90146         0.00041  20618378.08146  20618377.01049
   5415194.53849   4219628.37746         0.00041  21287448.40846  21287445.11549
 03 06 30 16 31 00.0000000  0  7 23 15 17 18 21 26 06
 -12938459.02648 -10081908.50746         0.00041  22124965.95546  22124962.82548
 -10304825.58148  -8029730.52446         0.00041  21758000.92446  21757997.14648
   2234428.17149   1741111.99446         0.00041  21291228.06746  21291224.76049
  -9328899.84849  -7269269.40946         0.00041  20597632.12646  20597630.81249
  -2513428.65749  -1958515.16546         0.00041  20618321.42646  20618320.09749
  -3091874.60248  -2409251.01146         0.00041  21605233.04046  21605231.44648
   5486277.95649   4275017.99146         0.00041  21300975.25246  21300971.91749
 03 06 30 16 31 30.0000000  0  7 23 15 17 26 18 21 06
 -12998057.45248 -10128348.82146         0.00041  22113625.31146  22113620.74948
 -10363419.68748  -8075388.24946         0.00041  21746850.33046  21746846.55448
   2262399.42149   1762907.74646         0.00041  21296551.00146  21296547.55849
  -3060532.08548  -2384828.27846         0.00041  21611197.66946  21611196.05548
  -9355867.29749  -7290283.00546         0.00041  20592500.74246  20592499.19749
  -2513539.27149  -1958601.36646         0.00041  20618300.57346  20618299.49149
   5557745.35849   4330706.81446         0.00041  21314574.81846  21314571.34149
 03 06 30 16 32 00.0000000  0  7 23 15 17 18 21 26 06
 -13057303.53048 -10174514.56146         0.00041  22102351.08946  22102347.37148
 -10421884.79848  -8120945.48746         0.00041  21735724.88546  21735721.99848
   2290579.39149   1784866.14946         0.00041  21301913.39646  21301910.18249
  -9382407.68549  -7310963.82346         0.00041  20587450.33246  20587449.04149
  -2513414.70049  -1958504.30246         0.00041  20618324.11546  20618322.71749
  -3028529.93448  -2359891.53646         0.00041  21617288.57946  21617285.71248
   5629642.32349   4386730.35646         0.00041  21328256.55346  21328252.91349
 03 06 30 16 32 30.0000000  0  7 23 15 17 26 18 21 06
 -13116149.08748 -10220368.20946         0.00041  22091153.66946  22091149.55148
 -10480172.46048  -8166364.42946         0.00041  21724633.39346  21724629.43848
   2319017.54349   1807025.72346         0.00041  21307325.20546  21307321.59249
  -2995821.44948  -2334404.40846         0.00041  21623512.27646  21623509.70948
  -9408473.84049  -7331275.10246         0.00041  20582490.32146  20582488.48449
  -2513006.50649  -1958186.23646         0.00041  20618401.57546  20618400.55149
   5702014.84949   4443124.47646         0.00041  21342028.61946  21342025.40949
 03 06 30 16 33 00.0000000  0  7 23 15 17 18 21 26 06
 -13174541.48548 -10265868.76046         0.00041  22080041.14846  22080037.28448
 -10538229.55748  -8211603.73746         0.00041  21713585.53046  21713582.26948
   2347765.44648   1829426.65246         0.00041  21312795.42046  21312792.06048
  -9434013.78549  -7351176.34446         0.00041  20577630.22746  20577628.57349
  -2512261.69749  -1957605.87346         0.00041  20618543.40646  20618542.47449
  -2962355.22748  -2308326.83946         0.00041  21629880.95646  21629877.92548
   5774913.98149   4499928.92746         0.00041  21355900.80646  21355897.64549
 03 06 30 16 33 30.0000000  0  7 23 15 17 26 18 21 06
 -13232574.77248 -10311089.45246         0.00041  22068997.90546  22068994.23848
 -10596150.08848  -8256736.62746         0.00041  21702563.53746  21702560.20548
   2376728.08149   1851994.92446         0.00041  21318307.37546  21318303.69649
  -2928226.92748  -2281733.37546         0.00041  21636375.80346  21636372.53548
  -9459122.11949  -7370741.27446         0.00041  20572851.97246  20572850.23149
  -2511274.00349  -1956836.24946         0.00041  20618731.16346  20618730.10449
   5848243.53749   4557068.77346         0.00041  21369854.78146  21369851.58149
 03 06 30 16 34 00.0000000  0  7 23 15 17 18 21 26 06
 -13290298.08048 -10356068.64746         0.00041  22058014.04346  22058010.18148
 -10653982.57248  -8301800.89646         0.00041  21691557.95246  21691553.93048
   2405856.37849   1874692.28846         0.00041  21323850.37646  21323846.85449
  -9483848.70149  -7390008.73846         0.00041  20568146.76246  20568145.10349
  -2510091.97949  -1955915.20246         0.00041  20618955.80146  20618955.16149
  -2893486.98048  -2254663.30946         0.00041  21642986.40646  21642983.22948
   5921952.75149   4614504.45946         0.00041  21383881.60046  21383878.34749
 03 06 30 16 34 30.0000000  0  7 23 15 17 26 18 21 06
 -13347710.16848 -10400805.31246         0.00041  22047089.24646  22047084.69948
 -10711725.48548  -8346795.36146         0.00041  21680569.92546  21680566.95448
   2435152.60849   1897520.48546         0.00041  21329425.02646  21329421.61849
  -2858135.37248  -2227116.60046         0.00041  21649713.17746  21649710.68048
  -9508192.93849  -7408978.26646         0.00041  20563514.03746  20563512.97849
  -2508713.98449  -1954841.45046         0.00041  20619218.58046  20619217.65749
   5996041.07949   4672235.56046         0.00041  21397980.60546  21397977.44249
 03 06 30 16 35 00.0000000  0  7 23 15 18 21 17 26 06
 -13404795.82348 -10445287.61646         0.00041  22036225.55146  22036222.01348
 -10769363.16148  -8391707.82946         0.00041  21669601.77346  21669598.29948
  -9532140.33749  -7427638.56747         0.00041  20558957.11547  20558956.12549
  -2507124.41549  -1953602.83846         0.00041  20619521.38946  20619520.11649
   2464630.37349   1920490.13646         0.00041  21335034.48846  21335031.16149
  -2822158.37948  -2199082.59346         0.00041  21656559.27246  21656556.93048
   6070521.80249   4730272.42046         0.00041  21412153.50946  21412150.11549
 03 06 30 16 35 30.0000000  0  7 23 15 17 26 18 21 06
 -13461580.75748 -10489535.58946         0.00041  22025419.89446  22025416.29748
 -10826920.92349  -8436558.01446         0.00041  21658648.71046  21658645.30049
   2494265.81949   1943582.67446         0.00041  21340674.23646  21340670.61749
  -2785583.22248  -2170582.48346         0.00041  21663519.94046  21663516.97948
  -9555717.13349  -7446010.08847         0.00041  20554470.41847  20554468.97449
  -2505348.21449  -1952218.79846         0.00041  20619858.82646  20619857.81949
   6145367.41049   4788593.61446         0.00041  21426396.06646  21426392.78349
 03 06 30 16 36 00.0000000  0  7 23 15 18 21 17 26 06
 -13518003.95648 -10533501.69446         0.00041  22014682.89746  22014678.44548
 -10884337.26449  -8481298.00846         0.00041  21647723.14346  21647719.92749
  -9578862.78849  -7464045.66646         0.00041  20550066.09346  20550064.49249
  -2503324.49149  -1950641.88046         0.00041  20620244.49846  20620243.40149
   2524123.44948   1966848.34746         0.00041  21346356.12646  21346351.75348
  -2748350.13748  -2141569.70046         0.00041  21670605.60246  21670602.70648
   6220637.10249   4847245.24946         0.00041  21440719.67846  21440716.30849
 03 06 30 16 36 30.0000000  0  7 23 15 17 26 18 21 06
 -13574087.85848 -10577203.42346         0.00041  22004009.53746  22004006.20048
 -10941633.78949  -8525944.62446         0.00041  21636819.23646  21636816.43049
   2554175.07349   1990265.15846         0.00041  21352074.67646  21352071.13749
  -2710483.10148  -2112062.93746         0.00041  21677811.28146  21677807.67848
  -9601600.60449  -7481763.45046         0.00041  20545739.20846  20545737.43849
  -2501075.10349  -1948889.12646         0.00041  20620672.40646  20620671.25349
   6296306.64048   4906208.45946         0.00041  21455119.51146  21455115.33648
 03 06 30 16 37 00.0000000  0  7 23 15 18 21 17 26 06
 -13629829.77748 -10620638.65146         0.00041  21993402.90246  21993399.75248
 -10998807.47149  -8570495.53446         0.00041  21625939.63946  21625936.34349
  -9623928.57949  -7499161.87247         0.00041  20541490.33947  20541488.84149
  -2498596.48649  -1946957.75746         0.00041  20621143.66946  20621142.73649
   2584426.05349   2013837.31346         0.00041  21357831.13146  21357827.99649
  -2671980.90848  -2082061.23446         0.00041  21685137.94746  21685133.91448
   6372376.84649   4965483.87146         0.00041  21469595.10946  21469591.47949
 03 06 30 16 37 30.0000000  0  7 23 15 17 26 18 21 06
 -13685258.50248 -10663829.83546         0.00041  21982855.42246  21982851.83448
 -11055886.40849  -8614972.59146         0.00041  21615077.81746  21615074.62449
   2614850.98749   2037545.03146         0.00041  21363620.57246  21363617.40649
  -2632873.52348  -2051587.96546         0.00041  21692580.14346  21692576.81248
  -9645876.10249  -7516263.83647         0.00041  20537314.10747  20537312.58949
  -2495916.80849  -1944869.70346         0.00041  20621653.77446  20621652.96749
   6448817.07349   5025047.61346         0.00041  21484141.24146  21484138.23349
 03 06 30 16 38 00.0000000  0  7 23 15 18 21 17 26 06
 -13740320.07048 -10706734.94546         0.00041  21972377.44946  21972374.10048
 -11112816.20149  -8659333.45046         0.00041  21604244.96946  21604241.71449
  -9667389.66749  -7533027.64747         0.00041  20533220.18247  20533218.71949
  -2492982.09749  -1942582.92746         0.00041  20622212.56146  20622211.37649
   2645502.78348   2061429.52746         0.00041  21369454.06846  21369449.95548
  -2593108.82148  -2020602.48946         0.00041  21700147.12846  21700143.09748
   6525679.44049   5084940.29746         0.00041  21498767.60046  21498764.13649
 03 06 30 16 38 30.0000000  0  7 23 15 17 26 18 21 06
 -13795045.25848 -10749377.92246         0.00041  21961963.27346  21961960.05848
 -11169627.25349  -8703601.77346         0.00041  21593434.07046  21593430.30649
   2676350.55148   2085466.71246         0.00041  21375323.61146  21375319.91848
  -2552719.06948  -1989129.96546         0.00041  21707832.47646  21707829.28848
  -9688500.97249  -7549478.00847         0.00041  20529203.09347  20529201.62249
  -2489822.24449  -1940120.71846         0.00041  20622813.37846  20622812.22449
   6602931.25149   5145136.44446         0.00041  21513467.95646  21513464.76749
 03 06 30 16 39 00.0000000  0  7 23 15 18 21 17 26 06
 -13849418.72048 -10791746.82246         0.00041  21951615.70046  21951612.32648
 -11226303.34749  -8747764.93646         0.00041  21582649.25846  21582646.04349
  -9709195.23449  -7565603.40547         0.00041  20525264.92347  20525263.35749
  -2486421.33649  -1937470.66046         0.00041  20623460.70246  20623459.63649
   2707411.26548   2109669.84046         0.00041  21381233.62746  21381231.06648
  -2511690.35648  -1957159.57346         0.00041  21715639.40246  21715636.68648
   6680586.09949   5205646.63846         0.00041  21528245.47946  21528242.26249
 03 06 30 16 39 30.0000000  0  7 23 15 17 26 18 21 06
 -13903455.49948 -10833853.37546         0.00041  21941333.55246  21941329.31648
 -11282859.09149  -8791834.32546         0.00041  21571886.57546  21571883.51349
   2738670.03749   2134027.30346         0.00041  21387182.61646  21387179.78349
  -2470039.48948  -1924704.35546         0.00041  21723565.73946  21723562.89048
  -9729488.37349  -7581416.23947         0.00041  20521403.17447  20521401.79549
  -2482793.75749  -1934643.97446         0.00041  20624151.38146  20624149.80349
   6758626.96149   5266457.62046         0.00041  21543095.94246  21543092.39549
 03 06 30 16 40 00.0000000  0  7 23 15 18 21 17 26 06
 -13957108.15348 -10875660.61446         0.00041  21931123.81746  21931119.91648
 -11339246.55948  -8835772.59646         0.00041  21561156.37646  21561152.72348
  -9749333.36349  -7596879.87047         0.00041  20517626.88547  20517625.53149
  -2478891.67349  -1931603.40146         0.00041  20624893.66146  20624892.64949
   2770173.36349   2158575.31746         0.00041  21393178.34146  21393174.49249
  -2427720.43448  -1891728.47146         0.00041  21731619.15746  21731616.46848
   6837099.38849   5327604.89146         0.00041  21558029.73546  21558025.34949
 03 06 30 16 40 30.0000000  0  7 23 15 17 26 18 21 06
 -14010370.88048 -10917164.00746         0.00041  21920988.35946  21920985.09348
 -11395459.25248  -8879574.69746         0.00041  21550459.56046  21550456.43048
   2801926.70348   2183318.14146         0.00041  21399220.62046  21399216.48248
  -2384729.02048  -1858228.68846         0.00041  21739799.25746  21739797.57548
  -9768725.33549  -7611990.50347         0.00041  20513936.63947  20513935.17049
  -2474708.70249  -1928343.95846         0.00041  20625689.41746  20625688.69049
   6916007.41149   5389091.58746         0.00041  21573044.86946  21573041.69649
 03 06 30 16 41 00.0000000  0  7 23 15 18 21 17 26 06
 -14063269.61348 -10958383.75946         0.00041  21910922.12746  21910918.92448
 -11451522.26048  -8923260.13446         0.00041  21539791.11346  21539787.59848
  -9787690.74149  -7626768.74247         0.00041  20510327.52147  20510326.10649
  -2470269.89749  -1924885.17046         0.00041  20626534.34146  20626533.15749
   2833906.27348   2208237.27246         0.00041  21405305.50146  21405302.19248
  -2341092.79248  -1824226.44546         0.00041  21748104.04546  21748100.69548
   6995323.09848   5450895.95046         0.00041  21588137.80846  21588134.03648
 03 06 30 16 41 30.0000000  0  7 23 15 17 18 21 26 06
 -14115854.74848 -10999359.16146         0.00041  21900915.44246  21900912.24548
 -11507485.19648  -8966867.61646         0.00041  21529141.68846  21529138.44748
   2866061.45149   2233293.22646         0.00041  21411424.88246  21411421.51449
  -9806280.55349  -7641254.30647         0.00041  20506790.05347  20506788.75549
  -2465625.20249  -1921265.94646         0.00041  20627418.51946  20627417.31049
  -2296863.51348  -1789762.08646         0.00041  21756520.79646  21756516.69148
   7074994.23949   5512977.28946         0.00041  21603299.22846  21603295.81949
 03 06 30 16 42 00.0000000  0  7 23 15 18 21 17 26 06
 -14168110.34748 -11040077.79146         0.00041  21890971.27546  21890968.11148
 -11563331.58048  -9010384.26646         0.00041  21518514.32346  21518510.53648
  -9824479.47849  -7655435.28747         0.00041  20503326.66047  20503325.93749
  -2460758.15149  -1917473.44946         0.00041  20628344.82646  20628343.55749
   2898411.23048   2258500.80346         0.00041  21417580.68046  21417577.17348
  -2252027.01948  -1754824.57546         0.00041  21765051.59846  21765048.92248
   7155035.09649   5575346.70546         0.00041  21618530.89446  21618527.71949
 03 06 30 16 42 30.0000000  0  7 23 15 17 18 21 26 06
 -14220070.88148 -11080566.50146         0.00041  21881083.48646  21881080.07448
 -11619095.31148  -9053836.50946         0.00041  21507903.18046  21507899.80448
   2930919.74148   2283832.07346         0.00041  21423767.36346  21423763.34548
  -9842322.70149  -7669339.09447         0.00041  20499931.08247  20499930.18749
  -2455702.26549  -1913533.81446         0.00041  20629306.49946  20629305.50649
  -2206619.38648  -1719442.01446         0.00041  21773692.96146  21773690.19748
   7235409.12549   5637975.73946         0.00041  21633825.28346  21633821.56749
 03 06 30 16 43 00.0000000  0  7 23 15 18 21 17 26 06
 -14271691.17248 -11120790.09746         0.00041  21871260.25846  21871257.00948
 -11674730.30348  -9097188.44046         0.00041  21497316.33746  21497313.27048
  -9859765.78949  -7682931.10847         0.00041  20496612.21847  20496610.53149
  -2450411.79249  -1909411.38146         0.00041  20630313.20046  20630312.42349
   2963632.07648   2309322.17346         0.00041  21429991.82646  21429988.43248
  -2160597.18048  -1683580.55346         0.00041  21782450.06946  21782447.89748
   7316159.55249   5700898.06846         0.00041  21649191.88346  21649188.27049
 03 06 30 16 43 30.0000000  0  7 23 15 17 18 21 26 06
 -14322974.36948 -11160751.00946         0.00041  21861500.85046  21861497.51448
 -11730238.81048  -9140441.80946         0.00041  21486753.09546  21486749.90248
   2996545.21448   2334968.74446         0.00041  21436255.30146  21436251.66948
  -9876812.60249  -7696214.34347         0.00041  20493368.29447  20493366.44649
  -2444889.47949  -1905108.29646         0.00041  20631364.26146  20631363.01649
  -2113965.21748  -1647243.97546         0.00041  21791324.20146  21791321.75448
   7397281.53449   5764109.91446         0.00041  21664628.86846  21664625.68149
 03 06 30 16 44 00.0000000  0  7 23 15 18 21 17 26 06
 -14374118.34248 -11200603.43946         0.00041  21851768.87846  21851765.66748
 -11785817.96648  -9183750.24646         0.00041  21476176.89546  21476173.88048
  -9893661.37549  -7709343.26947         0.00041  20490162.15847  20490160.66149
  -2439332.20449  -1900777.95946         0.00041  20632421.94646  20632420.57849
   3029462.09348   2360618.23746         0.00041  21442519.61246  21442515.59748
  -2066922.93548  -1610587.65746         0.00041  21800276.18946  21800274.02348
   7478575.39048   5827455.69046         0.00041  21680098.65646  21680094.79348
 03 06 30 16 44 30.0000000  0  7 23 15 17 18 21 26 06
 -14424702.69548 -11240019.80046         0.00041  21842143.18246  21842139.61648
 -11841046.77648  -9226785.66046         0.00041  21465666.38946  21465663.77048
   3062804.05348   2386598.95446         0.00041  21448864.18546  21448860.00048
  -9909892.69149  -7721991.05347         0.00041  20487073.32847  20487071.91349
  -2433318.65649  -1896092.08246         0.00041  20633566.08846  20633564.83849
  -2019051.68348  -1573285.39046         0.00041  21809385.22546  21809383.42448
   7560459.69648   5891261.56446         0.00041  21695681.07446  21695676.84148
 03 06 30 16 45 00.0000000  0  7 23 15 18 21 17 26 06
 -14475015.23848 -11279224.35746         0.00041  21832569.04746  21832565.41248
 -11896212.20748  -9269771.70746         0.00041  21455169.38946  21455165.81248
  -9925794.94249  -7734382.41447         0.00041  20484047.29147  20484045.88549
  -2427136.37949  -1891274.72846         0.00041  20634742.75946  20634741.61349
   3096283.32048   2412686.66646         0.00041  21455234.25146  21455231.42948
  -1970640.89048  -1535562.71846         0.00041  21818597.61246  21818595.85248
   7642644.76049   5955301.77946         0.00041  21711319.96946  21711316.79949
 03 06 30 16 45 30.0000000  0  6 23 15 18 21 17 26
 -14524986.63348 -11318163.08446         0.00041  21823059.97046  21823056.24948
 -11951243.86148  -9312653.49846         0.00041  21444697.17946  21444693.90348
  -9941299.16249  -7746463.62047         0.00041  20481097.06347  20481095.33249
  -2420714.85549  -1886270.96046         0.00041  20635964.76946  20635963.51549
   3129972.33448   2438937.82346         0.00041  21461644.67146  21461641.71648
  -1921622.90948  -1497366.91546         0.00041  21827926.60246  21827923.44148
 03 06 30 16 46 00.0000000  0  7 23 15 18 21 17 26 14
 -14574612.60148 -11356832.64646         0.00041  21813616.76046  21813612.09348
 -12006136.57949  -9355427.03246         0.00041  21434251.80346  21434249.01849
  -9956401.89849  -7758231.98647         0.00041  20478222.88547  20478221.09449
  -2414049.21449  -1881076.96746         0.00041  20637232.89146  20637231.79549
   3163874.81249   2465355.30746         0.00041  21468096.62146  21468094.02749
  -1871995.23348  -1458696.02946         0.00041  21837370.29946  21837367.22948
        -0.16758        -0.13054         0.00051  25283795.41454  25283795.41458
 03 06 30 16 46 30.0000000  0  7 23 15 18 21 17 26 14
 -14623880.39548 -11395223.11446         0.00041  21804241.39746  21804236.77948
 -12060876.81648  -9398081.74746         0.00041  21423835.46046  21423831.43748
  -9971091.09349  -7769678.11547         0.00041  20475427.10147  20475425.61749
  -2407126.01149  -1875682.27546         0.00041  20638550.48446  20638549.31149
   3198004.29049   2491949.66046         0.00041  21474591.84546  21474588.66549
  -1821746.82748  -1419541.44746         0.00041  21846932.57046  21846929.32448
   -112514.11248    -87673.33444         0.00041  25262380.42244  25262380.42248
 03 06 30 16 47 00.0000000  0  7 23 15 18 21 17 26 14
 -14672821.44748 -11433358.99046         0.00041  21794927.81246  21794924.66848
 -12115494.99949  -9440641.36746         0.00041  21413441.56946  21413438.34149
  -9985398.59549  -7780826.81847         0.00041  20472705.14447  20472703.73249
  -2399975.55749  -1870110.51146         0.00041  20639911.19946  20639910.04949
   3232329.01048   2518696.15246         0.00041  21481123.37646  21481119.73448
  -1770910.69048  -1379928.88246         0.00041  21856606.20446  21856603.30248
   -225116.28548   -175414.19544         0.00041  25240952.71044  25240952.71048
 03 06 30 16 47 30.0000000  0  7 23 15 17 18 21 26 14
 -14721424.56248 -11471231.52046         0.00041  21785679.09146  21785675.92748
 -12169978.89148  -9483096.32846         0.00041  21403073.23746  21403069.77648
   3266860.54748   2545603.82246         0.00041  21487694.46946  21487691.17048
  -9999313.84749  -7791669.87547         0.00041  20470057.31347  20470055.58949
  -2392585.88549  -1864352.34346         0.00041  20641317.11946  20641316.48849
  -1719477.49648  -1339851.09146         0.00041  21866393.23046  21866390.84748
   -337792.82448   -263213.91544         0.00041  25219511.00544  25219511.00548
 03 06 30 16 48 00.0000000  0  7 23 15 18 21 17 26 14
 -14769669.61848 -11508825.06346         0.00041  21776498.03846  21776494.70148
 -12224307.36948  -9525430.19846         0.00041  21392734.93946  21392731.74148
 -10012817.45349  -7802192.17247         0.00041  20467487.44247  20467485.94949
  -2384936.03149  -1858391.43146         0.00041  20642772.98046  20642772.00349
   3301620.09049   2572689.15946         0.00041  21494309.22746  21494306.08949
  -1667428.83748  -1299293.70546         0.00041  21876297.60846  21876295.51348
   -450521.00448   -351055.32844         0.00041  25198061.16544  25198061.16548
 03 06 30 16 48 30.0000000  0  7 23 15 17 18 21 26 14
 -14817535.64348 -11546123.25746         0.00041  21767389.22246  21767385.92948
 -12278458.67148  -9567626.00646         0.00041  21382430.25246  21382426.49848
   3336629.48448   2599969.17546         0.00041  21500971.09646  21500967.87848
 -10025889.18449  -7812377.93347         0.00041  20464999.97847  20464998.00049
  -2377004.21949  -1852210.81046         0.00041  20644282.37246  20644281.27549
  -1614745.54748  -1258241.79746         0.00041  21886322.45446  21886320.61648
   -563277.44848   -438915.66544         0.00041  25176604.85744  25176604.85748
 03 06 30 16 49 00.0000000  0  7 23 15 18 21 17 26 14
 -14865017.02249 -11583121.70946         0.00041  21758354.24546  21758351.04149
 -12332426.58048  -9609678.91846         0.00041  21372160.86046  21372156.17648
 -10038524.05349  -7822223.29047         0.00041  20462595.30147  20462593.92049
  -2368784.22449  -1845805.63446         0.00041  20645846.51346  20645845.66149
   3371894.73348   2627448.54846         0.00041  21507682.10246  21507678.76348
  -1561423.80448  -1216692.41346         0.00041  21896469.01746  21896466.95148
   -676053.99348   -526793.16844         0.00041  25155150.22544  25155144.10948
 03 06 30 16 49 30.0000000  0  7 23 15 17 18 21 26 14
 -14912147.78448 -11619846.96246         0.00041  21749385.64446  21749381.93248
 -12386243.91948  -9651614.49846         0.00041  21361919.63746  21361915.66548
   3407383.40148   2655102.02146         0.00041  21514435.12946  21514432.07648
 -10050756.81149  -7831755.31247         0.00041  20460267.63547  20460266.14149
  -2360309.33649  -1839201.83646         0.00041  20647459.36346  20647458.37349
  -1507499.56248  -1174673.55446         0.00041  21906731.20946  21906728.05648
   -788881.93448   -614710.80444         0.00041  25133672.49344  25133672.49348
 03 06 30 16 50 00.0000000  0  7 23 15 18 21 17 26 14
 -14958932.67949 -11656302.71046         0.00041  21740482.61546  21740479.45949
 -12439914.40649  -9693435.64046         0.00041  21351706.84346  21351703.43449
 -10062592.80649  -7840978.17647         0.00041  20458015.40847  20458013.72549
  -2351583.14249  -1832402.21646         0.00041  20649119.99046  20649118.74549
   3443093.52648   2682928.07346         0.00041  21521231.00246  21521227.02048
  -1452979.45848  -1132190.38246         0.00041  21917106.15446  21917102.68448
   -901763.41848   -702672.79444         0.00041  25112190.74844  25112190.74848
 03 06 30 16 50 30.0000000  0  7 23 15 18 21 17 26 14
 -15005407.35149 -11692516.72346         0.00041  21731638.63746  21731635.42049
 -12493472.65449  -9735169.32846         0.00041  21341515.20646  21341512.28249
 -10074068.36249  -7849920.17947         0.00041  20455831.74447  20455829.58549
  -2342640.69749  -1825434.09246         0.00041  20650822.15546  20650820.65749
   3478985.55748   2710895.86246         0.00041  21528061.41446  21528057.01348
  -1397900.73948  -1089271.92346         0.00041  21927588.04346  21927584.57348
  -1014731.37548   -790696.77344         0.00041  25090694.24544  25090694.24548
 03 06 30 16 51 00.0000000  0  7 23 15 18 21 17 26 14
 -15051569.29349 -11728487.04946         0.00041  21722854.12346  21722851.05249
 -12546915.06549  -9776812.75946         0.00041  21331345.37246  21331342.29549
 -10085181.30849  -7858579.61947         0.00041  20453716.78147  20453714.96449
  -2333477.98449  -1818294.33346         0.00041  20652565.47846  20652564.39149
   3515063.81948   2739008.75546         0.00041  21534927.01646  21534923.26148
  -1342262.76248  -1045917.67546         0.00041  21938175.34746  21938172.10248
  -1127780.75248   -878786.89644         0.00041  25069182.32444  25069182.32448
 03 06 30 16 51 30.0000000  0  7 23 15 17 18 21 26 14
 -15097374.68549 -11764179.55346         0.00041  21714137.64846  21714134.30449
 -12600196.58549  -9818330.81746         0.00041  21321205.71746  21321202.03249
   3551374.50648   2767302.77146         0.00041  21541835.82346  21541832.52848
 -10095888.50349  -7866922.88647         0.00041  20451679.30847  20451678.19549
  -2324050.74649  -1810948.45146         0.00041  20654359.22346  20654358.07149
  -1286023.50348  -1002094.90246         0.00041  21948877.08346  21948873.63348
  -1240864.97648   -966904.12444         0.00041  25047661.99944  25047661.99948
 03 06 30 16 52 00.0000000  0  7 23 15 18 21 17 26 14
 -15142845.64949 -11799611.45146         0.00041  21705484.83846  21705481.31649
 -12653338.32249  -9859739.95146         0.00041  21311092.85546  21311089.20449
 -10106213.22849  -7874968.12947         0.00041  20449714.69847  20449713.16849
  -2314380.16249  -1803412.94646         0.00041  20656199.72546  20656198.36849
   3587895.60448   2795760.74346         0.00041  21548786.50746  21548781.68848
  -1229207.17448   -957822.47046         0.00041  21959688.82146  21959685.28948
  -1354003.36248  -1055067.55544         0.00041  25026130.77144  25026130.77148
 03 06 30 16 52 30.0000000  0  7 23 15 17 18 21 26 14
 -15188015.71749 -11834808.88946         0.00041  21696889.49246  21696885.94049
 -12706372.68749  -9901065.42746         0.00041  21301000.25046  21300997.05249
   3624595.06848   2824357.68946         0.00041  21555769.16846  21555765.82048
 -10116189.13349  -7882741.56547         0.00041  20447816.83047  20447815.19349
  -2304498.29449  -1795712.79146         0.00041  20658080.40646  20658079.12849
  -1171848.84548   -913127.69846         0.00041  21970603.61146  21970601.05948
  -1467226.81647  -1143293.62344         0.00041  25004584.28944  25004584.28947
 03 06 30 16 53 00.0000000  0  7 23 15 18 21 17 26 14
 -15232878.32249 -11869766.74646         0.00041  21688352.13546  21688348.88549
 -12759291.94949  -9942301.19646         0.00041  21290930.02146  21290927.49449
 -10125810.29049  -7890238.57147         0.00041  20445985.97047  20445984.28249
  -2294398.07549  -1787842.50246         0.00041  20660001.91746  20660000.88349
   3661479.46748   2853098.75546         0.00041  21562788.45346  21562784.71548
  -1113943.92148   -868007.00346         0.00041  21981623.13246  21981620.02948
  -1580525.96547  -1231574.11144         0.00041  24983024.21244  24983024.21247
 03 06 30 16 53 30.0000000  0  7 23 15 18 21 17 26 14
 -15277425.10049 -11904478.50546         0.00041  21679875.63446  21679871.93449
 -12812086.57549  -9983439.85246         0.00041  21280884.47746  21280881.75049
 -10135068.83349  -7897453.02447         0.00041  20444223.82047  20444222.14849
  -2284069.85549  -1779794.55546         0.00041  20661967.25146  20661966.31649
   3698557.96848   2881991.06146         0.00041  21569844.03546  21569840.69648
  -1055485.91348   -822455.32646         0.00041  21992746.54046  21992744.13048
  -1693889.92848  -1319914.23044         0.00041  24961453.26944  24961453.26948
 03 06 30 16 54 00.0000000  0  8 23 15 18 21 17 26 14 03
 -15321590.37949 -11938892.98346         0.00041  21671471.15946  21671467.43449
 -12864689.88349 -10024429.42446         0.00041  21270874.00446  21270870.82849
 -10143900.04249  -7904334.49947         0.00041  20442543.65147  20442541.42849
  -2273447.27849  -1771517.24546         0.00041  20663988.81546  20663987.67849
   3735897.55848   2911086.82246         0.00041  21576949.88046  21576946.72048
   -996411.09548   -776423.02946         0.00041  22003988.07446  22003985.74548
  -1807250.08148  -1408246.81644         0.00041  24939881.93644  24939881.93648
         0.22657         0.17654         0.00051  24151529.20954  24151529.20957
 03 06 30 16 54 30.0000000  0  8 23 15 18 21 17 26 14 03
 -15365410.14549 -11973038.23746         0.00041  21663131.59446  21663128.31849
 -12917136.36549 -10065296.80446         0.00041  21260893.68546  21260890.40949
 -10152340.37949  -7910911.39347         0.00041  20440937.64747  20440935.23449
  -2262565.43449  -1763037.90446         0.00041  20666059.93146  20666058.56449
   3773462.27148   2940357.99546         0.00041  21584097.90846  21584094.27548
   -936757.21748   -729939.50646         0.00041  22015340.06746  22015337.13748
  -1920639.32548  -1496602.07144         0.00041  24918304.37644  24918304.37648
    -94340.86447    -73511.40444         0.00041  24133580.28844  24133575.89647
 03 06 30 16 55 00.0000000  0  8 23 15 18 21 17 26 14 03
 -15408920.36849 -12006942.28446         0.00041  21654852.37746  21654848.67249
 -12969460.99149 -10106069.23346         0.00041  21250937.18446  21250932.68249
 -10160426.31749  -7917212.12747         0.00041  20439398.88347  20439397.13149
  -2251459.15349  -1754383.67546         0.00041  20668173.20646  20668172.05049
   3811217.80948   2969777.86246         0.00041  21591282.54946  21591279.27548
   -876562.19848   -683034.33246         0.00041  22026794.64746  22026792.47848
  -2034091.03048  -1585000.23144         0.00041  24896713.30944  24896713.30948
   -188488.75848   -146873.36044         0.00041  24115666.44944  24115661.11048
 03 06 30 16 55 30.0000000  0  8 23 15 18 21 17 26 14 03
 -15452076.50948 -12040570.43446         0.00041  21646640.25546  21646636.17848
 -13021617.97849 -10146711.04446         0.00041  21241011.14446  21241007.66949
 -10168114.20049  -7923202.68347         0.00041  20437935.36947  20437933.63349
  -2240082.61549  -1745518.85946         0.00041  20670338.36746  20670336.76349
   3849209.74448   2999381.91646         0.00041  21598511.82246  21598508.90748
   -815783.55848   -635674.37846         0.00041  22038361.46546  22038358.37348
  -2147557.94047  -1673415.73844         0.00041  24875120.42244  24875120.42247
   -282396.03648   -220047.78644         0.00041  24097798.92244  24097791.27348
 03 06 30 16 56 00.0000000  0  8 23 15 18 21 17 26 14 03
 -15494858.50849 -12073907.03746         0.00041  21638498.82546  21638495.39049
 -13073586.11349 -10187205.67346         0.00041  21231121.32246  21231119.11649
 -10175384.48349  -7928867.83647         0.00041  20436552.15047  20436550.84649
  -2228415.05549  -1736427.27046         0.00041  20672558.41246  20672556.78949
   3887457.74048   3029185.52446         0.00041  21605790.39246  21605787.20348
   -754403.03148   -587845.41946         0.00041  22050041.66346  22050038.49448
  -2261392.74947  -1762124.22044         0.00041  24853527.43644  24853527.43647
   -376039.78448   -293016.87544         0.00041  24079977.49244  24079971.84448
 03 06 30 16 56 30.0000000  0  8 23 15 18 21 17 26 14 03
 -15537289.55649 -12106970.16746         0.00041  21630424.50046  21630420.85249
 -13125387.22949 -10227570.16746         0.00041  21221264.26246  21221261.91049
 -10182260.83049  -7934226.02647         0.00041  20435243.53347  20435242.27149
  -2216478.62949  -1727126.17846         0.00041  20674829.65046  20674828.26849
   3925939.71848   3059171.45746         0.00041  21613113.61246  21613110.04748
   -692445.96348   -539567.21846         0.00041  22061831.23146  22061828.61148
  -2375614.64947  -1851128.29844         0.00041  24831935.20044  24831935.20047
   -469440.47248   -365796.56944         0.00041  24062204.05444  24062199.33148
 03 06 30 16 57 00.0000000  0  7 23 15 18 21 17 26 03
 -15579370.58349 -12139760.54546         0.00041  21622417.08646  21622413.21849
 -13177020.88649 -10267804.16446         0.00041  21211439.04346  21211436.84649
 -10188744.96649  -7939278.59447         0.00041  20434009.71247  20434008.43049
  -2204272.91649  -1717615.25546         0.00041  20677152.28746  20677151.26149
   3964654.34448   3089338.66146         0.00041  21620480.99846  21620476.93348
   -629915.03948   -490841.86246         0.00041  22073730.70546  22073727.65848
   -562596.38648   -438385.53144         0.00041  24044476.69144  24044472.36248
 03 06 30 16 57 30.0000000  0  8 23 15 18 21 17 26 14 03
 -15621179.69849 -12172339.06246         0.00041  21614460.82446  21614457.52149
 -13228563.94049 -10307967.56046         0.00041  21201631.36046  21201628.20649
 -10194915.26149  -7944086.61247         0.00041  20432835.61747  20432834.29349
  -2191875.05849  -1707954.60746         0.00041  20679511.57046  20679510.61849
   4003525.65248   3119627.95746         0.00041  21627877.68946  21627874.26948
   -566890.22748   -441731.65846         0.00041  22085723.01246  22085721.00248
        -0.55758        -0.43454         0.00051  24788732.10854  24788732.10858
   -655582.55948   -510842.22544         0.00041  24026785.32344  24026777.78948
 03 06 30 16 58 00.0000000  0  8 23 15 18 21 17 26 14 03
 -15662638.59649 -12204644.68346         0.00041  21606571.59446  21606567.87549
 -13279936.64348 -10347998.23246         0.00041  21191855.47046  21191851.61448
 -10200694.27549  -7948589.74147         0.00041  20431736.08147  20431734.39749
  -2179205.64349  -1698082.35246         0.00041  20681922.64746  20681921.64549
   4042634.35248   3150102.23046         0.00041  21635320.38746  21635316.83248
   -503295.21848   -392177.13246         0.00041  22097825.37646  22097822.47148
   -113573.29848    -88498.67444         0.00041  24767118.51444  24767118.51448
   -748317.86747   -583103.42844         0.00041  24009130.42844  24009130.42847
 03 06 30 16 58 30.0000000  0  8 23 15 18 21 17 26 14 03
 -15703783.45649 -12236705.59046         0.00041  21598742.38146  21598738.61749
 -13331173.96248 -10387923.42046         0.00041  21182105.61146  21182101.13948
 -10206118.67249  -7952816.54947         0.00041  20430703.85447  20430701.69549
  -2166299.88149  -1688025.93446         0.00041  20684378.78746  20684377.33049
   4081944.80148   3180733.70746         0.00041  21642801.01046  21642797.57648
   -439168.29648   -342208.10846         0.00041  22110027.79846  22110024.89448
   -227183.76848   -177025.21244         0.00041  24745497.99744  24745497.99748
   -840835.42648   -655194.94944         0.00041  23991530.01444  23991525.88348
 03 06 30 16 59 00.0000000  0  8 23 15 18 21 17 26 14 03
 -15744637.43849 -12268539.82846         0.00041  21590967.74046  21590964.30249
 -13382297.93548 -10427760.27246         0.00041  21172376.72246  21172372.72848
 -10211212.32349  -7956785.63847         0.00041  20429734.59547  20429732.42649
  -2153179.99249  -1677802.66646         0.00041  20686875.14646  20686873.72549
   4121433.36248   3211503.97346         0.00041  21650315.65746  21650311.42448
   -374534.64648   -291844.25146         0.00041  22122327.44546  22122324.70148
   -340852.49548   -265597.99544         0.00041  24723867.66844  24723867.66848
   -933155.62948   -727132.70144         0.00041  23973965.07644  23973958.21048
 03 06 30 16 59 30.0000000  0  8 23 15 18 21 17 26 14 03
 -15785181.65349 -12300132.70646         0.00041  21583252.40346  21583249.07949
 -13433288.18448 -10467492.91746         0.00041  21162673.28046  21162669.80848
 -10215956.81149  -7960482.65347         0.00041  20428831.70347  20428829.71649
  -2139825.71949  -1667396.76346         0.00041  20689416.60846  20689415.17449
   4161121.31248   3242429.61546         0.00041  21657867.34546  21657863.82648
   -309377.22348   -241072.26046         0.00041  22134726.35846  22134723.97048
   -454557.47848   -354199.12644         0.00041  24702236.83444  24702231.45148
  -1025256.88148   -798899.85544         0.00041  23956433.99944  23956430.82648
 03 06 30 17 00 00.0000000  0  8 23 15 18 21 17 26 14 03
 -15825421.04049 -12331488.05246         0.00041  21575595.29446  21575591.20149
 -13484148.46448 -10507124.28946         0.00041  21152994.74246  21152991.29848
 -10220357.96949  -7963912.14047         0.00041  20427993.94247  20427992.05849
  -2126241.32849  -1656811.54746         0.00041  20692001.82446  20691999.81249
   4201006.07748   3273508.62346         0.00041  21665457.38946  21665454.17648
   -243703.01948   -189897.56446         0.00041  22147224.31446  22147221.09748
   -568300.95248   -442831.91144         0.00041  24680586.85744  24680586.85748
  -1117141.16248   -870497.91744         0.00041  23938950.97044  23938946.43948
 03 06 30 17 00 30.0000000  0  7 23 15 17 14 18 21 03
 -15865278.29049 -12362545.61746         0.00041  21568009.89746  21568006.84149
 -13534799.47948 -10546592.59046         0.00041  21143356.45746  21143353.45848
   4241162.81148   3304799.54646         0.00041  21673099.54246  21673095.23748
   -682002.20748   -531430.29144         0.00041  24658949.16044  24658949.16048
 -10224338.59249  -7967013.93847         0.00041  20427236.58247  20427234.60649
  -2112347.65249  -1645985.32246         0.00041  20694645.55746  20694644.08649
  -1208728.02348   -941864.25344         0.00041  23921523.36044  23921517.71548
 03 06 30 17 01 00.0000000  0  7 23 15 17 18 21 14 03
 -15904763.40149 -12393313.21646         0.00041  21560496.51346  21560492.99049
 -13585250.05448 -10585904.70546         0.00041  21133755.86046  21133752.15948
   4281584.44548   3336296.87746         0.00041  21680790.80146  21680787.21748
 -10227909.57149  -7969796.53347         0.00041  20426556.99047  20426555.38249
  -2098153.94149  -1634925.29846         0.00041  20697346.82146  20697345.23349
   -795668.21448   -619999.16344         0.00041  24637319.22344  24637319.22348
  -1300024.85348  -1013004.58344         0.00041  23904148.78044  23904144.14448
 03 06 30 17 01 30.0000000  0  7 23 15 17 14 18 21 03
 -15943904.98949 -12423813.13646         0.00041  21553048.12046  21553044.20349
 -13635527.28448 -10625081.76246         0.00041  21124189.02946  21124183.86248
   4322241.60148   3367977.74246         0.00041  21688527.84346  21688524.66248
   -909324.59448   -708562.48144         0.00041  24615691.07744  24615691.07748
 -10231099.91949  -7972282.52747         0.00041  20425949.34847  20425948.00849
  -2083687.55249  -1623652.81346         0.00041  20700099.70146  20700097.62349
  -1391057.17348  -1083938.81044         0.00041  23886827.10944  23886821.74548
 03 06 30 17 02 00.0000000  0  7 23 15 17 18 21 14 03
 -15982702.82549 -12454045.19446         0.00041  21545664.86146  21545661.52649
 -13685629.53448 -10664122.47246         0.00041  21114655.22646  21114650.58648
   4363135.07448   3399842.73946         0.00041  21696310.49146  21696305.83748
 -10233910.26249  -7974472.40947         0.00041  20425414.76047  20425413.51349
  -2068947.40249  -1612167.00546         0.00041  20702904.12146  20702902.43349
  -1022968.34848   -797115.91344         0.00041  24594065.85944  24594065.85948
  -1481821.93048  -1154664.58544         0.00041  23869553.45444  23869549.85048
 03 06 30 17 02 30.0000000  0  7 23 15 17 14 18 21 03
 -16021226.76649 -12484063.83046         0.00041  21538334.09746  21538331.29849
 -13735625.06749 -10703080.02346         0.00041  21105140.69146  21105137.62149
   4404197.19048   3431839.15946         0.00041  21704124.06146  21704119.30448
  -1136666.06248   -885711.37844         0.00041  24572430.70244  24572430.70248
 -10236410.82249  -7976420.89947         0.00041  20424938.80047  20424937.70549
  -2054001.82849  -1600521.11146         0.00041  20705747.74546  20705747.09549
  -1572385.70048  -1225233.70044         0.00041  23852320.86244  23852316.10348
 03 06 30 17 03 00.0000000  0  7 23 15 17 18 21 14 03
 -16059466.90349 -12513861.31346         0.00041  21531057.59546  21531054.38649
 -13785502.66849 -10741945.68246         0.00041  21095649.11646  21095646.32349
   4445438.90648   3463975.52046         0.00041  21711971.47546  21711967.93548
 -10238592.51449  -7978120.91847         0.00041  20424524.04447  20424522.97649
  -2038839.96349  -1588706.68546         0.00041  20708633.35846  20708632.54549
  -1250405.03848   -974339.01444         0.00041  24550786.90444  24550786.90448
  -1662735.91948  -1295636.40644         0.00041  23835129.95944  23835123.07248
 03 06 30 17 03 30.0000000  0  7 23 15 17 14 18 21 03
 -16097394.75949 -12543415.46846         0.00041  21523839.98646  21523836.85549
 -13835232.48649 -10780696.18246         0.00041  21086185.54046  21086182.53849
   4486889.00448   3496274.24946         0.00041  21719858.76446  21719856.10648
  -1364153.67148  -1062974.17644         0.00041  24529142.63144  24529142.63148
 -10240427.52949  -7979550.80647         0.00041  20424174.50847  20424173.35049
  -2023431.65649  -1576700.24346         0.00041  20711565.61646  20711564.21449
  -1752841.30748  -1365848.31644         0.00041  23817980.10144  23817976.25848
 03 06 30 17 04 00.0000000  0  7 23 15 17 18 21 14 03
 -16134988.25949 -12572709.07746         0.00041  21516686.57046  21516682.97049
 -13884790.70349 -10819312.96846         0.00041  21076754.72446  21076751.45549
   4528570.73248   3528753.47246         0.00041  21727791.16746  21727787.49248
 -10241893.97549  -7980693.49747         0.00041  20423896.01747  20423894.63949
  -2007754.21249  -1564484.08646         0.00041  20714548.75346  20714547.71449
  -1477886.70448  -1151597.11044         0.00041  24507499.02644  24507499.02648
  -1842676.74048  -1435849.93644         0.00041  23800886.49644  23800880.30348
 03 06 30 17 04 30.0000000  0  7 23 15 17 14 03 18 21
 -16172251.99249 -12601745.73046         0.00041  21509595.52946  21509592.43149
 -13934180.24549 -10857798.31846         0.00041  21067356.92446  21067353.76949
   4570479.84348   3561409.87646         0.00041  21735766.34246  21735762.56248
  -1591605.50748  -1240209.00944         0.00041  24485860.87744  24485857.59148
  -1932243.60648  -1505642.21644         0.00041  23783841.62544  23783836.93648
 -10242997.00649  -7981553.01147         0.00041  20423686.36147  20423684.62649
  -1991810.86849  -1552060.72746         0.00041  20717582.70946  20717581.76249
 03 06 30 17 05 00.0000000  0  7 23 15 17 14 03 18 21
 -16209118.46949 -12630472.83346         0.00041  21502579.94246  21502576.77549
 -13983332.22149 -10896098.55146         0.00041  21058003.49246  21057999.82749
   4612687.19448   3594298.67446         0.00041  21743797.42946  21743794.01948
  -1705239.47148  -1328758.02944         0.00041  24464232.04744  24464232.04748
  -2021471.26548  -1575170.22444         0.00041  23766862.92644  23766856.93248
 -10243669.82149  -7982077.29147         0.00041  20423558.36747  20423556.54349
  -1975532.84249  -1539376.56946         0.00041  20720680.72446  20720679.30549
 03 06 30 17 05 30.0000000  0  7 23 15 17 14 03 18 21
 -16245636.96249 -12658928.77846         0.00041  21495630.53546  21495626.51249
 -14032294.38149 -10934250.87846         0.00041  21048686.17846  21048683.17049
   4655143.91848   3627381.80346         0.00041  21751877.17346  21751873.24748
  -1818834.88848  -1417273.93944         0.00041  24442613.78144  24442613.78148
  -2110406.25348  -1644470.16444         0.00041  23749935.39744  23749933.66948
 -10243962.24649  -7982305.15447         0.00041  20423502.47547  20423501.09349
  -1958968.06549  -1526468.96046         0.00041  20723832.78946  20723831.16249
 03 06 30 17 06 00.0000000  0  7 23 15 17 18 21 14 03
 -16281797.12649 -12687105.50846         0.00041  21488749.41946  21488745.40149
 -14081054.86149 -10972246.04646         0.00041  21039407.53646  21039404.34349
   4697860.30748   3660667.24646         0.00041  21760006.63146  21760001.79248
 -10243864.35649  -7982228.88047         0.00041  20423520.85447  20423519.45049
  -1942105.00549  -1513328.93546         0.00041  20727041.92646  20727040.39249
  -1932378.21047  -1505749.25444         0.00041  24421006.37144  24421006.37147
  -2199035.25248  -1713531.62244         0.00041  23733071.35244  23733068.19348
 03 06 30 17 06 30.0000000  0  7 23 15 17 14 03 18 21
 -16317622.99849 -12715021.75146         0.00041  21481931.85846  21481927.76949
 -14129635.70249 -11010101.25946         0.00041  21030162.74346  21030159.02649
   4740816.31348   3694139.39246         0.00041  21768180.31646  21768177.00548
  -2045890.09048  -1594196.59744         0.00041  24399406.56144  24399406.56148
  -2287379.07548  -1782370.88344         0.00041  23716262.97244  23716257.63848
 -10243400.86449  -7981867.72247         0.00041  20423609.24747  20423607.54449
  -1924966.29149  -1499974.11146         0.00041  20730302.57146  20730301.89449
 03 06 30 17 07 00.0000000  0  7 23 15 17 18 21 14 03
 -16353062.00949 -12742636.54846         0.00041  21475188.38646  21475184.51149
 -14177982.82049 -11047774.34046         0.00041  21020962.70946  21020959.55349
   4784060.41348   3727836.04546         0.00041  21776410.45346  21776406.06748
 -10242519.49449  -7981180.94647         0.00041  20423777.19447  20423775.56649
  -1907498.29749  -1486362.69746         0.00041  20733627.20846  20733625.87049
  -2159315.10248  -1682579.57044         0.00041  24377832.21744  24377824.41648
  -2375382.12248  -1850944.59144         0.00041  23699514.22844  23699510.99348
 03 06 30 17 07 30.0000000  0  7 23 15 17 14 03 18 21
 -16388129.67749 -12769961.99346         0.00041  21468514.62146  21468511.29549
 -14226110.21949 -11085276.21646         0.00041  21011804.32146  21011801.22649
   4827577.92848   3761745.75146         0.00041  21784691.23646  21784686.50248
  -2272665.49648  -1770904.36744         0.00041  24356261.34244  24356255.74248
  -2463056.82548  -1919262.50844         0.00041  23682831.73244  23682826.47848
 -10241236.46149  -7980181.18347         0.00041  20424021.07747  20424019.47549
  -1889715.17549  -1472505.74046         0.00041  20737011.53446  20737009.56049
 03 06 30 17 08 00.0000000  0  7 23 15 17 18 21 14 03
 -16422831.68849 -12797002.51046         0.00041  21461910.87846  21461908.01249
 -14274021.70249 -11122609.84346         0.00041  21002687.21146  21002684.02349
   4871368.94148   3795868.56846         0.00041  21793023.86646  21793019.33048
 -10239558.03049  -7978873.32147         0.00041  20424340.54547  20424338.92849
  -1871621.57549  -1458406.85246         0.00041  20740454.86246  20740452.85049
  -2385943.71348  -1859172.95544         0.00041  24334706.41844  24334699.87648
  -2550405.93748  -1987326.71444         0.00041  23666207.43044  23666204.28348
 03 06 30 17 08 30.0000000  0  7 23 15 17 14 03 18 21
 -16457256.84349 -12823827.29946         0.00041  21455360.11746  21455356.96449
 -14321804.68849 -11159843.33846         0.00041  20993593.91846  20993590.46749
   4915344.25748   3830134.99346         0.00041  21801392.07446  21801387.82848
  -2499235.49248  -1947452.12444         0.00041  24313148.98744  24313139.30748
  -2637515.25848  -2055204.04944         0.00041  23649631.04644  23649627.64948
 -10237573.65049  -7977327.06047         0.00041  20424718.47547  20424716.79449
  -1853304.89049  -1444134.12346         0.00041  20743940.05346  20743938.49149
 03 06 30 17 09 00.0000000  0  7 23 17 14 03 15 18 21
 -16491420.53049 -12850448.33546         0.00041  21448859.28846  21448856.09849
   4959490.49048   3864534.59746         0.00041  21809793.00346  21809789.34048
  -2612552.86048  -2035751.23644         0.00041  24291585.98544  24291575.31248
  -2724397.03848  -2122904.08544         0.00041  23633098.69944  23633093.72748
 -14369472.68349 -11196987.22946         0.00041  20984523.32546  20984519.72549
 -10235299.24849  -7975554.80447         0.00041  20425151.01747  20425149.04549
  -1834779.02549  -1429698.39646         0.00041  20747465.53146  20747463.98249
 03 06 30 17 09 30.0000000  0  7 23 17 14 03 15 18 21
 -16525312.44949 -12876857.61246         0.00041  21442409.61046  21442406.43349
   5003816.51148   3899074.31546         0.00041  21818228.01146  21818224.49548
  -2725882.38548  -2124059.80044         0.00041  24270016.79144  24270010.39748
  -2811037.99248  -2190416.43845         0.00041  23616612.36345  23616606.70448
 -14417013.87949 -11234032.31446         0.00041  20975476.76646  20975473.44449
 -10232724.95149  -7973548.86447         0.00041  20425641.00547  20425639.25949
  -1816032.57849  -1415090.79146         0.00041  20751032.76346  20751031.28449
 03 06 30 17 10 00.0000000  0  7 23 17 14 03 15 18 21
 -16558856.60349 -12902995.90146         0.00041  21436025.95546  21436022.62749
   5048395.91848   3933811.46646         0.00041  21826712.04146  21826707.21748
  -2839144.70348  -2212315.94644         0.00041  24248463.44844  24248457.39948
  -2897358.91548  -2257679.41144         0.00041  23600184.84944  23600179.48148
 -14464350.59849 -11270918.06446         0.00041  20966468.77546  20966465.67449
 -10229775.31049  -7971250.45247         0.00041  20426201.91947  20426200.19549
  -1796988.17649  -1400251.01346         0.00041  20754656.63046  20754655.61549
 03 06 30 17 10 30.0000000  0  7 23 17 14 03 15 18 21
 -16592084.68249 -12928887.89846         0.00041  21429702.94946  21429699.91849
   5093209.23548   3968730.86646         0.00041  21835240.25246  21835234.78948
  -2952368.17948  -2300541.84844         0.00041  24226914.73744  24226910.96848
  -2983388.44548  -2324715.36344         0.00041  23583812.94544  23583808.81548
 -14511512.45649 -11307667.55546         0.00041  20957493.94046  20957490.89349
 -10226482.43749  -7968684.59047         0.00041  20426828.91847  20426826.92049
  -1777676.17149  -1385202.71346         0.00041  20758331.27646  20758330.35549
 03 06 30 17 11 00.0000000  0  7 23 17 14 03 15 18 21
 -16625009.52349 -12954543.61346         0.00041  21423437.68946  21423434.25449
   5138238.84848   4003818.82846         0.00041  21843808.14346  21843803.86348
  -3065562.50448  -2388745.05444         0.00041  24205376.27344  24205370.95148
  -3069136.20148  -2391531.76144         0.00041  23567495.49344  23567492.45148
 -14558510.77649 -11344289.61546         0.00041  20948550.38646  20948547.01549
 -10222859.74649  -7965861.72647         0.00041  20427518.14247  20427516.42049
  -1758107.97449  -1369954.78646         0.00041  20762055.46746  20762053.83849
 03 06 30 17 11 30.0000000  0  7 23 17 14 03 15 18 21
 -16657688.58049 -12980007.79146         0.00041  21417219.67346  21417215.80049
   5183427.34848   4039030.61546         0.00041  21852406.96746  21852403.47148
  -3178781.88948  -2476967.74144         0.00041  24183832.08244  24183825.73548
  -3154656.68548  -2458171.06244         0.00041  23551223.71444  23551217.77148
 -14605401.16049 -11380827.57346         0.00041  20939627.68446  20939624.03049
 -10218965.51949  -7962827.26647         0.00041  20428259.11247  20428257.78449
  -1738339.88149  -1354551.10246         0.00041  20765817.24046  20765815.84849
 03 06 30 17 12 00.0000000  0  7 23 17 14 03 15 18 21
 -16690068.87049 -13005239.17646         0.00041  21411057.17146  21411054.17649
   5228828.15748   4074407.81946         0.00041  21861046.48346  21861042.25948
  -3291970.02148  -2565166.13344         0.00041  24162295.48644  24162286.79848
  -3239893.93148  -2524589.62245         0.00041  23535003.11845  23534997.70448
 -14652128.88149 -11417238.78046         0.00041  20930735.59646  20930732.39549
 -10214747.24349  -7959540.29947         0.00041  20429061.69147  20429060.26749
  -1718317.53849  -1338949.30146         0.00041  20769626.99246  20769626.03449
 03 06 30 17 12 30.0000000  0  7 23 17 14 03 15 18 21
 -16722124.64549 -13030217.67546         0.00041  21404957.77346  21404954.57149
   5274470.57648   4109973.27146         0.00041  21869732.57346  21869728.36748
  -3405097.81548  -2653317.43944         0.00041  24140766.12344  24140759.94548
  -3324818.90148  -2590764.84945         0.00041  23518842.89945  23518837.17648
 -14698666.03849 -11453501.49546         0.00041  20921879.57646  20921876.04549
 -10210179.14949  -7955980.74947         0.00041  20429931.09147  20429929.66549
  -1698014.00749  -1323128.38046         0.00041  20773490.65746  20773489.55249
 03 06 30 17 13 00.0000000  0  7 23 17 15 18 21 14 03
 -16753774.94849 -13054880.23846         0.00041  21398934.52446  21398931.53749
   5320435.41048   4145789.96746         0.00041  21878479.49846  21878475.25648
 -14744929.98749 -11489551.31346         0.00041  20913075.90046  20913072.77749
 -10205181.30649  -7952086.33247         0.00041  20430882.55847  20430881.34349
  -1677346.93549  -1307024.17746         0.00041  20777424.08246  20777422.57449
  -3518081.09448  -2741356.16744         0.00041  24119267.99744  24119261.01348
  -3409347.36348  -2656631.15945         0.00041  23502756.46645  23502752.09748
 03 06 30 17 13 30.0000000  0  8 23 17 15 18 21 09 14 03
 -16785018.18549 -13079225.60946         0.00041  21392989.20046  21392986.12249
   5366725.34248   4181859.99246         0.00041  21887287.62446  21887283.75248
 -14790917.56249 -11525385.77546         0.00041  20904324.79746  20904321.59349
 -10199752.42249  -7947856.03847         0.00041  20431915.69347  20431913.95849
  -1656313.07149  -1290634.16646         0.00041  20781426.59446  20781424.94949
        -0.24557        -0.19154         0.00051  24828152.06654  24828152.06657
  -3630914.75948  -2829278.29544         0.00041  24097792.17644  24097788.50648
  -3493474.70848  -2722184.88745         0.00041  23486748.08145  23486743.35448
 03 06 30 17 14 00.0000000  0  8 23 17 15 18 21 09 14 03
 -16815918.87649 -13103304.06046         0.00041  21387109.10046  21387105.64749
   5413276.46948   4218133.54446         0.00041  21896146.52046  21896141.53148
 -14836691.21149 -11561053.55046         0.00041  20895614.50146  20895611.23849
 -10193957.29149  -7943340.35947         0.00041  20433018.45747  20433016.66049
  -1634975.72849  -1274007.69146         0.00041  20785486.42946  20785485.23849
    -71323.78147    -55576.97244         0.00041  24814580.82344  24814580.82347
  -3743660.20148  -2917131.70944         0.00041  24076340.92444  24076331.98848
  -3577262.37048  -2787473.90845         0.00041  23470804.12345  23470799.19248
 03 06 30 17 14 30.0000000  0  8 23 17 09 15 18 21 14 03
 -16846550.73549 -13127173.03046         0.00041  21381279.43546  21381276.24749
   5460017.31148   4254554.92846         0.00041  21905041.66146  21905036.10948
   -142572.49647   -111095.45144         0.00041  24801021.38444  24801021.38447
 -14882322.86749 -11596610.67646         0.00041  20886931.17546  20886927.88849
 -10187870.52149  -7938597.43247         0.00041  20434176.56547  20434174.39449
  -1613407.19349  -1257201.04746         0.00041  20789590.68746  20789589.93449
  -3856387.54648  -3004970.98344         0.00041  24054887.54444  24054879.35348
  -3660780.74948  -2852553.10845         0.00041  23454909.70545  23454905.68848
 03 06 30 17 15 00.0000000  0  7 23 17 14 03 15 18 21
 -16876931.21049 -13150846.11346         0.00041  21375498.81946  21375495.32649
   5506930.93448   4291110.94546         0.00041  21913969.32646  21913963.84548
  -3969111.12248  -3092807.31644         0.00041  24033435.85944  24033430.50648
  -3744044.44448  -2917433.86045         0.00041  23439064.50345  23439061.44548
 -14927828.00849 -11632069.21746         0.00041  20878271.63046  20878268.27349
 -10181509.94349  -7933641.14747         0.00041  20435387.12647  20435385.27049
  -1591623.58349  -1240226.81046         0.00041  20793736.68146  20793735.03249
 03 06 30 17 15 30.0000000  0  7 23 17 14 15 18 21 03
 -16907054.93649 -13174319.13946         0.00041  21369766.75346  21369762.83249
   5554024.65848   4327807.30146         0.00041  21922930.36646  21922925.32748
  -4081822.23148  -3180633.94544         0.00041  24011988.80844  24011982.42648
 -14973199.24849 -11667423.42146         0.00041  20869637.76746  20869634.34449
 -10174870.49749  -7928467.56247         0.00041  20436650.22547  20436648.58749
  -1569618.25349  -1223079.81446         0.00041  20797924.33346  20797922.41949
  -3827044.77848  -2982109.42045         0.00041  23423270.86645  23423267.42748
 03 06 30 17 16 00.0000000  0  7 23 17 14 03 15 18 21
 -16936805.56249 -13197501.42346         0.00041  21364105.36246  21364101.88449
   5601415.23848   4364734.96746         0.00041  21931946.96946  21931943.35448
  -4194400.82548  -3268357.27544         0.00041  23990566.24644  23990558.42448
  -3909662.32948  -3046486.67445         0.00041  23407549.74145  23407544.90048
 -15018318.49449 -11702581.27046         0.00041  20861051.58246  20861048.43649
 -10167836.38149  -7922986.43647         0.00041  20437988.86947  20437987.31149
  -1547273.06349  -1205667.99346         0.00041  20802176.18746  20802174.48949
 03 06 30 17 16 30.0000000  0  7 23 17 14 03 15 18 21
 -16966240.86249 -13220438.01246         0.00041  21358502.81846  21358499.53649
   5649045.85948   4401849.69346         0.00041  21941011.47146  21941007.85448
  -4306901.43648  -3356019.93344         0.00041  23969157.92044  23969149.23348
  -3991951.68648  -3110608.17645         0.00041  23391889.19645  23391886.31248
 -15063241.50849 -11737586.21646         0.00041  20852503.22546  20852500.01749
 -10160465.94449  -7917243.24547         0.00041  20439391.45847  20439389.66549
  -1524644.70549  -1188035.51546         0.00041  20806482.41046  20806480.95749
 03 06 30 17 17 00.0000000  0  7 23 17 14 03 15 18 21
 -16995388.81649 -13243150.69446         0.00041  21352956.81046  21352953.29949
   5696890.45848   4439131.16246         0.00041  21950116.23146  21950112.03848
  -4419348.76148  -3443640.99244         0.00041  23947762.31544  23947752.13848
  -4073937.67748  -3174493.33644         0.00041  23376288.18544  23376284.00548
 -15107994.38149 -11772458.58546         0.00041  20843987.30446  20843983.97049
 -10152787.46849  -7911260.02647         0.00041  20440852.57047  20440851.33949
  -1501759.88649  -1170203.19646         0.00041  20810836.97846  20810835.79849
 03 06 30 17 17 30.0000000  0  7 23 17 14 03 15 18 21
 -17024180.31949 -13265585.62346         0.00041  21347477.43346  21347474.42849
   5745019.09548   4476633.94146         0.00041  21959275.04146  21959270.81348
  -4531670.18448  -3531163.98844         0.00041  23926384.97344  23926378.81348
  -4155548.09748  -3238085.79944         0.00041  23360758.72744  23360754.09548
 -15152506.01949 -11807142.97446         0.00041  20835516.78546  20835513.47149
 -10144732.45649  -7904983.40647         0.00041  20442385.49547  20442384.10649
  -1478547.93949  -1152115.98346         0.00041  20815253.91246  20815252.73549
 03 06 30 17 18 00.0000000  0  7 23 17 14 03 15 18 21
 -17052641.67649 -13287763.29846         0.00041  21342061.53546  21342058.64249
   5793406.89848   4514338.66046         0.00041  21968484.41846  21968478.36748
  -4643888.80448  -3618606.84344         0.00041  23905029.15244  23905024.69648
  -4236805.99148  -3301403.62045         0.00041  23345293.93845  23345291.45948
 -15196800.97549 -11841658.52046         0.00041  20827087.70846  20827084.28049
 -10136327.85349  -7898434.37547         0.00041  20443984.70147  20443983.36649
  -1455033.77149  -1133793.26846         0.00041  20819728.84346  20819727.44849
 03 06 30 17 18 30.0000000  0  7 23 17 14 15 18 21 03
 -17080751.29749 -13309666.88746         0.00041  21336712.23446  21336709.74149
   5842076.21448   4552262.75946         0.00041  21977745.12946  21977739.74148
  -4755979.44648  -3705950.00444         0.00041  23883699.99944  23883693.21748
 -15240855.56649 -11875986.77046         0.00041  20818704.32746  20818701.21649
 -10127552.62149  -7891596.53847         0.00041  20445654.49247  20445653.14249
  -1431194.52149  -1115217.24046         0.00041  20824265.36546  20824263.82949
  -4317686.79748  -3364427.60545         0.00041  23329905.61845  23329900.95648
 03 06 30 17 19 00.0000000  0  8 23 17 09 15 18 21 14 03
 -17108547.11149 -13331325.95446         0.00041  21331423.05646  21331420.17849
   5890989.79848   4590377.18946         0.00041  21987053.24446  21987048.61648
        -0.90057        -0.70154         0.00051  24680064.21654  24680064.21657
 -15284705.95249 -11910155.89446         0.00041  20810360.20946  20810356.87949
 -10118444.85649  -7884499.58547         0.00041  20447387.62047  20447385.75649
  -1407066.65249  -1096416.31846         0.00041  20828856.71046  20828854.74149
  -4867976.74248  -3793220.41844         0.00041  23862387.33844  23862379.55348
  -4398225.21348  -3427184.74945         0.00041  23314578.77145  23314574.50348
 03 06 30 17 19 30.0000000  0  8 23 17 09 15 18 21 14 03
 -17136069.36649 -13352771.85746         0.00041  21326186.30846  21326183.20849
   5940109.21648   4628652.00246         0.00041  21996399.75146  21996395.39248
    -69862.65847    -54438.43444         0.00041  24666770.09144  24666770.09147
 -15328390.00349 -11944195.40646         0.00041  20802047.31746  20802044.07749
 -10109045.26349  -7877175.23247         0.00041  20449176.48647  20449174.84649
  -1382688.65949  -1077420.50246         0.00041  20833495.73646  20833494.50049
  -4979917.25148  -3880446.62644         0.00041  23841085.62844  23841078.21048
  -4478458.16848  -3489703.85945         0.00041  23299312.00945  23299306.03348
 03 06 30 17 20 00.0000000  0  8 23 17 09 15 18 21 14 03
 -17163437.74449 -13374097.85146         0.00041  21320978.26546  21320974.51549
   5989316.12548   4666994.99846         0.00041  22005762.59546  22005759.15948
   -139720.60847   -108873.20144         0.00041  24653476.22744  24653476.22747
 -15372025.27749 -11978196.90946         0.00041  20793743.77346  20793740.27249
 -10099474.11249  -7869717.20047         0.00041  20450997.89947  20450996.15149
  -1358178.92649  -1058322.01946         0.00041  20838159.60446  20838158.40849
  -5091917.16648  -3967719.11344         0.00041  23819772.65244  23819765.05348
  -4558501.87848  -3552075.56045         0.00041  23284077.15145  23284073.12548
 03 06 30 17 20 30.0000000  0  8 23 17 09 15 18 21 14 03
 -17190637.04149 -13395292.10246         0.00041  21315802.07046  21315798.60149
   6038626.71348   4705418.79046         0.00041  22015147.32046  22015142.90348
   -209555.92748   -163290.33344         0.00041  24640186.42344  24640186.42348
 -15415594.69149 -12012147.10046         0.00041  20785452.72646  20785449.37449
 -10089716.71049  -7862114.03347         0.00041  20452854.52247  20452852.84349
  -1333520.76349  -1039107.87746         0.00041  20842851.73646  20842850.37349
  -5203957.91148  -4055023.39145         0.00041  23798452.14645  23798444.76148
  -4638338.16348  -3614285.64945         0.00041  23268884.20745  23268880.99548
 03 06 30 17 21 00.0000000  0  8 23 17 09 15 18 21 14 03
 -17217452.23149 -13416187.04046         0.00041  21310699.74446  21310696.11049
   6088257.67648   4744092.21246         0.00041  22024592.09646  22024587.26648
   -279149.40248   -217519.01544         0.00041  24626943.72844  24626943.72848
 -15458881.18249 -12045876.83146         0.00041  20777215.31146  20777212.08149
 -10079558.20349  -7854198.31747         0.00041  20454787.73047  20454785.70649
  -1308497.89049  -1019609.55446         0.00041  20847613.39046  20847612.66749
  -5315820.98448  -4142189.26445         0.00041  23777163.24345  23777158.87548
  -4717748.82848  -3676164.00345         0.00041  23253776.80845  23253770.10148
 03 06 30 17 21 30.0000000  0  8 23 17 09 15 18 21 14 03
 -17243874.59249 -13436775.88046         0.00041  21305671.27346  21305668.01349
   6138218.42148   4783022.61746         0.00041  22034098.91346  22034094.86948
   -348488.33548   -271549.35244         0.00041  24613748.90644  24613748.90648
 -15501873.76249 -12079377.54046         0.00041  20769034.40046  20769031.10749
 -10068990.48749  -7845963.74047         0.00041  20456798.48447  20456796.85449
  -1283100.07349   -999819.07346         0.00041  20852446.41546  20852445.16749
  -5427494.09448  -4229207.09444         0.00041  23755913.70144  23755907.18748
  -4796721.89748  -3737701.38145         0.00041  23238748.30445  23238742.58248
 03 06 30 17 22 00.0000000  0  8 23 17 09 14 15 18 21 03
 -17269951.37649 -13457095.44346         0.00041  21300709.20646  21300705.78049
   6188462.88348   4822174.10246         0.00041  22043659.28346  22043656.00348
   -417615.95148   -325415.02744         0.00041  24600594.94044  24600594.94048
  -5539020.99948  -4316111.03544         0.00041  23734691.86644  23734684.02848
 -15544617.78849 -12112684.56746         0.00041  20760900.37146  20760897.08849
 -10058061.04949  -7837447.29947         0.00041  20458878.03147  20458876.72349
  -1257372.92849   -979771.96746         0.00041  20857342.24546  20857340.98049
  -4875301.60548  -3798932.28845         0.00041  23223794.37845  23223789.14748
 03 06 30 17 22 30.0000000  0  8 23 17 09 15 18 21 14 03
 -17295684.12549 -13477146.92346         0.00041  21295812.64246  21295809.01149
   6238990.76048   4861546.41846         0.00041  22053275.48746  22053271.15148
   -486529.65648   -379114.01744         0.00041  24587481.58344  24587481.58348
 -15587112.52549 -12145797.34346         0.00041  20752814.11446  20752811.04749
 -10046772.00249  -7828650.63847         0.00041  20461026.70247  20461025.22149
  -1231316.69849   -959468.42246         0.00041  20862300.85446  20862299.90749
  -5650399.86848  -4402899.60744         0.00041  23713495.23444  23713488.67848
  -4953486.16648  -3859855.28845         0.00041  23208915.59545  23208909.38048
 03 06 30 17 23 00.0000000  0  8 23 17 09 15 18 21 14 03
 -17321101.69149 -13496952.80246         0.00041  21290975.64346  21290971.35949
   6289775.06348   4901118.54746         0.00041  22062939.50046  22062934.66648
   -555254.24948   -432665.64944         0.00041  24574404.55044  24574404.55048
 -15629384.77049 -12178736.75446         0.00041  20744769.78046  20744766.26749
 -10035152.28049  -7819596.31247         0.00041  20463238.00247  20463236.43149
  -1204958.54649   -938929.61146         0.00041  20867316.51346  20867315.53249
  -5761655.91248  -4489592.45544         0.00041  23692323.52644  23692316.15648
  -5031301.31248  -3920490.41345         0.00041  23194108.73245  23194102.07448
 03 06 30 17 23 30.0000000  0  8 23 17 09 15 18 21 14 03
 -17346221.88149 -13516526.95646         0.00041  21286195.48846  21286191.43349
   6340798.57648   4940877.06746         0.00041  22072648.81946  22072643.76248
   -623803.53048   -486080.67344         0.00041  24561358.43044  24561358.43048
 -15671450.24549 -12211515.04346         0.00041  20736765.12746  20736761.74349
 -10023220.52449  -7810298.84247         0.00041  20465508.27247  20465506.63249
  -1178314.93149   -918168.36346         0.00041  20872386.46546  20872385.36149
  -5872803.56348  -4576200.84244         0.00041  23671174.26544  23671165.57848
  -5108761.34748  -3980848.82245         0.00041  23179367.39945  23179362.67248
 03 06 30 17 24 00.0000000  0  8 23 17 09 14 15 18 21 03
 -17371050.61849 -13535873.99946         0.00041  21281471.08746  21281467.34149
   6392056.60448   4980818.34546         0.00041  22082402.48446  22082398.31148
   -692179.48548   -539360.63844         0.00041  24548346.54944  24548346.54948
  -5983845.19148  -4662726.62644         0.00041  23650041.63144  23650037.29348
 -15713312.92449 -12244135.31146         0.00041  20728798.84546  20728795.59249
 -10010983.27549  -7800763.32247         0.00041  20467837.08447  20467835.33649
  -1151390.60549   -897188.38946         0.00041  20877510.40346  20877508.78749
  -5185869.16348  -4040932.81345         0.00041  23164693.93145  23164689.84148
 03 06 30 17 24 30.0000000  0  8 23 17 09 14 15 18 21 03
 -17395552.37349 -13554966.26346         0.00041  21276808.02246  21276804.82749
   6443586.15748   5020971.20146         0.00041  22092208.21446  22092204.41148
   -760342.31848   -592474.53444         0.00041  24535374.45244  24535374.45248
  -6094741.65048  -4749139.28144         0.00041  23628939.68444  23628934.45248
 -15754934.96949 -12276568.07146         0.00041  20720878.27846  20720875.33949
  -9998405.08649  -7790962.14347         0.00041  20470230.40747  20470228.63249
  -1124148.29149   -875960.64146         0.00041  20882694.47946  20882693.09049
  -5262586.18748  -4100712.26745         0.00041  23150096.05545  23150091.94348
 03 06 30 17 25 00.0000000  0  8 23 17 09 14 15 18 21 03
 -17419746.96949 -13573819.17946         0.00041  21272204.12846  21272200.39749
   6495368.82948   5061321.28446         0.00041  22102063.44546  22102058.17448
   -828308.08148   -645434.86944         0.00041  24522441.72444  24522441.72448
  -6205509.22348  -4835451.54244         0.00041  23607859.81544  23607855.23448
 -15796334.29249 -12308827.28246         0.00041  20713000.26246  20712997.08549
  -9985506.36949  -7780911.19847         0.00041  20472685.05147  20472683.54249
  -1096606.46649   -854499.49646         0.00041  20887935.41946  20887934.19649
  -5338929.11048  -4160200.17546         0.00041  23135567.95746  23135564.66048
 03 06 30 17 25 30.0000000  0  8 23 17 09 14 15 18 21 03
 -17443616.42549 -13592418.74146         0.00041  21267661.71046  21267658.69749
   6547423.53148   5101883.33246         0.00041  22111968.30746  22111963.95848
   -896054.38848   -698224.19944         0.00041  24509549.97044  24509549.97048
  -6316126.30248  -4921646.50644         0.00041  23586810.25544  23586804.70148
 -15837490.67749 -12340897.18446         0.00041  20705168.82746  20705165.33249
  -9972269.32949  -7770596.62047         0.00041  20475204.09947  20475202.58449
  -1068745.57849   -832789.73546         0.00041  20893237.24946  20893236.05249
  -5414876.59448  -4219379.96545         0.00041  23121115.26545  23121110.96648
 03 06 30 17 26 00.0000000  0  8 23 17 09 14 15 18 21 03
 -17467189.39149 -13610787.26646         0.00041  21263175.99046  21263172.80149
   6599722.23248   5142635.50246         0.00041  22121920.87346  22121916.50848
   -963605.91148   -750861.74944         0.00041  24496695.22744  24496695.22748
  -6426618.32948  -5007744.06044         0.00041  23565787.05644  23565779.14148
 -15878430.32949 -12372798.20346         0.00041  20697378.06946  20697374.88149
  -9958723.05849  -7760041.08547         0.00041  20477781.28047  20477779.89849
  -1040592.69249   -810852.44146         0.00041  20898594.66146  20898593.11949
  -5490454.20248  -4278271.57145         0.00041  23106733.63045  23106729.34948
 03 06 30 17 26 30.0000000  0  8 23 17 09 15 18 21 14 03
 -17490466.71449 -13628925.42446         0.00041  21258746.62346  21258743.09449
   6652265.86748   5183578.52846         0.00041  22131920.04446  22131915.43948
  -1030959.33047   -803344.93244         0.00041  24483878.15944  24483878.15947
 -15919152.07049 -12404529.42246         0.00041  20689628.86046  20689625.47549
  -9944868.79449  -7749245.55547         0.00041  20480418.20347  20480416.53449
  -1012147.47349   -788687.35146         0.00041  20904007.54546  20904005.85849
  -6536982.51348  -5093741.96844         0.00041  23544783.87844  23544777.81348
  -5565659.63148  -4336873.14245         0.00041  23092422.61445  23092418.76048
 03 06 30 17 27 00.0000000  0  8 23 17 09 15 18 21 14 03
 -17513457.14649 -13646840.02846         0.00041  21254371.88046  21254368.26049
   6705046.69548   5224706.39146         0.00041  22141962.70146  22141958.90348
  -1098119.37947   -855677.43844         0.00041  24471099.03344  24471099.03347
 -15959662.45749 -12436095.94746         0.00041  20681920.05246  20681916.49549
  -9930716.11749  -7738217.49847         0.00041  20483111.24647  20483109.70149
   -983417.03549   -766300.01046         0.00041  20909474.94446  20909473.04549
  -6647223.85948  -5179644.14544         0.00041  23523805.00544  23523800.01748
  -5640498.29548  -4395188.93845         0.00041  23078181.01145  23078177.59048
 03 06 30 17 27 30.0000000  0  7 23 17 14 03 15 18 21
 -17536146.71349 -13664520.18946         0.00041  21250053.97546  21250050.89349
   6758080.76548   5266031.57446         0.00041  22152056.72746  22152051.43948
  -6757324.80748  -5265436.93445         0.00041  23502851.13745  23502847.82648
  -5714952.89748  -4453205.47145         0.00041  23064013.18545  23064008.52948
 -15999945.16349 -12467485.06346         0.00041  20674254.54946  20674251.04349
  -9916251.21149  -7726946.14347         0.00041  20485863.63347  20485862.06549
   -954385.50849   -743678.06046         0.00041  20914999.67846  20914997.41849
 03 06 30 17 28 00.0000000  0  7 23 17 14 03 15 18 21
 -17558545.31949 -13681973.63146         0.00041  21245791.83546  21245788.61349
   6811358.70648   5307546.77646         0.00041  22162195.50146  22162189.67748
  -6867291.93548  -5351125.46145         0.00041  23481925.49245  23481920.60048
  -5789030.53548  -4510928.23545         0.00041  23049915.52845  23049911.22048
 -16040007.99049 -12498702.83746         0.00041  20666630.52646  20666627.32449
  -9901484.23549  -7715439.41047         0.00041  20488673.72547  20488672.27349
   -925061.93949   -720828.54846         0.00041  20920579.60546  20920577.56649
 03 06 30 17 28 30.0000000  0  7 23 17 14 03 15 18 21
 -17580641.36849 -13699191.31446         0.00041  21241586.39646  21241583.56649
   6864894.43848   5349262.85446         0.00041  22172382.19946  22172376.61448
  -6977109.74948  -5436697.63444         0.00041  23461027.89044  23461023.09048
  -5862716.04948  -4568345.46645         0.00041  23035894.76545  23035889.53248
 -16079836.97349 -12529738.40246         0.00041  20659051.40846  20659048.13149
  -9886404.00149  -7703688.58347         0.00041  20491543.50447  20491542.13049
   -895433.07349   -697741.14246         0.00041  20926217.09246  20926216.12049
 03 06 30 17 29 00.0000000  0  7 23 17 14 03 15 18 21
 -17602393.07549 -13716140.67946         0.00041  21237447.44146  21237444.26249
   6918728.82048   5391211.66546         0.00041  22182626.49746  22182621.85448
  -7086733.01248  -5522118.18945         0.00041  23440168.23445  23440163.07448
  -5935964.68048  -4625422.26945         0.00041  23021955.87045  23021951.92548
 -16119388.08349 -12560557.43846         0.00041  20651525.34046  20651522.20749
  -9870969.12249  -7691661.40946         0.00041  20494480.92546  20494479.21149
   -865455.54449   -674382.05146         0.00041  20931921.96746  20931920.86249
 03 06 30 17 29 30.0000000  0  7 23 17 14 03 15 18 21
 -17623883.32949 -13732886.30746         0.00041  21233358.28446  21233354.94049
   6972781.41448   5433330.49246         0.00041  22192912.30446  22192907.94748
  -7196240.93548  -5607448.88945         0.00041  23419329.32945  23419324.04248
  -6008855.98348  -4682220.63345         0.00041  23008084.64145  23008080.96948
 -16158742.02849 -12591222.83846         0.00041  20644036.49946  20644033.30649
  -9855262.78149  -7679422.71046         0.00041  20497469.54246  20497467.98649
   -835210.63249   -650814.60746         0.00041  20937677.48746  20937675.54749
 03 06 30 17 30 00.0000000  0  7 23 17 14 03 15 18 21
 -17645114.74049 -13749430.26146         0.00041  21229317.70346  21229314.74249
   7027051.16848   5475618.54045         0.00041  22203239.18445  22203234.73548
  -7305632.66448  -5692689.04745         0.00041  23398511.94445  23398507.57648
  -6081389.54548  -4738740.24845         0.00041  22994282.72345  22994278.82648
 -16197899.41949 -12621735.07946         0.00041  20636585.13246  20636581.71349
  -9839288.25249  -7666975.03046         0.00041  20500509.42746  20500508.01249
   -804699.57149   -627039.77146         0.00041  20943483.59346  20943481.71949
 03 06 30 17 30 30.0000000  0  8 23 17 09 14 15 18 21 03
 -17666025.01349 -13765723.96646         0.00041  21225338.99946  21225335.56949
   7081601.25148   5518125.02745         0.00041  22213619.10645  22213615.19348
        -0.94757        -0.73854         0.00051  24382797.76054  24382797.76057
  -7414842.31148  -5777787.31945         0.00041  23377730.56445  23377724.98748
 -16236795.53049 -12652043.73046         0.00041  20629183.35746  20629180.26449
  -9822983.21149  -7654269.80946         0.00041  20503611.99446  20503610.85849
   -773858.72849   -603007.96946         0.00041  20949352.44146  20949350.52449
  -6153499.74548  -4794929.97945         0.00041  22980559.74245  22980555.75248
 03 06 30 17 31 00.0000000  0  7 23 17 14 03 15 18 21
 -17686631.41349 -13781780.88346         0.00041  21221417.96746  21221414.83649
   7136415.62648   5560837.47045         0.00041  22224050.60645  22224046.19148
  -7523883.56248  -5862754.36445         0.00041  23356979.24045  23356974.00448
  -6225200.74348  -4850800.83845         0.00041  22966915.82245  22966911.52348
 -16275445.28449 -12682160.40846         0.00041  20621828.49946  20621825.35549
  -9806365.56449  -7641320.99546         0.00041  20506774.30046  20506772.75849
   -742703.77949   -578731.40246         0.00041  20955281.21346  20955279.37549
 03 06 30 17 31 30.0000000  0  7 23 17 14 03 15 18 21
 -17706972.61149 -13797631.14846         0.00041  21217546.36146  21217543.70449
   7191457.10348   5603726.87645         0.00041  22234526.29945  22234519.61148
  -7632791.32448  -5947617.41045         0.00041  23336254.78645  23336251.55448
  -6296528.01348  -4906380.47745         0.00041  22953343.42845  22953338.37848
 -16313884.91849 -12712113.35946         0.00041  20614513.57646  20614510.40949
  -9789474.35749  -7628159.02346         0.00041  20509988.49846  20509987.16749
   -711271.73549   -554238.91646         0.00041  20961262.52546  20961260.88749
 03 06 30 17 32 00.0000000  0  7 23 17 14 03 15 18 21
 -17727016.92449 -13813250.08646         0.00041  21213732.79646  21213728.97749
   7246758.46048   5646818.75745         0.00041  22245048.82945  22245043.46748
  -7741530.45248  -6032349.03545         0.00041  23315563.82145  23315559.29948
  -6367446.87548  -4961641.89145         0.00041  22939847.08845  22939843.54748
 -16352080.73249 -12741876.32146         0.00041  20607245.39146  20607241.93349
  -9772278.35949  -7614759.54646         0.00041  20513260.80346  20513259.43949
   -679529.63649   -529504.83946         0.00041  20967302.79746  20967301.29149
 03 06 30 17 32 30.0000000  0  7 23 17 14 03 15 18 21
 -17746815.17049 -13828677.27346         0.00041  21209964.67946  21209961.06049
   7302270.53048   5690074.83646         0.00041  22255612.22446  22255607.56848
  -7850147.96848  -6116985.92145         0.00041  23294894.83745  23294888.22748
  -6438004.55148  -5016621.86245         0.00041  22926420.18445  22926414.93948
 -16390080.83549 -12771486.78546         0.00041  20600013.96846  20600010.75149
  -9754828.54049  -7601162.29247         0.00041  20516581.78147  20516580.04849
   -647526.77549   -504567.57246         0.00041  20973392.72746  20973390.87249
 03 06 30 17 33 00.0000000  0  7 23 17 14 03 15 18 21
 -17766392.40749 -13843932.25646         0.00041  21206239.37446  21206236.27049
   7357969.33548   5733476.40846         0.00041  22266211.79246  22266207.15848
  -7958665.22448  -6201544.69545         0.00041  23274245.49445  23274238.05648
  -6508223.03348  -5071337.54345         0.00041  22913057.59245  22913052.96048
 -16427908.26449 -12800962.69546         0.00041  20592815.67146  20592812.48649
  -9737150.40749  -7587387.13247         0.00041  20519945.69647  20519944.17149
   -615286.31749   -479445.15746         0.00041  20979527.54546  20979525.68349
 03 06 30 17 33 30.0000000  0  7 23 21 17 14 03 15 18
 -17785745.36949 -13859012.46546         0.00041  21202556.70846  21202553.01649
   -582803.62249   -454133.99246         0.00041  20985709.04746  20985707.02349
   7413859.26548   5777026.91246         0.00041  22276846.86146  22276842.32148
  -8067075.33748  -6286019.95945         0.00041  23253613.02145  23253608.83248
  -6578096.11248  -5125784.06945         0.00041  22899760.12245  22899756.78948
 -16465557.15849 -12830299.49146         0.00041  20585651.26346  20585648.05149
  -9719240.75349  -7573431.56147         0.00041  20523353.73447  20523352.12549
 03 06 30 17 34 00.0000000  0  7 23 21 17 15 18 14 03
 -17804836.61249 -13873888.73746         0.00041  21198924.15946  21198920.96249
   -550039.81949   -428603.80046         0.00041  20991944.02846  20991942.31749
   7469978.64748   5820756.21045         0.00041  22287525.22845  22287522.02648
 -16502988.02949 -12859466.39446         0.00041  20578528.45546  20578525.31749
  -9701062.66049  -7559266.82147         0.00041  20526813.02847  20526811.53049
  -8175337.43048  -6370379.88845         0.00041  23233011.56745  23233008.42448
  -6647582.99748  -5179929.66045         0.00041  22886538.80045  22886534.49848
 03 06 30 17 34 30.0000000  0  7 23 21 17 14 03 15 18
 -17823667.03549 -13888561.79146         0.00041  21195340.44546  21195336.71149
   -516994.42349   -402854.15946         0.00041  20998232.12946  20998231.11949
   7526327.99948   5864664.71245         0.00041  22298249.11145  22298244.84448
  -8283448.69348  -6454622.30445         0.00041  23212437.57245  23212434.66648
  -6716681.41848  -5233772.54746         0.00041  22873390.28746  22873386.11648
 -16540199.24849 -12888462.14446         0.00041  20571447.37646  20571444.15549
  -9682617.17049  -7544893.71747         0.00041  20530323.22547  20530321.76949
 03 06 30 17 35 00.0000000  0  7 23 21 17 14 15 18 03
 -17842172.73449 -13902981.80446         0.00041  21191818.85446  21191815.44849
   -483601.93749   -376834.06046         0.00041  21004586.45246  21004585.29449
   7582971.76248   5908802.62045         0.00041  22309028.30145  22309023.28848
  -8391341.55248  -6538694.54445         0.00041  23191909.18245  23191902.71148
 -16577124.79849 -12917235.29246         0.00041  20564420.70146  20564417.41749
  -9663841.07949  -7530263.00847         0.00041  20533896.00747  20533894.50449
  -6785324.70448  -5287260.79645         0.00041  22860326.02545  22860324.02848
 03 06 30 17 35 30.0000000  0  7 23 21 17 14 03 15 18
 -17860351.69749 -13917147.21646         0.00041  21188359.56346  21188356.35049
   -449858.78649   -350540.72446         0.00041  21011007.69546  21011006.71549
   7639914.20648   5953173.26445         0.00041  22319863.34845  22319859.12348
  -8499010.27748  -6622592.13945         0.00041  23171418.08545  23171413.59148
  -6853507.31048  -5340390.10745         0.00041  22847353.16245  22847348.88148
 -16613760.16749 -12945782.32046         0.00041  20557448.88746  20557445.40249
  -9644732.65749  -7515373.33747         0.00041  20537532.19647  20537530.63549
 03 06 30 17 36 00.0000000  0  7 23 21 17 14 15 18 03
 -17878158.33649 -13931022.50846         0.00041  21184971.20946  21184967.66449
   -415718.20349   -323937.69546         0.00041  21017504.15746  21017503.08149
   7697202.37548   5997813.33546         0.00041  22330766.33346  22330761.25948
  -8606405.66948  -6706276.73045         0.00041  23150982.64545  23150977.52748
 -16650057.25649 -12974065.75346         0.00041  20550542.33246  20550539.13149
  -9625246.42149  -7500189.26247         0.00041  20541240.60547  20541238.95949
  -6921180.58048  -5393122.46845         0.00041  22834475.35845  22834470.83248
 03 06 30 17 36 30.0000000  0  7 23 21 17 14 03 15 18
 -17895623.68849 -13944631.85846         0.00041  21181647.25646  21181643.71149
   -381209.37649   -297047.73346         0.00041  21024071.60246  21024069.87749
   7754806.21348   6042699.36846         0.00041  22341728.23746  22341722.80148
  -8713555.06348  -6789769.66545         0.00041  23130592.43845  23130587.15648
  -6988372.53948  -5445479.83045         0.00041  22821688.79245  22821684.87748
 -16686044.57949 -13002107.81046         0.00041  20543693.83446  20543690.33149
  -9605413.84149  -7484735.31246         0.00041  20545014.24746  20545012.30449
 03 06 30 17 37 00.0000000  0  7 23 21 17 14 15 18 03
 -17912721.86049 -13957955.09646         0.00041  21178394.18046  21178390.92549
   -346304.95649   -269849.51546         0.00041  21030713.82546  21030712.13449
   7812752.51848   6087852.27445         0.00041  22352754.56045  22352749.39448
  -8820429.15748  -6873048.06245         0.00041  23110255.67945  23110250.30848
 -16721694.04549 -13029886.60446         0.00041  20536910.03346  20536906.86049
  -9585209.47649  -7468991.65546         0.00041  20548859.26946  20548857.54449
  -7055053.99148  -5497439.38245         0.00041  22808998.70345  22808995.51048
 03 06 30 17 37 30.0000000  0  7 23 21 17 14 03 15 18
 -17929506.56349 -13971034.07246         0.00041  21175199.95546  21175196.69349
   -311057.11049   -242383.69546         0.00041  21037421.06046  21037419.47649
   7870989.00348   6133231.28345         0.00041  22363836.18745  22363832.04948
  -8927077.59548  -6956150.64245         0.00041  23089959.51045  23089955.50248
  -7121275.43448  -5549040.48945         0.00041  22796397.53545  22796393.69948
 -16757056.98049 -13057442.12446         0.00041  20530180.77246  20530177.48349
  -9564686.78049  -7452999.94946         0.00041  20552764.20846  20552762.68549
 03 06 30 17 38 00.0000000  0  7 23 21 17 14 15 18 03
 -17946104.32349 -13983967.38246         0.00041  21172041.24446  21172038.06949
   -275591.02849   -214747.81446         0.00041  21044170.37146  21044168.85249
   7929390.63148   6178738.96645         0.00041  22374949.15945  22374945.39648
  -9033623.51548  -7039173.32745         0.00041  23069683.14245  23069679.29848
 -16792257.47249 -13084871.07046         0.00041  20523482.37946  20523479.18749
  -9543972.85349  -7436859.22846         0.00041  20556706.13946  20556704.73549
  -7187160.18848  -5600379.21445         0.00041  22783860.15845  22783856.64048
 03 06 30 17 38 30.0000000  0  7 23 21 17 14 03 15 18
 -17962552.08149 -13996783.81946         0.00041  21168911.65146  21168908.45749
   -239942.09049   -186969.45846         0.00041  21050954.06746  21050952.32249
   7987921.55648   6224347.40545         0.00041  22386087.11745  22386083.91748
  -9140100.28648  -7122142.13145         0.00041  23049422.05045  23049417.73248
  -7252742.51048  -5651482.29345         0.00041  22771380.46745  22771377.44148
 -16827330.01049 -13112200.30546         0.00041  20516808.10146  20516804.89949
  -9523105.11149  -7420598.65146         0.00041  20560677.18146  20560675.94349
 03 06 30 17 39 00.0000000  0  7 23 21 17 15 18 14 03
 -17978760.99449 -14009414.13446         0.00041  21165827.10446  21165823.93849
   -204020.07549   -158978.30746         0.00041  21057789.82646  21057787.82549
   8046671.99148   6270126.91844         0.00041  22397268.29044  22397263.23148
 -16862183.17349 -13139358.60546         0.00041  20510175.73346  20510172.36549
  -9501995.04549  -7404149.25346         0.00041  20564694.26746  20564692.76749
  -9246415.36048  -7204984.95445         0.00041  23029191.23845  23029187.38448
  -7317930.45648  -5702278.08945         0.00041  22758975.73245  22758971.56248
 03 06 30 17 39 30.0000000  0  7 23 21 17 14 03 15 18
 -17994717.14649 -14021847.48646         0.00041  21162790.37746  21162786.97249
   -167809.55249   -130762.34346         0.00041  21064680.63146  21064678.66749
   8105656.32848   6316088.63645         0.00041  22408492.40345  22408488.02848
  -9352551.01848  -7287687.96145         0.00041  23008995.91245  23008990.91048
  -7382706.89148  -5752753.19745         0.00041  22746648.98245  22746644.75248
 -16896800.61449 -13166333.22546         0.00041  20503588.37246  20503585.24249
  -9480628.99449  -7387500.38746         0.00041  20568759.98246  20568758.78149
 03 06 30 17 40 00.0000000  0  7 23 21 17 14 15 18 03
 -18010379.07449 -14034051.57946         0.00041  21159810.25346  21159807.06249
   -131267.23749   -102287.84746         0.00041  21071633.91746  21071632.54449
   8164916.81048   6362265.57044         0.00041  22419769.80144  22419764.81448
  -9458462.11248  -7370215.99045         0.00041  22988841.14345  22988835.89248
 -16931138.41249 -13193089.93746         0.00041  20497053.97146  20497050.71349
  -9458965.59549  -7370619.81546         0.00041  20572882.41546  20572881.22249
  -7447027.03148  -5802872.74245         0.00041  22734409.26645  22734404.82348
 03 06 30 17 40 30.0000000  0  7 23 21 17 14 03 15 18
 -18025793.74149 -14046062.99846         0.00041  21156876.68546  21156873.57049
    -94438.63149    -73590.25846         0.00041  21078641.91446  21078640.58049
   8224408.23248   6408622.47144         0.00041  22431089.78244  22431083.44948
  -9564191.83448  -7452602.69345         0.00041  22968720.33745  22968715.10148
  -7510934.80148  -5852670.97845         0.00041  22722247.68745  22722244.53048
 -16965241.26349 -13219663.58346         0.00041  20490564.38446  20490561.19449
  -9437052.15449  -7353544.40946         0.00041  20577052.49546  20577051.12549
 03 06 30 17 41 00.0000000  0  7 23 21 17 15 18 14 03
 -18040960.73749 -14057881.43346         0.00041  21153990.43246  21153987.08749
    -57322.15549    -44668.35346         0.00041  21085705.22446  21085703.79649
   8284132.48548   6455160.79444         0.00041  22442453.81944  22442449.23748
 -16999106.41049 -13246051.99746         0.00041  20484120.13746  20484117.05949
  -9414888.83749  -7336274.29247         0.00041  20581270.21947  20581268.40249
  -9669736.19248  -7534844.96745         0.00041  22948635.89645  22948630.53248
  -7574426.77648  -5902145.20845         0.00041  22710165.34545  22710161.98848
 03 06 30 17 41 30.0000000  0  7 23 21 17 14 03 15 18
 -18055889.45649 -14069514.18946         0.00041  21151149.78446  21151146.61449
    -19925.66649    -15528.26446         0.00041  21092821.77246  21092820.23449
   8344081.48748   6501874.21444         0.00041  22453864.82644  22453857.91248
  -9775100.98248  -7616947.30445         0.00041  22928585.99345  22928581.00448
  -7637509.55748  -5951300.60745         0.00041  22698161.29145  22698158.31948
 -17032740.51549 -13272260.38246         0.00041  20477719.72946  20477716.52749
  -9392484.95949  -7318816.72947         0.00041  20585533.54147  20585531.87549
 03 06 30 17 42 00.0000000  0  7 23 21 17 15 18 14 03
 -18070546.99649 -14080935.64846         0.00041  21148360.44046  21148357.00349
     17785.17549     13856.78446         0.00041  21099997.80346  21099996.33949
   8404290.06748   6548789.89444         0.00041  22465321.70144  22465315.27248
 -17066108.42949 -13298261.34646         0.00041  20471370.06546  20471366.90449
  -9369807.98149  -7301146.36347         0.00041  20589848.94647  20589847.23149
  -9880249.78648  -7698881.32645         0.00041  22908576.24845  22908572.03848
  -7700147.02948  -6000108.99146         0.00041  22686241.48646  22686237.94848
 03 06 30 17 42 30.0000000  0  7 23 21 17 14 03 15 18
 -18084912.27549 -14092129.35046         0.00041  21145627.28846  21145623.22849
     55833.03449     43504.44346         0.00041  21107238.07846  21107236.17149
   8464779.92248   6595924.75544         0.00041  22476831.96344  22476826.25148
  -9985157.49548  -7780627.49845         0.00041  22888613.24745  22888608.43948
  -7762314.97348  -6048551.49146         0.00041  22674412.89146  22674407.08148
 -17099186.33849 -13324036.33546         0.00041  20465075.61246  20465072.46149
  -9346836.99449  -7283246.90147         0.00041  20594219.87147  20594218.48949
 03 06 30 17 43 00.0000000  0  7 23 21 17 15 18 14 03
 -18098984.00649 -14103094.34046         0.00041  21142949.22146  21142946.39149
     94220.91549     73417.04946         0.00041  21114543.73346  21114541.42749
   8525553.53148   6643280.74344         0.00041  22488396.60644  22488391.78748
 -17131970.57749 -13349582.48646         0.00041  20458837.01846  20458833.92549
  -9323571.13449  -7265117.66047         0.00041  20598647.31947  20598645.63049
 -10089819.36248  -7862182.11845         0.00041  22868696.38745  22868692.03048
  -7824009.18848  -6096624.85946         0.00041  22662672.22646  22662667.80948
 03 06 30 17 43 30.0000000  0  7 23 21 17 14 03 15 18
 -18112801.51049 -14113861.20946         0.00041  21140320.35246  21140316.29249
    132910.72249    103564.93246         0.00041  21121905.53846  21121903.46849
   8586572.19548   6690827.65045         0.00041  22500007.92045  22500003.39948
 -10194270.99548  -7943572.89445         0.00041  22848820.00045  22848815.42948
  -7885265.85148  -6144357.31046         0.00041  22651015.56046  22651010.65048
 -17164498.03949 -13374928.55446         0.00041  20452647.18746  20452643.77849
  -9300049.78649  -7246789.33547         0.00041  20603123.31747  20603121.78549
 03 06 30 17 44 00.0000000  0  7 23 21 17 15 18 14 03
 -18126317.47349 -14124393.12546         0.00041  21137747.13146  21137744.49249
    171951.38949    133986.22446         0.00041  21129335.11146  21129333.12249
   8647885.73548   6738604.33845         0.00041  22511675.43945  22511671.44448
 -17196718.74449 -13400035.59146         0.00041  20446515.56346  20446512.30049
  -9276225.98249  -7228225.32846         0.00041  20607656.84446  20607655.24849
 -10298461.41648  -8024760.12346         0.00041  22828992.10746  22828988.66448
  -7946034.75048  -6191709.68046         0.00041  22639451.36246  22639446.10548
 03 06 30 17 44 30.0000000  0  7 23 21 17 14 15 18 03
 -18139537.24749 -14134694.24546         0.00041  21135232.04546  21135228.84449
    211338.75749    164677.65046         0.00041  21136830.45946  21136828.40349
   8709489.07848   6786606.87845         0.00041  22523398.38845  22523393.48348
 -10402392.35048  -8105745.17746         0.00041  22809216.27246  22809210.85848
 -17228635.58949 -13424905.83746         0.00041  20440442.07946  20440438.79049
  -9252105.53849  -7209430.17446         0.00041  20612246.79746  20612245.25549
  -8006318.09448  -6238683.66546         0.00041  22627979.74246  22627974.90648
 03 06 30 17 45 00.0000000  0  7 23 21 17 15 18 14 03
 -18152449.14549 -14144755.45546         0.00041  21132775.12446  21132771.90149
    251086.19449    195649.64346         0.00041  21144393.85746  21144392.60649
   8771395.09548   6834845.23945         0.00041  22535179.94445  22535173.60648
 -17260234.50349 -13449528.35546         0.00041  20434429.14346  20434425.78749
  -9227676.86349  -7190394.84346         0.00041  20616895.24446  20616893.81949
 -10506048.36648  -8186516.01646         0.00041  22789491.34446  22789486.16648
  -8066100.84448  -6285267.59546         0.00041  22616603.43546  22616599.24148
 03 06 30 17 45 30.0000000  0  7 23 21 17 14 15 18 03
 -18165132.30149 -14154638.42846         0.00041  21130361.63346  21130358.25949
    291116.03949    226841.70546         0.00041  21152011.18446  21152009.39849
   8833525.44948   6883258.42245         0.00041  22547002.11345  22546996.04048
 -10609504.76248  -8267131.29746         0.00041  22769802.85546  22769798.17648
 -17291591.94249 -13473962.71646         0.00041  20428461.80846  20428458.91649
  -9203019.08349  -7171180.98946         0.00041  20621587.37846  20621586.21749
  -8125459.50248  -6331521.07346         0.00041  22605307.69746  22605303.62248
 03 06 30 17 46 00.0000000  0  7 23 21 17 15 18 14 03
 -18177588.27949 -14164344.38346         0.00041  21127991.30846  21127988.10149
    331428.10749    258253.67546         0.00041  21159682.43946  21159680.89349
   8895880.28948   6931846.53245         0.00041  22558866.97945  22558862.09248
 -17322707.33949 -13498208.47146         0.00041  20422540.69046  20422537.57149
  -9178134.42649  -7151790.35146         0.00041  20626322.88146  20626321.36149
 -10712759.62448  -8347589.53345         0.00041  22750154.41945  22750149.25548
  -8184392.85848  -6377443.13546         0.00041  22594092.37346  22594088.61248
 03 06 30 17 46 30.0000000  0  7 23 21 17 14 15 18 03
 -18189802.11449 -14173861.64946         0.00041  21125666.75446  21125663.23049
    372038.62549    289898.20646         0.00041  21167409.93046  21167408.73849
   8958475.76848   6980622.15145         0.00041  22570777.77845  22570774.18548
 -10815794.36248  -8427876.24946         0.00041  22730547.68846  22730542.76048
 -17353562.91749 -13522251.76846         0.00041  20416669.41346  20416666.36949
  -9153007.80249  -7132211.17446         0.00041  20631104.30546  20631102.64549
  -8242882.98448  -6423019.83446         0.00041  22582961.75546  22582958.70948
 03 06 30 17 47 00.0000000  0  7 23 21 17 15 18 14 03
 -18201687.66949 -14183123.12046         0.00041  21123405.23646  21123402.08549
    413035.61449    321843.88646         0.00041  21175211.48646  21175210.12149
   9021398.90148   7029653.09345         0.00041  22582754.29745  22582747.79148
 -17384070.05349 -13546023.55946         0.00041  20410863.97746  20410860.78749
  -9127553.30749  -7112376.51246         0.00041  20635948.07846  20635946.88449
 -10918519.23248  -8507921.50046         0.00041  22710998.77746  22710995.20948
  -8300840.50248  -6468181.51846         0.00041  22571933.38246  22571929.88448
 03 06 30 17 47 30.0000000  0  7 23 21 17 14 15 18 03
 -18213272.30449 -14192150.09846         0.00041  21121200.78746  21121197.88649
    454392.92349    354070.33646         0.00041  21183081.47046  21183080.18349
   9084623.43348   7078918.86945         0.00041  22594784.41145  22594780.30348
 -11020957.75448  -8587743.63346         0.00041  22691506.26946  22691501.73848
 -17414253.54949 -13569543.15847         0.00041  20405120.35947  20405117.21549
  -9101798.82249  -7092308.08846         0.00041  20640849.02546  20640848.02649
  -8358290.00448  -6512947.33346         0.00041  22561001.23246  22560997.90848
 03 06 30 17 48 00.0000000  0  7 23 21 17 15 18 14 03
 -18224551.36449 -14200938.97646         0.00041  21119054.48546  21119051.53649
    496116.49049    386582.17346         0.00041  21191021.57746  21191020.19649
   9148155.73548   7128424.48645         0.00041  22606874.91645  22606869.84848
 -17444105.91749 -13592804.73647         0.00041  20399439.40947  20399436.24649
  -9075739.67149  -7072002.26446         0.00041  20645808.30046  20645806.70449
 -11123101.68248  -8667336.22746         0.00041  22672068.14546  22672064.02248
  -8415223.73848  -6557311.27246         0.00041  22550166.95546  22550163.69248
 03 06 30 17 48 30.0000000  0  7 23 21 17 14 15 18 03
 -18235582.49749 -14209534.66346         0.00041  21116955.54146  21116951.95649
    538150.55049    419335.95846         0.00041  21199020.23046  21199018.92949
   9211939.25248   7178125.85245         0.00041  22619012.07245  22619007.80748
 -11225004.98148  -8746741.30646         0.00041  22652677.04846  22652673.04348
 -17473682.61249 -13615851.50547         0.00041  20393811.49747  20393808.40849
  -9049434.01849  -7051504.36346         0.00041  20650813.92946  20650812.38849
  -8471696.38348  -6601315.90546         0.00041  22539420.34546  22539417.18048
 03 06 30 17 49 00.0000000  0  7 23 21 17 15 18 14 03
 -18246402.92049 -14217966.16546         0.00041  21114895.95646  21114892.81149
    580458.95649    452303.52546         0.00041  21207071.34746  21207070.17249
   9275937.55848   7227994.58945         0.00041  22631190.39845  22631186.37748
 -17503018.27849 -13638710.46147         0.00041  20388228.74547  20388225.53749
  -9022918.82349  -7030843.17446         0.00041  20655859.40746  20655858.38149
 -11326701.04548  -8825984.89946         0.00041  22633324.79446  22633320.70748
  -8527742.09948  -6644987.88046         0.00041  22528754.82746  22528752.03048
 03 06 30 17 49 30.0000000  0  7 23 21 17 14 15 18 03
 -18257023.70049 -14226242.09646         0.00041  21112875.19846  21112871.88449
    623032.06149    485477.35346         0.00041  21215172.55346  21215171.60549
   9340140.52948   7278022.75345         0.00041  22643409.35845  22643403.20648
 -11428197.54048  -8905072.99346         0.00041  22614010.48346  22614006.39748
 -17532121.40549 -13661388.21447         0.00041  20382690.68247  20382687.64049
  -8996205.46049  -7010027.56946         0.00041  20660942.91646  20660941.82349
  -8583369.32748  -6688333.76646         0.00041  22518169.79446  22518166.47348
 03 06 30 17 50 00.0000000  0  7 23 21 17 15 18 14 03
 -18267403.83349 -14234330.51146         0.00041  21110900.13946  21110896.94949
    665912.29949    518890.49046         0.00041  21223332.76646  21223331.25549
   9404590.15948   7328243.14945         0.00041  22655674.69945  22655668.31548
 -17560948.47349 -13683850.85447         0.00041  20377205.31647  20377202.15649
  -8969253.34649  -6989025.92146         0.00041  20666072.13146  20666070.70149
 -11529449.75848  -8983970.73646         0.00041  22594741.79846  22594738.66248
  -8638534.28948  -6731319.42846         0.00041  22507672.54246  22507668.16248
 03 06 30 17 50 30.0000000  0  7 23 21 17 14 15 18 03
 -18277574.91849 -14242256.01946         0.00041  21108964.74246  21108961.57849
    709069.51549    552519.45146         0.00041  21231545.55546  21231543.96349
   9469257.56348   7378633.23745         0.00041  22667978.54645  22667973.84148
 -11630485.63948  -9062699.89746         0.00041  22575515.51246  22575512.31248
 -17589528.52849 -13706121.02347         0.00041  20371766.57447  20371763.42649
  -8942094.39849  -6967863.10646         0.00041  20671240.00246  20671238.60849
  -8693265.61148  -6773967.18145         0.00041  22497256.80945  22497253.24948
 03 06 30 17 51 00.0000000  0  7 23 21 17 15 18 14 03
 -18287489.23549 -14249981.45546         0.00041  21107078.01546  21107074.40549
    752552.79849    586402.49746         0.00041  21239819.78446  21239818.32749
   9534190.29348   7429230.06045         0.00041  22680335.12445  22680330.02748
 -17617811.26549 -13728159.51547         0.00041  20366384.32347  20366381.40849
  -8914680.73849  -6946501.81546         0.00041  20676456.85446  20676455.10849
 -11731253.87848  -9141220.51746         0.00041  22556339.53646  22556336.13748
  -8747512.86948  -6816237.76545         0.00041  22486933.88545  22486931.30548
 03 06 30 17 51 30.0000000  0  7 23 21 17 14 15 18 03
 -18297166.93449 -14257522.51346         0.00041  21105236.28646  21105233.15049
    796343.34749    620524.97246         0.00041  21248152.60646  21248151.35749
   9599369.40948   7480018.89745         0.00041  22692739.55245  22692733.16148
 -11831770.84348  -9219545.33346         0.00041  22537211.83046  22537208.47148
 -17645814.20849 -13749979.98546         0.00041  20361055.51046  20361052.67849
  -8887032.78649  -6924957.96246         0.00041  20681717.93146  20681716.43749
  -8801293.20948  -6858144.51945         0.00041  22476699.54545  22476696.77248
 03 06 30 17 52 00.0000000  0  7 23 21 15 18 17 14 03
 -18306602.00649 -14264874.51046         0.00041  21103440.73246  21103437.56649
    840448.69949    654892.74146         0.00041  21256545.73546  21256544.52649
 -17673528.70449 -13771575.69346         0.00041  20355781.97746  20355778.85249
  -8859144.76149  -6903227.03646         0.00041  20687024.42746  20687023.29649
   9664801.29248   7531004.70045         0.00041  22705190.33245  22705184.64648
 -11932026.91448  -9297666.88346         0.00041  22518135.11546  22518130.56448
  -8854597.64448  -6899680.43645         0.00041  22466557.16545  22466552.92948
 03 06 30 17 52 30.0000000  0  7 23 21 17 14 15 18 03
 -18315803.60549 -14272044.58246         0.00041  21101689.55146  21101686.44949
    884861.16149    689499.82546         0.00041  21264997.65846  21264996.17849
   9730479.84748   7582182.71744         0.00041  22717689.22644  22717682.84248
 -12032027.65348  -9375589.44946         0.00041  22499104.02546  22499100.93648
 -17700961.35049 -13792951.77746         0.00041  20350561.38446  20350558.26049
  -8831026.00049  -6881316.31946         0.00041  20692375.67046  20692374.01949
  -8907432.72548  -6940850.59545         0.00041  22456502.40645  22456498.89648
 03 06 30 17 53 00.0000000  0  7 23 21 15 18 17 14 03
 -18324806.57649 -14279059.87546         0.00041  21099976.68546  21099973.48249
    929547.36449    724320.21046         0.00041  21273500.70946  21273499.57449
 -17728144.69449 -13814133.59946         0.00041  20345388.81346  20345385.67849
  -8802711.60749  -6859253.17046         0.00041  20697764.08346  20697762.26849
   9796369.33848   7633525.06844         0.00041  22730226.19644  22730219.90248
 -12131803.99648  -9453337.15546         0.00041  22480117.71046  22480114.14348
  -8959830.56448  -6981680.08245         0.00041  22446530.91545  22446528.28748
 03 06 30 17 53 30.0000000  0  7 23 21 17 14 15 18 03
 -18333595.05849 -14285908.03946         0.00041  21098303.91946  21098301.02449
    974524.40249    759367.20046         0.00041  21282059.87946  21282058.41649
   9862487.09048   7685045.33744         0.00041  22742809.79944  22742803.35448
 -12231336.90148  -9530895.17246         0.00041  22461177.00946  22461174.09048
 -17755060.25049 -13835106.74946         0.00041  20340266.68846  20340263.50749
  -8774185.99449  -6837025.43446         0.00041  20703191.56346  20703190.83449
  -9011772.27648  -7022154.15645         0.00041  22436646.90345  22436643.55548
 03 06 30 17 54 00.0000000  0  7 23 21 15 18 17 14 03
 -18342047.38749 -14292494.26546         0.00041  21096695.62246  21096692.06849
   1019915.28149    794736.67946         0.00041  21290698.11946  21290696.59449
 -17781583.60049 -13855774.29346         0.00041  20335219.62246  20335216.38549
  -8745327.33049  -6814538.17346         0.00041  20708683.33046  20708682.06349
   9928957.50148   7736840.36644         0.00041  22755458.61544  22755452.77248
 -12330500.87248  -9608165.69746         0.00041  22442306.65846  22442303.63548
  -9063133.32748  -7062175.72346         0.00041  22426874.24346  22426869.26948
 03 06 30 17 54 30.0000000  0  7 23 21 17 14 15 18 03
 -18350183.24849 -14298833.88846         0.00041  21095147.30946  21095144.21249
   1065701.51049    830414.22546         0.00041  21299410.61146  21299408.85249
   9995760.11548   7788894.24044         0.00041  22768169.66744  22768164.10148
 -12429311.97548  -9685161.27146         0.00041  22423503.95146  22423500.45948
 -17807731.88549 -13876149.58047         0.00041  20330243.95547  20330240.94649
  -8716155.74649  -6791807.08646         0.00041  20714234.74946  20714232.97249
  -9113930.91048  -7101758.20946         0.00041  22417207.46646  22417202.88348
 03 06 30 17 55 00.0000000  0  7 23 21 15 18 17 14 03
 -18358034.74849 -14304951.94046         0.00041  21093653.32546  21093650.33249
   1111852.50649    866376.01146         0.00041  21308192.79046  21308190.97449
 -17833534.72749 -13896255.69446         0.00041  20325333.43546  20325330.33049
  -8686703.44849  -6768857.26046         0.00041  20719839.27246  20719837.70649
  10062865.63548   7841184.16444         0.00041  22780939.40344  22780934.79048
 -12527798.72448  -9761904.09546         0.00041  22404761.95446  22404758.96048
  -9164194.43448  -7140924.55746         0.00041  22407642.87346  22407639.04448
 03 06 30 17 55 30.0000000  0  7 23 21 17 15 18 14 03
 -18365689.20149 -14310916.43346         0.00041  21092196.94346  21092193.88549
   1158282.73549    902555.37346         0.00041  21317028.07846  21317026.93349
  10130186.77348   7893642.09044         0.00041  22793748.90744  22793745.99048
 -17859076.88849 -13916158.67547         0.00041  20320473.21247  20320470.27649
  -8657057.71849  -6745756.70246         0.00041  20725480.78846  20725479.08449
 -12626044.70248  -9838459.30846         0.00041  22386067.18346  22386063.54248
  -9214008.32148  -7179740.55846         0.00041  22398162.13946  22398159.89348
 03 06 30 17 56 00.0000000  0  7 23 21 15 18 17 14 03
 -18373151.51649 -14316731.21346         0.00041  21090776.73346  21090773.56449
   1204988.24849    938949.23846         0.00041  21325916.14646  21325914.36449
 -17884360.58849 -13935860.24947         0.00041  20315662.03847  20315658.99349
  -8627223.50049  -6722509.27546         0.00041  20731157.96946  20731156.50149
  10197719.51948   7946264.91944         0.00041  22806602.18544  22806595.68548
 -12724051.25048  -9914827.94846         0.00041  22367416.22646  22367412.92948
  -9263374.66148  -7218207.83246         0.00041  22388768.34546  22388765.68248
 03 06 30 17 56 30.0000000  0  7 23 21 17 15 18 14 03
 -18380398.79349 -14322378.43846         0.00041  21089397.54746  21089394.73849
   1251993.31149    975576.51846         0.00041  21334860.65346  21334858.79049
  10265487.73148   7999071.21044         0.00041  22819492.00444  22819492.00448
 -17909360.43749 -13955340.64546         0.00041  20310904.25546  20310901.09449
  -8597178.37249  -6699097.49046         0.00041  20736875.57146  20736873.84349
 -12821791.97648  -9990989.46046         0.00041  22348816.18146  22348812.78248
  -9312267.98148  -7256306.50446         0.00041  22379464.58146  22379461.08048
 03 06 30 17 57 00.0000000  0  7 23 21 15 18 17 14 03
 -18387374.42349 -14327813.98246         0.00041  21088070.33346  21088067.27949
   1299355.69449   1012482.21946         0.00041  21343873.85946  21343871.87849
 -17934017.14049 -13974553.65947         0.00041  20306212.45747  20306209.57649
  -8566865.78049  -6675477.29946         0.00041  20742643.89646  20742642.31549
  10333549.64948   8052116.61044         0.00041  22832443.94944  22832443.94948
 -12919206.69948 -10066896.92846         0.00041  22330279.57646  22330275.93248
  -9360628.99648  -7293990.38146         0.00041  22370262.35446  22370258.91748
 03 06 30 17 57 30.0000000  0  7 23 21 17 14 15 18 03
 -18394135.38449 -14333082.26346         0.00041  21086783.56946  21086780.44449
   1347019.78049   1049623.01746         0.00041  21352943.58746  21352942.41349
  10401850.00748   8105327.30944         0.00041  22845440.70744  22845440.70748
 -13016348.48048 -10142591.73346         0.00041  22311794.13246  22311790.72148
 -17958385.01949 -13993541.61447         0.00041  20301575.45247  20301572.53249
  -8536342.73949  -6651693.11646         0.00041  20748452.12146  20748450.68149
  -9408511.90048  -7331301.70946         0.00041  22361150.45546  22361147.02048
 03 06 30 17 58 00.0000000  0  7 23 21 15 18 17 14 03
 -18400700.26849 -14338197.75446         0.00041  21085534.46546  21085531.82549
   1394968.54449   1086985.65946         0.00041  21362067.73046  21362066.38049
 -17982480.12949 -14012317.02347         0.00041  20296990.36347  20296987.23849
  -8505628.05149  -6627759.60046         0.00041  20754296.91146  20754295.40749
  10470370.10648   8158729.95344         0.00041  22858479.13544  22858479.13548
 -13113232.62848 -10218085.77846         0.00041  22293357.44246  22293354.24948
  -9455932.71448  -7368252.97846         0.00041  22352126.20046  22352122.95248
 03 06 30 17 58 30.0000000  0  7 23 21 17 14 15 18 03
 -18407053.57049 -14343148.37646         0.00041  21084325.27346  21084322.06649
   1443218.76749   1124583.19546         0.00041  21371249.93246  21371248.19249
  10539126.66748   8212295.94044         0.00041  22871571.05844  22871564.46448
 -13209839.83248 -10293364.02046         0.00041  22274973.34446  22274970.24748
 -18006284.37549 -14030865.77947         0.00041  20292460.42647  20292457.46949
  -8474706.38749  -6603664.80346         0.00041  20760180.98646  20760179.57149
  -9502873.31548  -7404830.05646         0.00041  22343193.22646  22343190.33348
 03 06 30 17 59 00.0000000  0  7 23 21 17 15 18 14 03
 -18413122.00849 -14347877.02446         0.00041  21083170.64146  21083167.47449
   1491845.07749   1162473.77346         0.00041  21380503.23546  21380501.50249
  10608193.70548   8266114.26744         0.00041  22884712.32344  22884706.23448
 -18029722.03149 -14049128.87847         0.00041  20288000.55747  20287997.48849
  -8443504.54949  -6579351.69046         0.00041  20766118.71446  20766116.88249
 -13306093.69148 -10368366.92646         0.00041  22256657.14446  22256653.33548
  -9549257.83848  -7440973.83346         0.00041  22334367.52346  22334363.55148
 03 06 30 17 59 30.0000000  0  7 23 21 17 15 18 14 03
 -18418896.60849 -14352376.70546         0.00041  21082071.57346  21082069.14449
   1540857.70849   1200665.38346         0.00041  21389830.26346  21389828.34249
  10677581.68048   8320182.67544         0.00041  22897917.82944  22897911.12748
 -18052781.50249 -14067097.28947         0.00041  20283612.36547  20283609.48649
  -8412013.86349  -6554813.50146         0.00041  20772111.39146  20772109.85849
 -13401981.38748 -10443084.53046         0.00041  22238410.07046  22238406.24848
  -9595074.71248  -7476675.29146         0.00041  22325648.81046  22325645.14948
 03 06 30 18 00 00.0000000  0  7 23 21 15 18 17 14 03
 -18424374.73249 -14356645.37046         0.00041  21081029.19046  21081025.87849
   1590260.32449   1239160.87746         0.00041  21399231.87046  21399229.15749
 -18075457.63849 -14084767.00447         0.00041  20279297.26747  20279294.30349
  -8380231.53249  -6530048.05446         0.00041  20778159.19246  20778157.87149
  10747293.60248   8374503.56544         0.00041  22911182.01344  22911177.23748
 -13497496.73748 -10517511.97346         0.00041  22220233.75746  22220230.19448
  -9640318.68848  -7511930.30846         0.00041  22317039.74146  22317035.32148
 03 06 30 18 00 30.0000000  0  7 23 21 17 15 18 14 03
 -18429631.64949 -14360741.66246         0.00041  21080028.91446  21080025.84849
   1639978.98349   1277902.63846         0.00041  21408693.20146  21408690.53949
  10817256.15348   8429019.71444         0.00041  22924497.10844  22924490.43348
 -18097823.04149 -14102194.58247         0.00041  20275041.04047  20275037.88549
  -8348233.01349  -6505114.15046         0.00041  20784248.13046  20784246.95849
 -13592711.33248 -10591705.08146         0.00041  22202114.87246  22202111.55548
  -9685062.37248  -7546795.49146         0.00041  22308524.49846  22308520.07848
 03 06 30 18 01 00.0000000  0  7 23 21 15 18 17 14 03
 -18434753.79049 -14364732.93646         0.00041  21079053.93546  21079051.28149
   1689928.47749   1316824.26346         0.00041  21418197.48146  21418195.66949
 -18119961.68949 -14119445.47147         0.00041  20270828.21647  20270825.25149
  -8316104.50749  -6480078.96646         0.00041  20790361.96146  20790360.75649
  10887382.88348   8483663.81244         0.00041  22937836.45844  22937835.70348
 -13687708.15548 -10665728.49646         0.00041  22184037.84746  22184034.31648
  -9729389.61548  -7581336.18646         0.00041  22300088.63646  22300085.20548
 03 06 30 18 01 30.0000000  0  7 23 21 17 14 15 18 03
 -18439732.29449 -14368612.28646         0.00041  21078106.99846  21078103.97549
   1740119.22349   1355933.88646         0.00041  21427748.47546  21427746.53349
  10957685.10748   8538444.67644         0.00041  22951221.33944  22951214.31748
 -13782474.95248 -10739572.66646         0.00041  22166004.15546  22166000.65348
 -18141862.02649 -14136510.66547         0.00041  20266661.07347  20266657.93749
  -8283837.79149  -6454936.08146         0.00041  20796502.29446  20796500.99549
  -9773288.85648  -7615543.38746         0.00041  22291734.74346  22291731.45148
 03 06 30 18 02 00.0000000  0  7 23 21 17 15 18 14 03
 -18444523.75249 -14372345.87846         0.00041  21077195.02846  21077191.64749
   1790595.58649   1395266.08546         0.00041  21437354.28646  21437351.83549
  11028206.00348   8593395.94744         0.00041  22964639.66244  22964633.68148
 -18163478.13649 -14153354.37847         0.00041  20262547.32247  20262544.29949
  -8251389.45049  -6429651.66546         0.00041  20802677.20946  20802675.79349
 -13876964.83148 -10813201.05646         0.00041  22148023.18246  22148019.41348
  -9816714.66448  -7649381.68746         0.00041  22283471.41146  22283468.47848
 03 06 30 18 02 30.0000000  0  7 23 21 17 15 18 14 03
 -18449152.80149 -14375952.92646         0.00041  21076313.96146  21076310.79849
   1841334.39749   1434802.79346         0.00041  21447009.67546  21447007.81249
  11098921.95048   8648499.18544         0.00041  22978094.35244  22978090.51548
 -18184831.85249 -14169993.62647         0.00041  20258483.82147  20258480.86249
  -8218784.06149  -6404244.87146         0.00041  20808881.63546  20808880.19449
 -13971198.81948 -10886630.05146         0.00041  22130090.53546  22130087.31848
  -9859689.06748  -7682868.23846         0.00041  22275293.87846  22275290.51448
 03 06 30 18 03 00.0000000  0  7 23 21 15 18 17 14 03
 -18453592.78449 -14379412.64346         0.00041  21075469.31146  21075466.24749
   1892363.42449   1474565.61846         0.00041  21456719.58746  21456717.76349
 -18205894.19249 -14186405.83547         0.00041  20254475.80347  20254472.62349
  -8185995.28249  -6378695.17846         0.00041  20815120.77746  20815119.63249
  11169860.92648   8703776.19044         0.00041  22991594.27144  22991590.05148
 -14065146.64048 -10959836.05746         0.00041  22112213.94946  22112210.11248
  -9902182.80548  -7715980.23446         0.00041  22267208.17146  22267204.20148
 03 06 30 18 03 30.0000000  0  7 23 21 17 15 18 14 03
 -18457750.26949 -14382652.23046         0.00041  21074677.56346  21074675.12849
   1943777.18349   1514628.23946         0.00041  21466503.66346  21466501.64949
  11241117.03248   8759300.33544         0.00041  23005150.79244  23005149.65348
 -18226569.09949 -14202516.14447         0.00041  20250541.59647  20250538.49249
  -8152929.81549  -6352929.87946         0.00041  20821413.45446  20821412.28749
 -14158711.53648 -11032743.68646         0.00041  22094407.83946  22094404.61648
  -9944100.28548  -7748643.20446         0.00041  22259231.34646  22259228.16648
 03 06 30 18 04 00.0000000  0  7 23 21 15 18 17 14 03
 -18461593.58449 -14385647.01246         0.00041  21073946.97246  21073943.79049
   1995608.91149   1555016.55146         0.00041  21476367.39546  21476365.36049
 -18246822.23349 -14218297.80147         0.00041  20246687.44247  20246684.25649
  -8119555.63049  -6326924.02746         0.00041  20827764.09746  20827762.57149
  11312722.64448   8815096.80844         0.00041  23018779.47044  23018775.31648
 -14251858.15648 -11105325.39046         0.00041  22076682.46346  22076679.24748
  -9985407.07948  -7780830.31846         0.00041  22251370.59946  22251366.97248
 03 06 30 18 04 30.0000000  0  7 23 21 17 15 18 14 03
 -18465178.60849 -14388440.53146         0.00041  21073264.62246  21073261.59349
   2047803.63749   1595687.70846         0.00041  21486299.42646  21486297.52649
  11384624.32548   8871123.95244         0.00041  23032465.66044  23032458.70248
 -18266707.04949 -14233792.45847         0.00041  20242903.54847  20242900.74149
  -8085929.36049  -6300721.74346         0.00041  20834163.17846  20834161.39549
 -14344639.18948 -11177622.20446         0.00041  22059027.29546  22059024.18948
 -10026156.80048  -7812583.35546         0.00041  22243616.05846  22243612.43648
 03 06 30 18 05 00.0000000  0  7 23 15 18 21 17 14 03
 -18468470.99249 -14391006.02146         0.00041  21072638.10846  21072634.97649
 -18286186.44949 -14248971.20747         0.00041  20239196.80647  20239193.91249
  -8052016.39149  -6274296.05146         0.00041  20840616.48846  20840615.06049
   2100397.09048   1636669.56746         0.00041  21496307.32646  21496305.06148
  11456856.21048   8927408.42344         0.00041  23046210.00344  23046203.73048
 -14437016.38248 -11249604.34846         0.00041  22041447.84146  22041445.29548
 -10066312.69348  -7843873.64646         0.00041  22235975.14646  22235970.91348
 03 06 30 18 05 30.0000000  0  7 23 15 18 21 17 14 03
 -18471473.58949 -14393345.70546         0.00041  21072066.51946  21072063.59549
 -18305261.00749 -14263834.49847         0.00041  20235567.07247  20235564.02949
  -8017819.73049  -6247649.30546         0.00041  20847123.87946  20847122.21349
   2153387.75049   1677960.93846         0.00041  21506391.52746  21506389.41749
  11529415.81948   8983948.25845         0.00041  23060016.83945  23060010.94748
 -14528989.31748 -11321271.49646         0.00041  22023946.24246  22023942.57848
 -10105875.19348  -7874701.54446         0.00041  22228446.65846  22228442.68548
 03 06 30 18 06 00.0000000  0  8 23 15 18 21 17 31 14 03
 -18474226.69749 -14395490.97946         0.00041  21071543.02046  21071540.06349
 -18323968.46549 -14278411.73647         0.00041  20232007.13647  20232004.08449
  -7983379.52349  -6220812.79046         0.00041  20853677.63246  20853676.01149
   2206736.28949   1719531.18246         0.00041  21516543.63546  21516541.42949
  11602264.34548   9040713.23544         0.00041  23073880.50044  23073874.06248
        -0.80857        -0.68854         0.00051  23931584.91854  23931584.91857
 -14620595.05148 -11392652.50846         0.00041  22006513.97646  22006510.46548
 -10144882.43448  -7905096.78746         0.00041  22221023.34446  22221019.94348
 03 06 30 18 06 30.0000000  0  8 23 15 18 21 17 31 14 03
 -18476749.15149 -14397456.51846         0.00041  21071062.40346  21071059.57749
 -18342324.84949 -14292715.41347         0.00041  20228513.95747  20228511.22649
  -7948714.83149  -6193801.36146         0.00041  20860273.99246  20860272.71649
   2260424.79249   1761366.32746         0.00041  21526759.85846  21526758.06949
  11675384.24748   9097689.65544         0.00041  23087794.88744  23087788.95748
    -80061.72347    -62385.75844         0.00041  23916348.67344  23916348.67347
 -14711848.78948 -11463759.23746         0.00041  21989148.74446  21989145.45848
 -10183350.76548  -7935072.09646         0.00041  22213703.02246  22213699.85648
 03 06 30 18 07 00.0000000  0  8 23 15 18 21 17 31 14 03
 -18479009.25749 -14399217.63246         0.00041  21070632.45946  21070629.66149
 -18360295.92549 -14306718.85247         0.00041  20225094.03747  20225091.15849
  -7913793.89149  -6166590.25646         0.00041  20866919.16846  20866918.01549
   2314486.41348   1803492.21446         0.00041  21537048.39546  21537045.39448
  11748807.39048   9154902.35144         0.00041  23101768.43344  23101760.60448
   -159698.58947   -124440.35244         0.00041  23901193.80744  23901193.80747
 -14802715.45348 -11534564.35446         0.00041  21971857.34446  21971854.27648
 -10221246.13648  -7964600.94646         0.00041  22206492.08346  22206488.86748
 03 06 30 18 07 30.0000000  0  8 23 15 18 21 17 31 14 03
 -18481626.78049 -14401257.25246         0.00041  21070134.62146  21070131.44749
 -18378498.96349 -14320903.03847         0.00041  20221630.21947  20221627.31149
  -7879236.77749  -6139662.64946         0.00041  20873495.52546  20873494.03349
   2368302.68248   1845426.90446         0.00041  21547288.72446  21547286.41848
  11821914.28948   9211868.65644         0.00041  23115678.25544  23115671.85848
   -239527.74248   -186644.79744         0.00041  23886003.20344  23886003.20348
 -14893811.48648 -11605548.18746         0.00041  21954522.95746  21954519.21248
 -10259186.08148  -7994164.50546         0.00041  22199272.36946  22199268.48048
 03 06 30 18 08 00.0000000  0  8 23 15 18 21 17 31 14 03
 -18483818.89849 -14402965.38746         0.00041  21069717.43846  21069714.33449
 -18396148.52949 -14334655.94147         0.00041  20218271.89147  20218268.84449
  -7844260.46749  -6112408.39046         0.00041  20880151.47646  20880150.30949
   2422657.34649   1887781.13346         0.00041  21557631.82246  21557630.41949
  11895489.56348   9269199.96144         0.00041  23129679.39644  23129673.45748
   -318762.80448   -248386.33144         0.00041  23870929.96644  23870923.10348
 -14984350.40848 -11676097.91446         0.00041  21937293.76946  21937290.23248
 -10296385.46748  -8023151.01446         0.00041  22192192.99646  22192189.81948
 03 06 30 18 08 30.0000000  0  8 23 15 18 21 17 31 14 03
 -18485913.61249 -14404597.63146         0.00041  21069318.73946  21069315.62449
 -18413570.14449 -14348231.22247         0.00041  20214956.35847  20214953.42549
  -7809193.38549  -6085083.38946         0.00041  20886824.24046  20886822.67349
   2477223.44549   1930300.13446         0.00041  21568015.70846  21568013.91849
  11969206.95348   9326641.99944         0.00041  23143707.75344  23143701.07948
   -397728.40648   -309917.87244         0.00041  23855905.64944  23855897.80048
 -15074657.02848 -11746466.63046         0.00041  21920108.82446  21920105.91848
 -10333170.08148  -8051814.35546         0.00041  22185193.56846  22185190.37448
 03 06 30 18 09 00.0000000  0  8 23 15 18 21 17 31 14 03
 -18487702.07949 -14405991.23546         0.00041  21068978.45146  21068975.74249
 -18430552.50149 -14361464.22147         0.00041  20211724.63847  20211721.84849
  -7773826.55849  -6057524.82346         0.00041  20893554.16746  20893552.64749
   2532211.05549   1973147.57246         0.00041  21578479.96146  21578477.60549
  12043274.64348   9384357.03144         0.00041  23157803.57044  23157795.37948
   -476212.22448   -371074.00444         0.00041  23840966.92744  23840963.47448
 -15164519.15448 -11816488.98146         0.00041  21903008.78746  21903005.94148
 -10369328.98748  -8079990.12746         0.00041  22178312.53446  22178308.97048
 03 06 30 18 09 30.0000000  0  8 23 15 18 21 17 31 14 03
 -18489096.97749 -14407078.16446         0.00041  21068713.01946  21068709.85249
 -18447005.90649 -14374285.04847         0.00041  20208593.92347  20208590.97549
  -7738072.54249  -6029664.55146         0.00041  20900358.02246  20900356.62549
   2587708.40148   2016392.19446         0.00041  21589040.60646  21589037.69748
  12117781.47648   9442414.17844         0.00041  23171983.25144  23171973.57148
   -554123.40048   -431783.96044         0.00041  23826142.46844  23826137.38548
 -15253846.03648 -11886094.26746         0.00041  21886009.85846  21886007.07848
 -10404772.34548  -8107608.33946         0.00041  22171567.42146  22171564.27448
 03 06 30 18 10 00.0000000  0  8 23 15 18 21 17 31 14 03
 -18490128.11549 -14407881.64546         0.00041  21068516.66246  21068513.54949
 -18462957.45149 -14386714.82247         0.00041  20205558.51147  20205555.59049
  -7701961.52049  -6001526.08846         0.00041  20907229.59646  20907228.40149
   2643687.03549   2060011.85046         0.00041  21599692.76646  21599691.07849
  12192698.48748   9500790.99744         0.00041  23186237.53044  23186230.66848
   -631488.23148   -492068.19144         0.00041  23811417.49844  23811415.38848
 -15342663.90048 -11955302.92546         0.00041  21869108.50146  21869105.91348
 -10439527.79748  -8134690.52446         0.00041  22164953.98446  22164950.63948
 03 06 30 18 10 30.0000000  0  8 23 15 18 21 17 31 14 03
 -18490845.00749 -14408440.26046         0.00041  21068380.36446  21068377.33849
 -18478454.11549 -14398790.14147         0.00041  20202609.34847  20202606.55049
  -7665542.36349  -5973147.52846         0.00041  20914159.99846  20914158.75349
   2700098.41249   2103968.72146         0.00041  21610426.59346  21610425.50649
  12267976.31848   9559448.96844         0.00041  23200564.76144  23200555.57748
   -708352.82848   -551962.59244         0.00041  23796794.74244  23796788.71148
 -15431019.11048 -12024151.05846         0.00041  21852294.94246  21852292.39848
 -10473642.66348  -8161273.54746         0.00041  22158462.35146  22158458.54548
 03 06 30 18 11 00.0000000  0  8 23 15 18 21 17 31 14 03
 -18491390.92249 -14408865.63746         0.00041  21068276.08146  21068273.52149
 -18493636.60249 -14410620.64747         0.00041  20199720.20547  20199717.13949
  -7628959.15149  -5944641.13446         0.00041  20921121.30646  20921120.43549
   2756800.37448   2148152.00946         0.00041  21621217.65446  21621215.52648
  12343473.41948   9618277.75344         0.00041  23214925.43544  23214922.20648
   -784856.91948   -611576.09444         0.00041  23782235.98744  23782231.17248
 -15519051.39048 -12092747.56346         0.00041  21835543.11146  21835539.71848
 -10507258.25748  -8187467.51546         0.00041  22152065.83946  22152061.50048
 03 06 30 18 11 30.0000000  0  8 23 15 18 21 17 31 14 03
 -18491837.63349 -14409213.71546         0.00041  21068191.01846  21068188.31149
 -18508574.18149 -14422260.32147         0.00041  20196877.77747  20196874.67349
  -7592283.27149  -5916062.53446         0.00041  20928100.58946  20928099.57849
   2813722.35848   2192506.76346         0.00041  21632049.90246  21632047.63548
  12419118.30548   9677221.68044         0.00041  23229316.77444  23229316.77448
   -861068.91948   -670962.00044         0.00041  23767734.79944  23767728.54648
 -15606829.24948 -12161145.82546         0.00041  21818838.74046  21818835.55248
 -10540444.42248  -8213326.84846         0.00041  22145750.94146  22145746.85348
 03 06 30 18 12 00.0000000  0  8 23 15 18 21 17 31 14 03
 -18492204.48849 -14409499.56746         0.00041  21068121.51246  21068118.33449
 -18523283.67249 -14433722.25947         0.00041  20194078.63547  20194075.70849
  -7555534.15049  -5887426.87046         0.00041  20935094.12446  20935092.70749
   2870846.01348   2237018.65946         0.00041  21642919.70846  21642917.54848
  12494892.01348   9736265.98744         0.00041  23243743.77544  23243737.07448
   -937004.71448   -730132.69844         0.00041  23753283.20344  23753278.55748
 -15694368.99548 -12229358.53646         0.00041  21802180.81246  21802177.54348
 -10573218.11948  -8238864.77646         0.00041  22139513.80346  22139510.24048
 03 06 30 18 12 30.0000000  0  8 23 15 18 21 17 31 14 03
 -18492498.52049 -14409728.67946         0.00041  21068065.35246  21068062.16749
 -18537769.62549 -14445010.01247         0.00041  20191322.24147  20191319.27649
  -7518718.89349  -5858739.66446         0.00041  20942099.61646  20942098.15149
   2928165.18948   2281682.89146         0.00041  21653827.57946  21653825.00948
  12570788.78448   9795406.22144         0.00041  23258181.10544  23258179.57748
  -1012667.87348   -789090.94944         0.00041  23738885.71644  23738879.03748
 -15781674.05048 -12297388.37746         0.00041  21785567.40346  21785564.25648
 -10605584.25348  -8264085.12346         0.00041  22133354.11646  22133350.94648
 03 06 30 18 13 00.0000000  0  8 23 15 18 21 17 31 14 03
 -18492696.26349 -14409882.75246         0.00041  21068027.59746  21068024.48149
 -18552006.14649 -14456103.40947         0.00041  20188613.22547  20188610.16849
  -7481814.02649  -5829982.62846         0.00041  20949122.52546  20949121.15049
   2985704.49048   2326518.65646         0.00041  21664777.53446  21664774.68048
  12646833.23548   9854661.50844         0.00041  23272658.97744  23272650.53848
  -1088031.75448   -847816.01744         0.00041  23724544.20444  23724538.66948
 -15868717.80648 -12365214.60946         0.00041  21769003.44446  21769000.19848
 -10637517.36748  -8288968.06546         0.00041  22127277.08346  22127274.78348
 03 06 30 18 13 30.0000000  0  8 23 15 18 21 17 31 14 03
 -18492764.17649 -14409935.66246         0.00041  21068014.97546  21068011.83749
 -18565957.15349 -14466974.33247         0.00041  20185958.11947  20185955.33249
  -7444786.12249  -5801129.72446         0.00041  20956168.72046  20956167.14749
   3043498.41648   2371552.82646         0.00041  21675775.30346  21675772.68348
  12723059.32148   9914058.38644         0.00041  23287165.78044  23287156.84448
  -1163059.15248   -906278.86444         0.00041  23710265.06544  23710262.03748
 -15955463.37348 -12432808.49246         0.00041  21752496.40446  21752493.38948
 -10668982.02948  -8313485.98146         0.00041  22121289.87946  22121287.06248
 03 06 30 18 14 00.0000000  0  8 23 15 18 21 17 31 14 03
 -18492577.19649 -14409789.95446         0.00041  21068050.65346  21068047.47149
 -18579495.23349 -14477523.48747         0.00041  20183381.97947  20183379.24949
  -7407510.00449  -5772083.40446         0.00041  20963262.06746  20963260.65849
   3101673.05948   2416883.65546         0.00041  21686845.53546  21686842.85748
  12799592.37748   9973694.37844         0.00041  23301726.96544  23301719.48948
  -1237621.75348   -964379.50544         0.00041  23696076.82144  23696071.66048
 -16041782.51048 -12500070.09046         0.00041  21736070.01946  21736067.15248
 -10699851.20048  -8337539.88146         0.00041  22115415.70046  22115412.30948
 03 06 30 18 14 30.0000000  0  8 23 15 18 21 17 31 14 03
 -18492117.50349 -14409431.74946         0.00041  21068137.90646  21068134.93049
 -18592600.05749 -14487735.04947         0.00041  20180888.17047  20180885.24149
  -7369968.43949  -5742830.24546         0.00041  20970405.99046  20970404.51249
   3160247.18049   2462525.76946         0.00041  21697991.56346  21697989.59849
  12876450.91248  10033584.03044         0.00041  23316352.42044  23316345.55348
  -1311698.51148  -1022101.62644         0.00041  23681980.15244  23681974.27548
 -16127654.16748 -12566983.00746         0.00041  21719728.89946  21719726.25948
 -10730105.23248  -8361114.43446         0.00041  22109659.10046  22109655.13748
 03 06 30 18 15 00.0000000  0  8 23 15 18 21 17 31 14 03
 -18491509.15349 -14408957.70046         0.00041  21068253.56246  21068250.94549
 -18605393.05649 -14497703.62347         0.00041  20178453.63347  20178451.02849
  -7332285.09549  -5713466.61046         0.00041  20977577.01346  20977575.68549
   3219098.00749   2508383.49846         0.00041  21709190.62946  21709188.35649
  12953512.15748  10093631.65144         0.00041  23331015.42744  23331009.72948
  -1385409.92148  -1079539.04344         0.00041  23667954.65244  23667948.16248
 -16213198.85748 -12633641.13446         0.00041  21703450.94746  21703448.04048
 -10759865.88848  -8384304.55046         0.00041  22103996.23946  22103992.56048
 03 06 30 18 15 30.0000000  0  8 23 15 18 21 17 31 14 03
 -18490761.86049 -14408375.38046         0.00041  21068396.03046  21068393.06849
 -18617881.60549 -14507434.96647         0.00041  20176077.41447  20176074.35349
  -7294469.81249  -5684000.16846         0.00041  20984772.74546  20984771.33449
   3278216.64848   2554449.91646         0.00041  21720440.09546  21720438.19848
  13030768.01748  10153830.89044         0.00041  23345710.19444  23345710.19448
  -1458762.47348  -1136696.85644         0.00041  23653992.75544  23653989.96648
 -16298423.30649 -12700049.72946         0.00041  21687232.80246  21687230.22849
 -10789140.96448  -8407116.30546         0.00041  22098425.11946  22098421.71448
 03 06 30 18 16 00.0000000  0  7 23 15 18 21 31 14 03
 -18489696.99249 -14407545.61046         0.00041  21068598.32146  21068595.90649
 -18629884.48349 -14516787.86647         0.00041  20173793.31747  20173790.27149
  -7256343.49949  -5654291.35746         0.00041  20992028.09146  20992026.66849
   3337782.19548   2600864.57246         0.00041  21731775.44346  21731773.15248
  -1531574.08948  -1193433.13944         0.00041  23640140.07244  23640134.81548
 -16383145.67448 -12766067.10046         0.00041  21671111.03446  21671107.83048
 -10817749.81948  -8429408.92646         0.00041  22092980.95846  22092977.78848
 03 06 30 18 16 30.0000000  0  7 23 15 18 21 31 14 03
 -18488271.06349 -14406434.49046         0.00041  21068869.85046  21068866.86349
 -18641355.88349 -14525726.62947         0.00041  20171610.09847  20171607.37449
  -7217863.05149  -5624306.60446         0.00041  20999351.15946  20999349.27949
   3397839.46048   2647662.36246         0.00041  21743205.14446  21743202.21848
  -1603798.17348  -1249711.62744         0.00041  23626396.38944  23626391.04048
 -16467319.45449 -12831656.99646         0.00041  21655093.35046  21655090.25649
 -10845647.34848  -8451147.26646         0.00041  22087671.51746  22087669.18348
 03 06 30 18 17 00.0000000  0  7 23 15 18 21 31 14 03
 -18486439.83949 -14405007.55346         0.00041  21069218.52046  21069215.69149
 -18652249.32049 -14534215.03347         0.00041  20169537.26347  20169534.48149
  -7178984.11449  -5594011.34846         0.00041  21006749.28646  21006747.65649
   3458433.53948   2694878.45846         0.00041  21754734.42746  21754732.12148
  -1675387.16848  -1305495.23144         0.00041  23612775.04544  23612767.66848
 -16550896.91948 -12896782.23146         0.00041  21639188.77046  21639185.69048
 -10872787.48948  -8472295.43146         0.00041  22082507.10246  22082504.33648
 03 06 30 18 17 30.0000000  0  7 23 15 18 21 31 14 03
 -18484375.08749 -14403398.65146         0.00041  21069611.22246  21069608.06349
 -18662733.75949 -14542384.73947         0.00041  20167542.24147  20167539.61849
  -7139878.51749  -5563539.45746         0.00041  21014190.26946  21014189.29749
   3519393.84349   2742379.93146         0.00041  21766335.31846  21766333.67249
  -1746509.45848  -1360915.14844         0.00041  23599237.71244  23599234.02848
 -16634046.66048 -12961574.18746         0.00041  21623365.33846  21623362.17248
 -10899340.13148  -8492985.79746         0.00041  22077454.72246  22077451.32748
 03 06 30 18 18 00.0000000  0  7 23 15 18 21 31 14 03
 -18482283.86649 -14401769.12346         0.00041  21070009.18746  21070006.29849
 -18673014.05849 -14550395.36747         0.00041  20165586.00847  20165583.17649
  -7100753.24149  -5533052.23246         0.00041  21021635.63646  21021634.46749
   3580513.97749   2790005.95246         0.00041  21777966.02846  21777964.28949
  -1817368.80248  -1416130.18444         0.00041  23585755.15744  23585749.78448
 -16716972.61649 -13026191.75446         0.00041  21607585.88746  21607582.84449
 -10925510.47748  -8513378.24846         0.00041  22072474.79846  22072470.98848
 03 06 30 18 18 30.0000000  0  8 23 15 18 21 09 31 14 03
 -18480139.69849 -14400098.33646         0.00041  21070417.10246  21070414.20049
 -18683061.30949 -14558224.40247         0.00041  20163673.96647  20163670.92949
  -7061581.88849  -5502529.10746         0.00041  21029089.94246  21029088.54549
   3641821.35448   2837777.88246         0.00041  21789632.92746  21789629.72648
        -0.22057        -0.17254         0.00051  23472477.10654  23472477.10657
  -1887935.49948  -1471117.20244         0.00041  23572325.04744  23572321.42748
 -16799645.25449 -13090611.92246         0.00041  21591853.56946  21591850.57349
 -10951270.18248  -8533450.73146         0.00041  22067573.32146  22067570.00648
 03 06 30 18 19 00.0000000  0  8 23 15 18 21 09 31 14 03
 -18477845.50949 -14398310.65246         0.00041  21070853.63246  21070850.95649
 -18692775.85349 -14565794.18647         0.00041  20161825.50747  20161822.33449
  -7022267.25849  -5471894.33546         0.00041  21036571.56946  21036570.29849
   3703414.02848   2885772.11546         0.00041  21801353.35846  21801350.57048
    -29491.65448    -22980.50944         0.00041  23466865.45844  23466865.45848
  -1958109.28848  -1525798.06044         0.00041  23558974.29444  23558967.88948
 -16881964.41649 -13154756.65946         0.00041  21576188.27746  21576185.46649
 -10976520.50448  -8553126.29346         0.00041  22062768.53046  22062765.34748
 03 06 30 18 19 30.0000000  0  8 23 15 18 21 09 31 14 03
 -18475497.84249 -14396481.29246         0.00041  21071300.70146  21071297.87149
 -18702251.81649 -14573178.05647         0.00041  20160022.00347  20160019.03649
  -6982906.04049  -5441223.26946         0.00041  21044061.50246  21044060.26549
   3765196.25548   2933914.04346         0.00041  21813109.81446  21813107.84048
    -58615.04348    -45674.05944         0.00041  23461324.26244  23461324.26248
  -2027983.45648  -1580245.45545         0.00041  23545675.56845  23545670.67248
 -16964023.58349 -13218698.80846         0.00041  21560572.86346  21560569.99349
 -11001356.27048  -8572478.83646         0.00041  22058041.95846  22058038.76648
 03 06 30 18 20 00.0000000  0  8 23 15 18 21 09 31 14 03
 -18473097.70249 -14394611.05046         0.00041  21071757.13146  21071754.74149
 -18711488.04049 -14580375.11246         0.00041  20158264.34046  20158261.80349
  -6943499.01049  -5410516.49946         0.00041  21051560.38546  21051559.04149
   3827167.97348   2982203.63146         0.00041  21824903.59046  21824900.51148
    -87368.32048    -68079.21044         0.00041  23455853.44144  23455853.44148
  -2097555.94748  -1634457.76644         0.00041  23532435.51544  23532430.95648
 -17045820.63349 -13282436.70146         0.00041  21545007.30846  21545004.72949
 -11025776.95048  -8591507.93546         0.00041  22053394.34046  22053391.19648
 03 06 30 18 20 30.0000000  0  8 23 15 18 21 09 31 14 03
 -18470520.96049 -14392603.19346         0.00041  21072247.40846  21072244.90049
 -18720357.83949 -14587286.64547         0.00041  20156576.81947  20156573.80249
  -6903922.23949  -5379677.46646         0.00041  21059091.64646  21059090.10849
   3889453.67248   3030737.87046         0.00041  21836755.93546  21836753.02648
   -115624.12947    -90096.72444         0.00041  23450475.18244  23450475.18247
  -2166699.23448  -1688335.64244         0.00041  23519278.92244  23519272.53948
 -17127228.35449 -13345871.22846         0.00041  21529515.53046  21529513.06649
 -11049656.56648  -8610115.42946         0.00041  22048850.26846  22048847.16048
 03 06 30 18 21 00.0000000  0  8 23 15 18 21 09 31 14 03
 -18467650.38349 -14390366.37346         0.00041  21072793.54146  21072791.21949
 -18728741.64249 -14593819.48547         0.00041  20154981.60947  20154978.56049
  -6864058.60649  -5348614.90146         0.00041  21066677.10146  21066675.98349
   3952171.72448   3079608.99746         0.00041  21848690.65146  21848687.93048
   -143345.33447   -111697.66344         0.00041  23445224.59544  23445224.59547
  -2235293.20548  -1741785.43944         0.00041  23506224.36744  23506219.84348
 -17208126.50549 -13408908.68646         0.00041  21514121.25746  21514118.80149
 -11072876.25548  -8628208.70846         0.00041  22044430.92746  22044428.12848
 03 06 30 18 21 30.0000000  0  8 23 15 18 21 09 31 14 03
 -18464451.97149 -14387874.10046         0.00041  21073402.34746  21073399.99049
 -18736602.91549 -14599945.15747         0.00041  20153485.58347  20153482.54149
  -6823873.94249  -5317302.18446         0.00041  21074324.69346  21074323.11849
   4015357.21148   3128844.37246         0.00041  21860714.24046  21860711.80748
   -171080.73447   -133309.66344         0.00041  23440077.95544  23440077.95547
  -2303300.38148  -1794778.02845         0.00041  23493285.75045  23493279.73648
 -17288477.84249 -13471520.05046         0.00041  21498832.02146  21498828.99549
 -11095400.32248  -8645759.92646         0.00041  22040145.33146  22040141.50348
 03 06 30 18 22 00.0000000  0  7 23 15 18 21 31 14 03
 -18461103.25449 -14385264.70646         0.00041  21074039.14646  21074036.92449
 -18744116.94549 -14605800.25047         0.00041  20152055.60447  20152052.73349
  -6783545.75349  -5285877.63146         0.00041  21081998.74246  21081997.12649
   4078833.05748   3178306.03046         0.00041  21872793.04946  21872791.36048
  -2370895.31348  -1847449.35645         0.00041  23480420.61145  23480416.94048
 -17368456.88149 -13533841.32346         0.00041  21483611.68146  21483609.38349
 -11117404.56048  -8662906.06946         0.00041  22035958.41746  22035954.10348
 03 06 30 18 22 30.0000000  0  7 23 15 18 21 31 14 03
 -18457577.90149 -14382517.67646         0.00041  21074710.32846  21074707.67549
 -18751255.24949 -14611362.56347         0.00041  20150696.95447  20150694.16949
  -6743047.74449  -5254320.74746         0.00041  21089704.74846  21089703.61649
   4142626.53948   3228015.19346         0.00041  21884932.61846  21884930.85048
  -2438048.43248  -1899776.42945         0.00041  23467644.10945  23467638.84548
 -17448034.38149 -13595849.70146         0.00041  21468468.10046  21468465.71649
 -11138861.42348  -8679625.68946         0.00041  22031875.20546  22031871.35948
 03 06 30 18 23 00.0000000  0  8 23 15 18 21 09 31 14 03
 -18453862.68149 -14379622.69446         0.00041  21075417.44446  21075414.50149
 -18758002.29449 -14616619.99947         0.00041  20149413.29347  20149410.29349
  -6702366.81449  -5222621.33846         0.00041  21097445.97146  21097445.40049
   4206751.56548   3277982.70046         0.00041  21897135.57646  21897133.11948
        -0.46257        -0.36054         0.00051  23425246.22054  23425246.22057
  -2504743.59048  -1951746.62344         0.00041  23454948.12144  23454945.88848
 -17527194.29649 -13657532.68746         0.00041  21453404.29946  21453401.43249
 -11159756.23048  -8695907.34946         0.00041  22027899.60246  22027895.42948
 03 06 30 18 23 30.0000000  0  7 23 15 18 21 31 14 03
 -18449974.10249 -14376592.63146         0.00041  21076157.64346  21076154.48249
 -18764372.11049 -14621583.49347         0.00041  20148201.04947  20148198.19749
  -6661519.07249  -5190791.93946         0.00041  21105219.03546  21105218.80249
   4271192.69648   3328196.48746         0.00041  21909398.92346  21909396.10948
  -2570993.97748  -2003370.23544         0.00041  23442342.20944  23442339.00848
 -17605950.04949 -13718900.75046         0.00041  21438418.12446  21438414.89949
 -11180103.56448  -8711762.40946         0.00041  22024027.89346  22024023.83348
 03 06 30 18 24 00.0000000  0  7 23 15 18 21 31 14 03
 -18445938.04049 -14373447.64646         0.00041  21076925.68246  21076922.88349
 -18770388.24549 -14626271.39147         0.00041  20147056.32147  20147053.48149
  -6620530.34849  -5158852.68646         0.00041  21113019.20846  21113018.10149
   4335924.39048   3378636.68746         0.00041  21921716.70446  21921713.83548
  -2636822.61448  -2054665.22244         0.00041  23429815.72644  23429812.58148
 -17684324.50049 -13779971.68746         0.00041  21423503.98546  21423501.33049
 -11199928.01348  -8727210.01246         0.00041  22020255.35246  22020251.31048
 03 06 30 18 24 30.0000000  0  8 23 15 18 21 09 31 14 03
 -18441627.60449 -14370088.86446         0.00041  21077746.00546  21077742.97749
 -18775921.57249 -14630583.07247         0.00041  20146003.55847  20146000.51649
  -6579273.88349  -5126704.80546         0.00041  21120870.39646  21120868.60049
   4401074.52648   3429402.94046         0.00041  21934114.86146  21934111.67648
        -0.07958        -0.06254         0.00051  23411304.22654  23411304.22658
  -2702099.36448  -2105530.18244         0.00041  23417394.40144  23417391.82648
 -17762187.71549 -13840644.25146         0.00041  21408686.78146  21408684.56249
 -11219101.00748  -8742149.98946         0.00041  22016606.40946  22016603.19448
 03 06 30 18 25 00.0000000  0  7 23 15 18 21 31 14 03
 -18437098.54849 -14366559.73246         0.00041  21078607.47146  21078604.56249
 -18781025.35049 -14634560.03647         0.00041  20145032.24847  20145029.49949
  -6537805.11049  -5094391.48746         0.00041  21128762.00246  21128759.77949
   4466587.98548   3480452.32746         0.00041  21946581.76346  21946578.66348
  -2766876.88448  -2156006.11144         0.00041  23405067.06844  23405063.88348
 -17839592.51749 -13900959.61546         0.00041  21393956.71246  21393954.73649
 -11237676.89848  -8756624.70346         0.00041  22013071.39346  22013068.24948
 03 06 30 18 25 30.0000000  0  7 23 15 18 21 31 14 03
 -18432416.54149 -14362911.41646         0.00041  21079498.42546  21079495.69249
 -18785763.07649 -14638251.77247         0.00041  20144130.69347  20144127.62249
  -6496189.76149  -5061963.94546         0.00041  21136680.89346  21136679.24049
   4532400.01648   3531734.38146         0.00041  21959104.80546  21959102.57548
  -2831217.84148  -2206141.85544         0.00041  23392823.10444  23392819.30248
 -17916601.65049 -13960966.67646         0.00041  21379302.70846  21379299.65949
 -11255719.99548  -8770684.26246         0.00041  22009637.23646  22009634.48448
 03 06 30 18 26 00.0000000  0  7 23 15 18 21 31 14 03
 -18427528.66449 -14359102.67646         0.00041  21080428.36646  21080426.04149
 -18790079.74549 -14641615.40947         0.00041  20143309.20147  20143306.49449
  -6454374.89649  -5029380.93646         0.00041  21144637.99346  21144636.16349
   4598563.93748   3583290.62146         0.00041  21971695.08146  21971692.61648
  -2895066.41448  -2255893.93045         0.00041  23380673.60445  23380669.71548
 -17993159.60249 -14020622.16446         0.00041  21364734.13046  21364731.19149
 -11273176.18448  -8784286.48946         0.00041  22006314.85946  22006312.32448
 03 06 30 18 26 30.0000000  0  7 23 15 18 21 31 14 03
 -18422371.36049 -14355083.99846         0.00041  21081410.10146  21081406.98549
 -18793909.25949 -14644599.44647         0.00041  20142580.38647  20142577.37249
  -6412297.23849  -4996593.16046         0.00041  21152644.97846  21152643.19949
   4665144.08248   3635171.18646         0.00041  21984365.83946  21984362.58648
  -2958355.98148  -2305210.41045         0.00041  23368633.11845  23368626.74348
 -18069199.43849 -14079873.92746         0.00041  21350264.09046  21350261.36449
 -11289980.19348  -8797380.52746         0.00041  22003117.45446  22003114.60348
 03 06 30 18 27 00.0000000  0  7 23 15 18 21 31 14 03
 -18417005.33449 -14350902.68046         0.00041  21082431.29546  21082428.44249
 -18797310.07349 -14647249.42947         0.00041  20141933.32147  20141930.47449
  -6370016.90549  -4963647.46046         0.00041  21160690.04946  21160689.41849
   4732080.46548   3687329.33146         0.00041  21997103.40146  21997100.54348
  -3021144.35148  -2354136.34044         0.00041  23356680.74244  23356676.49848
 -18144779.46749 -14138767.39246         0.00041  21335881.36746  21335879.17149
 -11306191.46748  -8810012.67746         0.00041  22000033.05946  22000030.10848
 03 06 30 18 27 30.0000000  0  7 23 15 18 21 31 14 03
 -18411563.64849 -14346662.40646         0.00041  21083466.94046  21083464.25249
 -18800413.01749 -14649667.30947         0.00041  20141342.59247  20141339.57149
  -6327667.15449  -4930647.67346         0.00041  21168748.90546  21168748.25749
   4799240.72448   3739661.93146         0.00041  22009883.30246  22009880.39848
  -3083561.48448  -2402773.01945         0.00041  23344806.26845  23344799.30248
 -18220029.50849 -14197403.72646         0.00041  21321561.63146  21321559.62549
 -11321941.75248  -8822285.61846         0.00041  21997035.84646  21997033.48248
 03 06 30 18 28 00.0000000  0  7 23 15 18 21 31 14 03
 -18406089.68749 -14342396.97546         0.00041  21084508.64246  21084505.70049
 -18803259.22949 -14651885.13847         0.00041  20140800.96747  20140798.13549
  -6285291.51349  -4897627.71146         0.00041  21176813.11346  21176811.89749
   4866582.06148   3792135.63646         0.00041  22022698.30346  22022695.14148
  -3145648.01448  -2451152.05345         0.00041  23332988.63745  23332985.03748
 -18294990.36449 -14255814.72746         0.00041  21307296.94346  21307294.82949
 -11337273.29348  -8834232.27146         0.00041  21994117.84446  21994115.92448
 03 06 30 18 28 30.0000000  0  7 23 15 18 21 31 14 03
 -18400467.91549 -14338016.37446         0.00041  21085578.12446  21085575.05249
 -18805731.00549 -14653811.19847         0.00041  20140330.91247  20140327.81549
  -6242774.17449  -4864497.33446         0.00041  21184904.07946  21184902.60449
   4934220.59148   3844840.92946         0.00041  22035569.09346  22035566.79848
  -3207285.34948  -2499181.11545         0.00041  23321260.48245  23321257.26648
 -18369543.69649 -14313908.18246         0.00041  21293109.44046  21293107.61649
 -11352069.24748  -8845761.58946         0.00041  21991301.86546  21991300.08048
 03 06 30 18 29 00.0000000  0  7 23 15 18 21 31 14 03
 -18394715.74849 -14333534.17146         0.00041  21086672.97446  21086669.83049
 -18807843.59949 -14655457.37747         0.00041  20139928.64547  20139925.87449
  -6200132.67049  -4831270.20046         0.00041  21193018.64546  21193016.98349
   5002139.61048   3897764.76746         0.00041  22048494.31446  22048490.70448
  -3268488.15348  -2546871.55345         0.00041  23309613.60945  23309610.29648
 -18443704.37049 -14371695.66346         0.00041  21278997.82146  21278995.47349
 -11366345.82848  -8856886.20646         0.00041  21988585.63546  21988583.43048
 03 06 30 18 29 30.0000000  0  8 23 15 18 21 09 31 14 03
 -18388756.72849 -14328890.78046         0.00041  21087806.75446  21087803.93149
 -18809518.65049 -14656762.61247         0.00041  20139610.04847  20139607.02449
  -6157290.54249  -4797886.73446         0.00041  21201171.32346  21201169.78249
   5070415.88848   3950966.97846         0.00041  22061486.54946  22061483.49548
        -0.15857        -0.12354         0.00051  23371511.71854  23371511.71857
  -3329177.10748  -2594161.60845         0.00041  23298066.64645  23298061.59948
 -18517392.98549 -14429115.30246         0.00041  21264975.13646  21264972.80349
 -11380025.48548  -8867545.68646         0.00041  21985982.78546  21985980.23248
 03 06 30 18 30 00.0000000  0  7 23 15 18 21 31 14 03
 -18382614.33649 -14324104.50146         0.00041  21088975.73746  21088973.07549
 -18810777.38649 -14657743.44247         0.00041  20139370.56247  20139367.46849
  -6114271.24949  -4764365.21946         0.00041  21209357.40946  21209356.03649
   5139026.58748   4004429.78146         0.00041  22074542.76246  22074540.02948
  -3389372.86648  -2641067.39845         0.00041  23286611.14545  23286606.27548
 -18590630.44449 -14486183.39946         0.00041  21251038.58146  21251036.02149
 -11393130.65448  -8877757.51846         0.00041  21983489.61946  21983486.39148
 03 06 30 18 30 30.0000000  0  7 23 15 18 21 31 14 03
 -18376343.88049 -14319218.43346         0.00041  21090168.83746  21090166.23249
 -18811672.66749 -14658441.05947         0.00041  20139200.20647  20139197.29149
  -6071129.85849  -4730748.56546         0.00041  21217566.94746  21217565.68549
   5207916.98948   4058110.55346         0.00041  22087652.49246  22087649.64048
  -3449127.79348  -2687629.62945         0.00041  23275239.42845  23275235.08348
 -18663469.09149 -14542940.73146         0.00041  21237177.61346  21237175.67449
 -11405715.35148  -8887563.78446         0.00041  21981094.57046  21981091.67848
 03 06 30 18 31 00.0000000  0  7 23 15 18 21 31 14 03
 -18369890.10549 -14314189.51646         0.00041  21091397.01746  21091394.20849
 -18812147.20649 -14658810.82947         0.00041  20139109.64947  20139106.57049
  -6027811.02549  -4696993.64346         0.00041  21225810.78346  21225809.17449
   5277142.96548   4112052.81446         0.00041  22100825.63646  22100822.60448
  -3508383.96848  -2733803.25845         0.00041  23263962.87445  23263959.00748
 -18735851.02149 -14599342.17746         0.00041  21223404.38846  21223401.75649
 -11417723.18548  -8896920.54546         0.00041  21978809.38246  21978806.17848
 03 06 30 18 31 30.0000000  0  7 23 15 18 21 31 14 03
 -18363237.00949 -14309005.28646         0.00041  21092663.14046  21092660.01049
 -18812182.90049 -14658838.64646         0.00041  20139102.67246  20139099.86749
  -5984298.52549  -4663087.81746         0.00041  21234090.80746  21234089.57249
   5346721.19248   4166269.55446         0.00041  22114065.49946  22114063.06648
  -3567122.34448  -2779573.40845         0.00041  23252785.77245  23252781.58048
 -18807757.60549 -14655373.22746         0.00041  21209720.71946  21209718.43149
 -11429136.84948  -8905814.31246         0.00041  21976637.38746  21976634.32448
 03 06 30 18 32 00.0000000  0  8 23 15 18 21 09 31 14 03
 -18356463.70049 -14303727.38746         0.00041  21093952.02546  21093949.14849
 -18811856.67949 -14658584.44947         0.00041  20139165.02747  20139162.22349
  -5940671.63549  -4629092.86046         0.00041  21242392.49746  21242391.30149
   5416572.96248   4220699.43346         0.00041  22127357.37546  22127355.33948
        -0.54758        -0.42654         0.00051  23355378.30054  23355378.30058
  -3625419.41648  -2824999.68545         0.00041  23241692.31745  23241688.41748
 -18879265.16049 -14711093.34946         0.00041  21196113.30746  21196111.20949
 -11440034.60048  -8914306.07546         0.00041  21974563.97946  21974560.34448
 03 06 30 18 32 30.0000000  0  8 23 15 18 21 09 31 14 03
 -18349670.55749 -14298434.03246         0.00041  21095244.50346  21095241.44049
 -18811266.88549 -14658124.87347         0.00041  20139277.43647  20139274.44049
  -5897030.51849  -4595086.81446         0.00041  21250697.05646  21250695.72849
   5486598.38648   4275264.63646         0.00041  22140683.74146  22140681.30348
    -15469.91048    -12054.47544         0.00041  23352433.72144  23352433.72148
  -3683372.86648  -2870158.18945         0.00041  23230664.09345  23230660.17448
 -18950471.57049 -14766578.80746         0.00041  21182563.03646  21182560.66349
 -11450515.80648  -8922473.25946         0.00041  21972569.24846  21972565.53748
 03 06 30 18 33 00.0000000  0  8 23 15 18 21 09 31 14 03
 -18342826.77449 -14293101.21746         0.00041  21096546.80646  21096544.31149
 -18810380.56649 -14657434.23847         0.00041  20139446.06847  20139443.17949
  -5853344.46349  -4561045.75546         0.00041  21259009.96146  21259008.44549
   5556828.68148   4329989.46746         0.00041  22154047.77346  22154045.61648
    -30498.47048    -23765.04244         0.00041  23349575.75344  23349575.75348
  -3740949.06148  -2915022.71245         0.00041  23219707.05845  23219703.87948
 -19021343.52049 -14821803.64946         0.00041  21169076.32246  21169073.86949
 -11460548.50348  -8930290.94946         0.00041  21970660.54846  21970656.36748
 03 06 30 18 33 30.0000000  0  8 23 15 18 21 09 31 14 03
 -18335786.22949 -14287615.08146         0.00041  21097886.81546  21097883.94149
 -18809049.52749 -14656397.07547         0.00041  20139699.36547  20139696.27249
  -5809467.21049  -4526855.71146         0.00041  21267359.51346  21267358.08349
   5627410.53448   4384988.24646         0.00041  22167478.63446  22167476.60548
    -44937.72448    -35016.40944         0.00041  23346826.85144  23346826.85148
  -3797999.27048  -2959477.42344         0.00041  23208851.14644  23208847.92248
 -19091732.29249 -14876651.99546         0.00041  21155681.22746  21155679.24549
 -11469985.84048  -8937644.72646         0.00041  21968864.45146  21968860.90148
 03 06 30 18 34 00.0000000  0  8 23 15 18 21 09 31 14 03
 -18328331.34549 -14281806.08246         0.00041  21099305.49646  21099302.71449
 -18807054.00149 -14654842.12647         0.00041  20140079.05747  20140076.14849
  -5765181.16249  -4492347.11146         0.00041  21275787.11046  21275785.81749
   5698561.79848   4440430.71946         0.00041  22181018.75646  22181016.01848
    -58567.45147    -45636.97544         0.00041  23344232.34744  23344232.34747
  -3854303.24348  -3003350.63944         0.00041  23198134.06344  23198132.89848
 -19161417.56049 -14930952.15146         0.00041  21142420.38446  21142418.68849
 -11478609.36048  -8944364.36046         0.00041  21967223.55046  21967220.35848
 03 06 30 18 34 30.0000000  0  8 23 15 18 21 09 31 14 03
 -18320600.83649 -14275782.31346         0.00041  21100776.38646  21100773.82249
 -18804530.75049 -14652875.96147         0.00041  20140559.39647  20140556.36649
  -5720625.07249  -4457628.09446         0.00041  21284265.57446  21284264.42449
   5770144.16148   4496209.09446         0.00041  22194640.98446  22194638.23348
    -71524.11247    -55731.84344         0.00041  23341767.48644  23341767.48647
  -3909996.96348  -3046748.32944         0.00041  23187537.01444  23187534.71348
 -19230535.66849 -14984810.36746         0.00041  21129267.61646  21129265.74149
 -11486556.92648  -8950557.27646         0.00041  21965711.08946  21965707.89748
 03 06 30 18 35 00.0000000  0  8 23 15 18 21 09 31 14 03
 -18312545.78049 -14269505.65046         0.00041  21102309.22946  21102306.67249
 -18801428.79749 -14650458.86347         0.00041  20141149.49547  20141146.51449
  -5675749.57349  -4422660.18746         0.00041  21292805.42846  21292804.22849
   5842207.46248   4552362.22846         0.00041  22208353.78946  22208351.76748
    -83756.29048    -65263.38344         0.00041  23339439.80044  23339439.80048
  -3965028.81548  -3089630.27345         0.00041  23177065.56845  23177062.47248
 -19299034.94749 -15038186.37446         0.00041  21116232.92046  21116231.02349
 -11493778.46248  -8956184.46646         0.00041  21964336.96546  21964333.85248
 03 06 30 18 35 30.0000000  0  8 23 15 18 21 09 31 14 03
 -18304303.11449 -14263082.79646         0.00041  21103877.96246  21103874.92549
 -18797882.99949 -14647695.90447         0.00041  20141824.30247  20141821.23349
  -5630691.65049  -4387550.13246         0.00041  21301380.02646  21301378.49649
   5914614.92048   4608783.54846         0.00041  22222133.14646  22222130.64648
    -95398.62848    -74335.31944         0.00041  23337228.87044  23337224.23248
  -4019533.27548  -3132101.23945         0.00041  23166693.62545  23166690.21648
 -19367049.78549 -15091184.89046         0.00041  21103290.37646  21103288.38249
 -11500410.07748  -8961351.95946         0.00041  21963074.92246  21963071.71848
 03 06 30 18 36 00.0000000  0  8 23 15 18 21 09 31 14 03
 -18296043.13449 -14256646.45146         0.00041  21105449.72446  21105446.93949
 -18794061.64149 -14644718.22947         0.00041  20142551.50847  20142548.38049
  -5585621.73549  -4352430.74246         0.00041  21309956.41046  21309955.08649
   5987196.22348   4665340.34146         0.00041  22235944.66346  22235942.25048
   -106619.48048    -83078.84244         0.00041  23335094.34244  23335088.72848
  -4073677.96848  -3174291.88045         0.00041  23156390.11945  23156386.91548
 -19434748.10849 -15143936.77846         0.00041  21090407.73446  21090405.23849
 -11506621.56448  -8966192.08446         0.00041  21961892.96246  21961889.67148
 03 06 30 18 36 30.0000000  0  8 23 15 18 21 09 31 14 03
 -18287812.55549 -14250233.01246         0.00041  21107015.79946  21107013.06049
 -18790009.67049 -14641560.86347         0.00041  20143322.54247  20143319.66249
  -5540586.27049  -4317338.18146         0.00041  21318526.36846  21318525.07849
   6059905.30048   4721996.69746         0.00041  22249780.37046  22249778.08648
   -117463.32148    -91528.60544         0.00041  23333031.07344  23333024.81048
  -4127507.06448  -3216236.59544         0.00041  23146146.04844  23146143.93848
 -19502174.33349 -15196476.64146         0.00041  21077576.92346  21077574.42049
 -11512458.58448  -8970740.41546         0.00041  21960781.98946  21960778.81148
 03 06 30 18 37 00.0000000  0  8 23 15 18 21 09 31 14 03
 -18279521.12349 -14243772.15946         0.00041  21108593.51846  21108590.88749
 -18785634.66449 -14638151.77547         0.00041  20144154.86247  20144152.24549
  -5495494.80549  -4282202.00046         0.00041  21327107.03246  21327105.30649
   6132833.09848   4778823.48246         0.00041  22263659.02646  22263656.13848
   -127837.40648    -99612.33444         0.00041  23331056.77344  23331050.95348
  -4180927.67648  -3257863.03545         0.00041  23135980.88945  23135979.39148
 -19569235.62549 -15248732.13646         0.00041  21064815.50646  21064813.57549
 -11517830.20748  -8974926.09746         0.00041  21959759.79546  21959756.67348
 03 06 30 18 37 30.0000000  0  8 23 15 18 21 09 31 14 03
 -18271067.09449 -14237184.60246         0.00041  21110202.38746  21110199.78249
 -18780832.81549 -14634410.07747         0.00041  20145068.98247  20145065.87049
  -5450245.73049  -4246943.01146         0.00041  21335717.31246  21335716.00349
   6206081.55048   4835900.11746         0.00041  22277598.27046  22277595.09548
   -137638.05748   -107249.18844         0.00041  23329189.07144  23329185.94748
  -4233835.58548  -3299089.92844         0.00041  23125915.45244  23125910.96048
 -19635827.79649 -15300622.08846         0.00041  21052143.18746  21052140.79949
 -11522633.82948  -8978669.17746         0.00041  21958846.30446  21958842.99848
 03 06 30 18 38 00.0000000  0  8 23 15 18 21 09 31 14 03
 -18262407.21249 -14230436.64346         0.00041  21111850.26046  21111847.65949
 -18775558.83249 -14630300.49247         0.00041  20146072.40947  20146069.34249
  -5404795.66949  -4211527.39946         0.00041  21344365.83546  21344364.85849
   6279694.07048   4893260.43346         0.00041  22291605.43746  22291602.29048
   -146819.63748   -114403.65744         0.00041  23327442.91844  23327439.82348
  -4286185.06848  -3339881.68345         0.00041  23115951.55545  23115948.50148
 -19701904.99849 -15352110.76846         0.00041  21039569.08346  21039567.09849
 -11526825.57448  -8981935.48146         0.00041  21958048.93746  21958044.96648
 03 06 30 18 38 30.0000000  0  8 23 15 18 21 09 31 14 03
 -18253579.21949 -14223557.68346         0.00041  21113530.10846  21113527.31049
 -18769848.66649 -14625851.02647         0.00041  20147159.24947  20147156.31049
  -5359182.10949  -4175984.36846         0.00041  21353046.16046  21353044.85649
   6353633.25648   4950875.30846         0.00041  22305676.08746  22305672.91248
   -155417.69948   -121103.47144         0.00041  23325808.28144  23325802.39648
  -4338011.28348  -3380265.70245         0.00041  23106087.98645  23106085.51348
 -19767502.74849 -15403225.84946         0.00041  21027086.23846  21027084.07349
 -11530442.50948  -8984753.88846         0.00041  21957359.89646  21957356.44048
 03 06 30 18 39 00.0000000  0  8 23 15 18 21 09 31 14 03
 -18244629.34549 -14216583.75646         0.00041  21115233.48446  21115230.39449
 -18763746.82949 -14621096.35347         0.00041  20148320.28547  20148317.28649
  -5313451.39049  -4140350.05646         0.00041  21361748.62946  21361747.21349
   6427853.38248   5008709.05846         0.00041  22319799.98446  22319796.91548
   -163476.58948   -127383.09544         0.00041  23324274.61244  23324268.64748
  -4389358.09548  -3420276.16445         0.00041  23096319.09245  23096314.85748
 -19832665.08049 -15454001.64046         0.00041  21014685.91846  21014683.94349
 -11533530.09148  -8987159.82146         0.00041  21956771.96446  21956769.06648
 03 06 30 18 39 30.0000000  0  8 23 15 18 21 09 31 14 03
 -18235540.37049 -14209501.43546         0.00041  21116962.80846  21116960.05149
 -18757234.05649 -14616021.47247         0.00041  20149559.68547  20149556.72449
  -5267586.18049  -4104610.95846         0.00041  21370476.79446  21370475.15549
   6502371.56948   5066775.08146         0.00041  22333980.46846  22333976.99848
   -170976.88648   -133227.49944         0.00041  23322848.33844  23322843.37448
  -4440205.93848  -3459897.80645         0.00041  23086643.96145  23086639.19148
 -19897372.42949 -15504422.90846         0.00041  21002372.64846  21002370.37249
 -11536070.51548  -8989139.37546         0.00041  21956288.40346  21956284.83948
 03 06 30 18 40 00.0000000  0  8 23 15 18 21 09 31 14 03
 -18226263.40649 -14202272.62846         0.00041  21118728.49046  21118725.28549
 -18750259.42549 -14610586.70147         0.00041  20150886.88847  20150883.89649
  -5221537.34649  -4068728.76946         0.00041  21379239.81346  21379237.73249
   6577237.38648   5125112.00146         0.00041  22348226.73846  22348223.84748
   -177867.96248   -138597.15944         0.00041  23321535.49844  23321530.99748
  -4490503.42248  -3499090.62045         0.00041  23077070.86245  23077067.55648
 -19961573.37249 -15554449.57546         0.00041  20990155.41346  20990153.61349
 -11538014.50448  -8990654.17646         0.00041  21955918.69946  21955915.15848
 03 06 30 18 40 30.0000000  0  8 23 15 18 21 09 31 14 03
 -18216698.65949 -14194819.57746         0.00041  21120548.74746  21120545.70749
 -18742721.15049 -14604712.73047         0.00041  20152321.20747  20152318.30549
  -5175205.18749  -4032625.81446         0.00041  21388056.24046  21388053.96249
   6652550.54148   5183797.48546         0.00041  22362557.64846  22362555.50848
   -184047.86348   -143412.72744         0.00041  23320358.38744  23320354.56848
  -4540148.24748  -3537774.87345         0.00041  23067623.54445  23067620.29448
 -20025165.94149 -15604002.17646         0.00041  20978054.28746  20978052.05849
 -11539261.68448  -8991626.00746         0.00041  21955681.78446  21955678.37048
 03 06 30 18 41 00.0000000  0  8 23 15 18 21 09 31 14 03
 -18206952.16649 -14187224.91046         0.00041  21122403.45146  21122400.38649
 -18734723.37649 -14598480.70547         0.00041  20153843.20847  20153840.08549
  -5128695.33349  -3996384.38146         0.00041  21396906.45546  21396905.07849
   6728205.37248   5242749.20845         0.00041  22376954.69945  22376951.95148
   -189620.71448   -147755.06244         0.00041  23319300.99344  23319293.79648
  -4589244.22148  -3576031.44945         0.00041  23058280.96845  23058277.79048
 -20088254.08749 -15653161.72246         0.00041  20966048.93346  20966047.08049
 -11539917.36948  -8992136.93646         0.00041  21955557.20546  21955553.46248
 03 06 30 18 41 30.0000000  0  8 23 15 18 21 09 31 14 03
 -18197244.82349 -14179660.74346         0.00041  21124249.94346  21124247.26949
 -18726485.56249 -14592061.64047         0.00041  20155411.01547  20155407.89549
  -5082228.68149  -3960176.61446         0.00041  21405748.63946  21405747.21649
   6803981.24948   5301795.27946         0.00041  22391374.31646  22391371.80348
   -194805.47148   -151795.14145         0.00041  23318312.63445  23318307.77448
  -4638010.04048  -3614030.75345         0.00041  23049002.27245  23048997.70448
 -20151056.31849 -15702098.47746         0.00041  20954098.22146  20954096.04049
 -11540202.24148  -8992358.92746         0.00041  21955503.16846  21955498.78148
 03 06 30 18 42 00.0000000  0  8 23 15 18 21 09 31 14 03
 -18187575.34749 -14172126.09046         0.00041  21126090.26846  21126087.55449
 -18718004.59949 -14585453.10547         0.00041  20157024.45047  20157021.90749
  -5035804.09749  -3924001.64346         0.00041  21414583.20946  21414581.63649
   6879880.00948   5360937.07546         0.00041  22405818.21246  22405814.91148
   -199599.06348   -155530.38745         0.00041  23317400.94445  23317395.84448
  -4686441.98148  -3651769.90145         0.00041  23039785.79745  23039780.77348
 -20213568.81349 -15750809.46246         0.00041  20942202.74946  20942200.29549
 -11540114.45148  -8992290.53246         0.00041  21955519.54146  21955516.01748
 03 06 30 18 42 30.0000000  0  8 23 15 18 21 09 31 14 03
 -18177722.85849 -14164448.83046         0.00041  21127965.38546  21127962.47449
 -18709057.57849 -14578481.40847         0.00041  20158726.89247  20158724.30849
  -4989200.36849  -3887687.06646         0.00041  21423451.97546  21423450.28349
   6956122.11148   5420346.41346         0.00041  22420325.47246  22420322.85848
   -203778.52048   -158787.08345         0.00041  23316604.39745  23316599.52048
  -4734316.79948  -3689074.91645         0.00041  23030674.59145  23030669.94748
 -20275568.77049 -15799121.06946         0.00041  20930404.00946  20930401.50849
 -11539432.52948  -8991759.18446         0.00041  21955649.49146  21955646.13148
 03 06 30 18 43 00.0000000  0  8 23 15 18 21 09 31 14 03
 -18167708.39449 -14156645.36446         0.00041  21129871.02946  21129867.91549
 -18699663.84749 -14571161.63246         0.00041  20160514.80846  20160511.64749
  -4942438.70949  -3851249.43646         0.00041  21432349.96846  21432348.78249
   7032687.13848   5480007.38445         0.00041  22434896.08845  22434892.89648
   -207363.27948   -161580.40045         0.00041  23315923.20245  23315918.36348
  -4781653.35048  -3725960.51845         0.00041  23021667.34945  23021662.62948
 -20337074.98849 -15847047.93946         0.00041  20918699.63946  20918697.51749
 -11538177.28348  -8990781.09046         0.00041  21955888.83946  21955885.22048
 03 06 30 18 43 30.0000000  0  8 23 15 18 21 09 31 14 03
 -18157565.66749 -14148741.94146         0.00041  21131800.72946  21131798.18949
 -18689855.30549 -14563518.62346         0.00041  20162381.25846  20162378.17949
  -4895552.67049  -3814714.89046         0.00041  21441271.99246  21441271.08449
   7109541.31348   5539893.64946         0.00041  22449521.23346  22449518.05948
   -210385.03748   -163935.01245         0.00041  23315346.99445  23315342.69848
  -4828483.08048  -3762451.19645         0.00041  23012757.00045  23012751.04048
 -20398119.05149 -15894614.69446         0.00041  20907083.52846  20907081.49349
 -11536381.92548  -8989382.12746         0.00041  21956230.00146  21956226.43948
 03 06 30 18 44 00.0000000  0  8 23 15 18 21 09 31 14 03
 -18147288.81049 -14140734.03846         0.00041  21133756.61946  21133754.02549
 -18679624.33249 -14555546.42847         0.00041  20164328.05247  20164324.99149
  -4848535.98549  -3778078.54346         0.00041  21450219.18046  21450218.12649
   7186690.61548   5600009.89945         0.00041  22464202.76345  22464199.16048
   -212836.38948   -165845.13545         0.00041  23314880.20545  23314876.87648
  -4874797.92048  -3798540.66145         0.00041  23003942.62845  23003938.83048
 -20458693.14349 -15941815.24346         0.00041  20895556.54246  20895554.57449
 -11534040.29248  -8987557.49246         0.00041  21956675.75746  21956672.03248
 03 06 30 18 44 30.0000000  0  8 23 15 18 21 09 31 14 03
 -18136847.28749 -14132597.77346         0.00041  21135743.66946  21135740.69749
 -18668938.66249 -14547219.95747         0.00041  20166361.96247  20166358.85549
  -4801358.39249  -3741316.80546         0.00041  21459196.96346  21459195.45749
   7264165.60348   5660379.94746         0.00041  22478946.52046  22478941.92148
   -214685.04848   -167285.61745         0.00041  23314528.23745  23314525.23248
  -4920565.17048  -3834203.44344         0.00041  22995232.37844  22995229.26148
 -20518764.58649 -15988624.12246         0.00041  20884125.40946  20884123.65949
 -11531121.36148  -8985283.01246         0.00041  21957231.25346  21957228.01148
 03 06 30 18 45 00.0000000  0  8 23 15 18 21 09 31 14 03
 -18126116.33849 -14124235.99846         0.00041  21137785.63046  21137782.78949
 -18657671.84649 -14538440.62547         0.00041  20168505.70847  20168502.56949
  -4753894.76549  -3704332.16846         0.00041  21468229.27746  21468227.30249
   7342091.17248   5721101.07346         0.00041  22493773.95746  22493770.90448
   -215804.58748   -168157.95745         0.00041  23314315.95945  23314311.38248
  -4965657.91748  -3869340.60644         0.00041  22986651.53544  22986648.10948
 -20578206.31149 -16034942.30346         0.00041  20872813.84446  20872812.08549
 -11527500.44048  -8982461.52346         0.00041  21957920.64746  21957917.53448
 03 06 30 18 45 30.0000000  0  8 23 15 18 21 09 31 14 03
 -18115047.43949 -14115610.88146         0.00041  21139891.88346  21139889.21249
 -18645773.64149 -14529169.30847         0.00041  20170769.96547  20170767.05649
  -4706096.73449  -3667086.95746         0.00041  21477324.75246  21477323.26749
   7420516.30148   5782211.46745         0.00041  22508698.41145  22508695.09648
   -216144.72948   -168422.99145         0.00041  23314251.57145  23314246.61448
  -5010025.66348  -3903912.86945         0.00041  22978206.79745  22978205.06848
 -20636967.97749 -16080730.57246         0.00041  20861632.24946  20861629.98949
 -11523128.67648  -8979054.96046         0.00041  21958752.50946  21958749.32248
 03 06 30 18 46 00.0000000  0  8 23 15 18 21 09 31 14 03
 -18103852.86249 -14106887.83246         0.00041  21142022.16946  21142019.05349
 -18633454.51849 -14519570.00247         0.00041  20173114.07047  20173111.48349
  -4658176.18749  -3629746.30246         0.00041  21486443.54146  21486442.13049
   7499228.40348   5843545.48145         0.00041  22523676.14445  22523673.03348
   -215916.10748   -168244.79645         0.00041  23314294.00845  23314290.52848
  -5053878.47548  -3938083.82345         0.00041  22969863.92945  22969859.32048
 -20695259.77049 -16126152.71446         0.00041  20850539.76546  20850537.20949
 -11518217.86048  -8975228.36846         0.00041  21959686.63646  21959683.04948
 03 06 30 18 46 30.0000000  0  8 23 15 18 21 09 31 14 03
 -18092677.61949 -14098179.84646         0.00041  21144149.08146  21144145.99749
 -18620857.83649 -14509754.41947         0.00041  20175511.28947  20175508.25149
  -4610278.16449  -3592423.20546         0.00041  21495557.98946  21495556.54949
   7578082.86948   5904990.42246         0.00041  22538683.20046  22538678.91848
   -215262.27148   -167735.27645         0.00041  23314417.34845  23314414.63048
  -5097359.17148  -3971964.86345         0.00041  22961588.77245  22961585.31548
 -20753224.84949 -16171320.26846         0.00041  20839508.73946  20839507.07349
 -11512912.80448  -8971094.58146         0.00041  21960696.12246  21960691.71748
 03 06 30 18 47 00.0000000  0  8 23 15 18 21 09 31 14 03
 -18081498.93449 -14089469.18246         0.00041  21146276.00146  21146272.86649
 -18607959.13549 -14499703.49947         0.00041  20177965.69347  20177962.71249
  -4562379.64449  -3555099.71446         0.00041  21504673.32146  21504671.66349
   7657102.31548   5966563.92446         0.00041  22553719.52646  22553716.18748
   -214158.75648   -166875.34745         0.00041  23314627.39545  23314624.32148
  -5140442.95448  -4005536.62045         0.00041  22953390.75445  22953387.19548
 -20810838.27349 -16216213.80146         0.00041  20828544.83746  20828543.19249
 -11507190.65148  -8966635.78246         0.00041  21961785.13646  21961780.91348
 03 06 30 18 47 30.0000000  0  8 23 15 18 21 09 31 14 03
 -18070267.41949 -14080717.35446         0.00041  21148413.32446  21148410.54549
 -18594707.66249 -14489377.69447         0.00041  20180487.17147  20180484.63449
  -4514431.23649  -3517737.33846         0.00041  21513797.58946  21513796.46549
   7736335.94248   6028304.30945         0.00041  22568797.28745  22568793.96148
   -212554.70748   -165625.42645         0.00041  23314934.77045  23314929.48548
  -5183078.52448  -4038759.11045         0.00041  22945278.09745  22945274.19348
 -20868048.67849 -16260793.30246         0.00041  20817658.29946  20817656.33849
 -11501002.06048  -8961813.52446         0.00041  21962962.77046  21962958.00648
 03 06 30 18 48 00.0000000  0  8 23 15 18 21 09 31 14 03
 -18058819.12149 -14071796.60146         0.00041  21150591.65846  21150588.76949
 -18580937.88149 -14478648.00546         0.00041  20183107.54546  20183104.62449
  -4466269.06349  -3480208.39746         0.00041  21522962.61046  21522960.96049
   7815948.14248   6090339.68945         0.00041  22583946.98745  22583944.07048
   -210284.65948   -163856.51145         0.00041  23315366.26245  23315361.51648
  -5225099.96948  -4071503.08445         0.00041  22937282.77745  22937277.24148
 -20924690.36549 -16304929.63946         0.00041  20806879.85146  20806878.23849
 -11494182.85248  -8956499.86646         0.00041  21964260.76746  21964256.03848
 03 06 30 18 48 30.0000000  0  8 23 15 18 21 09 31 14 03
 -18047117.06649 -14062678.12046         0.00041  21152818.95646  21152815.86949
 -18566611.07249 -14467484.27246         0.00041  20185834.02946  20185830.84849
  -4417855.75849  -3442483.77246         0.00041  21532175.49146  21532173.27349
   7895975.37748   6152698.48145         0.00041  22599175.22445  22599172.74348
   -207310.08348   -161538.62745         0.00041  23315931.96445  23315927.04548
  -5266468.39348  -4103738.18445         0.00041  22929409.92445  22929405.92848
 -20980724.40849 -16348592.48546         0.00041  20796216.69646  20796214.87449
 -11486696.02348  -8950665.99646         0.00041  21965685.03946  21965680.99948
 03 06 30 18 49 00.0000000  0  8 23 15 18 21 09 31 14 03
 -18035153.16749 -14053355.60846         0.00041  21155095.59346  21155092.50749
 -18551717.59749 -14455878.98946         0.00041  20188668.19546  20188665.12849
  -4369183.16049  -3404557.08146         0.00041  21541437.18746  21541435.45149
   7976425.90548   6215387.07545         0.00041  22614484.51745  22614481.01448
   -203621.56048   -158664.42344         0.00041  23316632.81044  23316629.04348
  -5307173.69648  -4135456.58146         0.00041  22921664.80846  22921660.84548
 -21036140.88549 -16391774.11946         0.00041  20785671.25046  20785669.41249
 -11478533.47048  -8944305.56046         0.00041  21967237.95446  21967234.89448
 03 06 30 18 49 30.0000000  0  8 23 15 18 21 09 31 14 03
 -18023058.31049 -14043931.04246         0.00041  21157396.92546  21157394.09349
 -18536386.71749 -14443932.86546         0.00041  20191585.02146  20191582.62949
  -4320382.21549  -3366530.38746         0.00041  21550723.39846  21550722.23149
   8057169.00248   6278303.64545         0.00041  22629849.38845  22629846.75148
   -199348.56848   -155334.79545         0.00041  23317445.59645  23317442.27348
  -5347344.88848  -4166758.77745         0.00041  22914019.30445  22914016.17048
 -21091068.61249 -16434574.90146         0.00041  20775219.02546  20775217.15949
 -11469825.84848  -8937520.42346         0.00041  21968895.02846  21968891.94648
 03 06 30 18 50 00.0000000  0  8 23 15 18 21 09 31 14 03
 -18010899.78049 -14034456.86146         0.00041  21159710.76746  21159707.95649
 -18520684.29149 -14431697.22746         0.00041  20194573.76046  20194570.76949
  -4271520.06949  -3328456.02046         0.00041  21560022.47446  21560020.96249
   8138137.43448   6341395.81045         0.00041  22645259.38045  22645255.36748
   -194556.89648   -151600.99744         0.00041  23318359.62244  23318354.01648
  -5387047.23048  -4197695.63745         0.00041  22906464.86845  22906461.09048
 -21145573.17249 -16477045.94546         0.00041  20764847.40446  20764844.77649
 -11460640.60448  -8930363.11046         0.00041  21970643.56946  21970640.30448
 03 06 30 18 50 30.0000000  0  8 23 15 18 21 09 31 14 03
 -17998683.28649 -14024937.51446         0.00041  21162035.32146  21162032.25249
 -18504614.27349 -14419175.16247         0.00041  20197631.56547  20197628.70349
  -4222602.11249  -3290338.15746         0.00041  21569330.86546  21569329.32949
   8219325.29448   6404658.95545         0.00041  22660707.55945  22660704.45548
   -189251.01148   -147466.51945         0.00041  23319369.22645  23319364.38948
  -5426284.60748  -4228270.18145         0.00041  22898998.46945  22898993.67048
 -21199658.44749 -16519190.27646         0.00041  20754555.20846  20754552.85549
 -11450983.52148  -8922838.12446         0.00041  21972481.19546  21972478.14248
 03 06 30 18 51 00.0000000  0  8 23 15 18 21 09 31 14 03
 -17986402.43749 -14015368.01646         0.00041  21164372.32646  21164369.37349
 -18488168.84949 -14406360.56847         0.00041  20200760.97147  20200758.19949
  -4173622.05249  -3252171.89346         0.00041  21578651.27046  21578650.10949
   8300738.83048   6468097.95645         0.00041  22676200.43145  22676196.82648
   -183423.30848   -142925.41044         0.00041  23320477.89744  23320473.62348
  -5465048.83548  -4258476.05345         0.00041  22891621.51645  22891617.34348
 -21253316.31249 -16561001.56347         0.00041  20744344.47647  20744342.48149
 -11440848.14248  -8914940.42846         0.00041  21974410.12846  21974407.09048
 03 06 30 18 51 30.0000000  0  8 23 15 18 21 09 31 14 03
 -17974073.99249 -14005761.43646         0.00041  21166718.32346  21166715.36149
 -18471363.22949 -14393265.29147         0.00041  20203959.08747  20203956.16349
  -4124596.37449  -3213970.08946         0.00041  21587980.63846  21587979.87049
   8382361.35048   6531699.82345         0.00041  22691732.17245  22691728.50648
   -177088.99148   -137989.53344         0.00041  23321683.33144  23321678.52148
  -5503354.70748  -4288324.75545         0.00041  22884333.21445  22884327.28048
 -21306561.79549 -16602491.51146         0.00041  20734211.91546  20734209.94949
 -11430251.16548  -8906683.05146         0.00041  21976426.61946  21976423.42248
 03 06 30 18 52 00.0000000  0  8 23 15 18 21 09 31 14 03
 -17961685.35449 -13996107.95446         0.00041  21169076.07146  21169072.97549
 -18454183.38749 -14379878.42347         0.00041  20207228.31247  20207225.14949
  -4075512.07149  -3175722.61846         0.00041  21597321.19746  21597320.23649
   8464205.15248   6595474.08645         0.00041  22707307.30545  22707303.21448
   -170234.44648   -132648.29645         0.00041  23322988.23345  23322983.93148
  -5541187.95648  -4317805.17045         0.00041  22877133.12645  22877127.30848
 -21359380.38049 -16643648.81246         0.00041  20724160.73446  20724158.79149
 -11419180.40948  -8898056.51146         0.00041  21978532.80946  21978529.48848
 03 06 30 18 52 30.0000000  0  8 23 15 18 21 09 31 14 03
 -17949197.13249 -13986376.87846         0.00041  21171451.98946  21171449.05149
 -18436588.67149 -14366168.27947         0.00041  20210576.58047  20210573.70749
  -4026330.21949  -3137399.13646         0.00041  21606680.12346  21606678.57649
   8546309.04248   6659451.04245         0.00041  22722931.29545  22722927.67148
   -162819.33948   -126870.23844         0.00041  23324396.69644  23324393.64748
  -5578507.66848  -4346885.43145         0.00041  22870029.91545  22870025.83848
 -21411731.03149 -16684441.48947         0.00041  20714198.72547  20714197.06349
 -11407596.74248  -8889030.30946         0.00041  21980736.74646  21980733.17948
